GFSGBSN_prec_cthk_000.txt.gz
RH
27 27 32 31 28 25 24 30 38 50 56 61 58 58 64 59 57 55 55 52 51 57 54 52 55 71 86 80 57 52 64 61 60 53 64 70 68 67 63 57 56 53 47 46 48 52 55
27 27 32 34 29 29 27 32 38 56 65 66 66 67 72 66 60 57 56 52 52 56 58 63 62 74 91 76 57 56 63 70 65 57 64 69 67 63 68 63 59 54 51 48 49 52 54
27 29 29 32 32 30 28 32 36 55 69 71 77 80 82 77 74 66 56 57 61 61 62 73 79 80 75 54 64 56 58 74 67 60 61 69 68 66 67 67 59 59 57 53 47 49 54
27 30 31 32 32 30 30 31 35 53 68 78 80 85 86 86 84 76 67 67 72 65 65 75 85 85 64 71 69 58 60 70 70 62 62 72 74 67 74 72 64 63 60 56 46 49 53
27 29 32 32 34 32 32 34 34 48 62 75 76 83 88 90 90 89 83 79 82 80 72 80 87 88 73 73 63 55 59 70 81 66 67 80 87 76 78 75 65 61 58 55 50 51 47
28 29 31 34 34 37 30 34 32 41 61 72 80 88 92 96 94 95 96 94 89 88 85 86 86 98 78 73 68 57 55 75 89 71 78 90 93 84 79 77 82 62 57 54 53 54 46
27 30 30 35 36 40 29 30 32 38 62 75 83 91 95 98 96 97 99 98 96 88 84 75 72 74 80 79 71 58 54 76 92 73 81 86 92 89 75 63 61 62 61 58 57 54 46
27 31 32 33 40 37 37 27 32 35 61 77 84 94 98 98 97 98 98 98 89 84 89 78 74 80 78 89 80 62 58 76 88 72 85 97 89 79 80 72 74 61 64 61 59 55 47
27 30 33 35 40 43 42 31 30 32 57 76 84 92 98 98 98 98 97 96 94 91 93 85 74 78 83 93 79 60 56 75 88 75 80 85 86 82 82 77 73 70 63 67 64 60 51
34 34 37 38 42 48 46 41 31 32 50 64 75 87 98 98 98 98 97 98 97 95 98 94 81 76 81 91 82 59 56 74 86 73 82 93 88 88 86 82 71 83 65 70 65 65 58
35 36 38 38 43 50 52 49 37 32 36 60 73 85 97 98 96 98 98 98 97 99 97 89 90 80 76 90 70 67 59 83 84 70 84 88 86 96 87 77 70 68 72 73 67 62 53
36 36 39 38 43 50 54 57 47 40 30 44 65 75 94 98 97 98 97 98 98 99 95 85 80 81 87 79 76 65 61 82 89 73 80 90 86 90 85 81 73 75 76 74 68 61 61
38 38 40 39 44 48 54 58 58 50 31 42 52 69 83 94 98 97 98 98 98 98 94 80 78 80 83 74 80 72 67 86 91 84 87 83 84 76 72 83 75 81 79 86 73 68 59
39 40 40 40 44 48 53 59 61 55 31 40 45 58 70 88 98 96 98 97 98 98 91 80 72 75 85 73 85 83 92 95 95 66 72 85 93 83 82 73 74 79 76 72 70 65 54
39 41 40 40 44 49 53 61 61 60 32 38 42 52 65 86 98 98 97 98 97 86 91 87 77 74 84 86 87 86 86 92 91 73 71 84 81 71 64 61 77 83 75 65 66 60 60
42 42 41 40 44 49 53 62 63 66 34 32 43 52 66 91 97 97 98 98 98 89 84 86 76 76 97 93 97 96 91 91 88 79 64 69 69 62 64 65 71 71 69 68 67 65 61
46 44 42 39 44 48 53 61 64 68 34 33 49 60 75 96 97 98 98 97 96 84 79 79 77 82 85 85 94 91 92 88 82 80 71 64 66 73 66 66 69 66 60 61 61 62 59
50 45 43 39 43 47 53 59 64 69 37 35 51 65 84 97 98 97 97 98 90 84 81 79 69 79 80 84 93 96 91 81 80 75 70 63 64 70 63 62 66 62 61 59 63 58 55
50 46 44 39 44 46 51 59 62 69 41 34 58 73 88 96 99 98 98 95 91 90 88 87 76 73 71 73 86 90 95 85 80 77 72 66 69 80 78 68 65 59 60 59 58 52 48
47 47 45 40 44 46 51 59 60 69 45 37 60 75 85 94 98 97 97 95 96 96 97 90 79 77 71 76 77 88 92 85 78 74 72 68 67 65 70 61 63 64 60 59 52 49 44
50 45 46 41 43 47 50 58 59 69 48 38 53 68 76 91 93 93 93 95 98 97 94 84 77 74 69 74 78 84 81 77 82 78 78 78 72 71 64 63 62 66 60 45 34 29 39
48 44 46 43 44 47 48 56 59 66 55 27 45 63 73 82 81 86 88 94 93 90 90 82 80 76 73 71 66 73 76 76 70 75 75 79 73 69 67 63 54 51 50 39 37 39 41
52 47 47 45 45 47 46 52 59 61 63 30 39 65 70 82 82 79 86 89 89 86 88 84 77 79 70 75 70 72 73 71 70 69 72 74 71 62 67 60 53 45 37 49 47 46 50
67 52 47 46 46 46 45 49 59 61 69 33 34 64 71 77 79 75 74 84 87 83 86 84 80 79 81 81 76 76 77 74 73 71 67 65 69 66 61 57 52 37 43 40 46 48 47
74 56 48 46 46 45 45 47 56 63 68 43 28 60 68 71 74 70 69 81 83 85 87 86 85 86 82 77 80 83 78 74 75 75 70 66 67 64 59 58 51 49 46 50 49 54 49
79 61 54 48 47 45 44 46 50 64 68 57 28 56 63 64 66 65 69 73 76 79 82 82 82 82 81 83 79 86 84 77 72 73 70 65 61 58 72 72 64 54 57 53 51 58 55
87 75 63 55 49 46 46 45 48 62 68 65 29 51 63 58 60 60 66 69 66 69 73 70 74 77 78 83 85 85 83 73 74 70 67 68 69 67 71 67 61 53 49 50 56 49 53
94 80 62 55 53 50 49 46 49 58 68 71 36 44 61 57 57 61 59 60 57 58 58 55 56 58 61 66 74 76 73 70 72 69 68 66 70 69 68 66 61 50 48 48 50 52 48
98 85 57 55 54 52 50 48 50 55 66 72 61 41 51 56 55 55 58 58 54 53 48 43 45 44 47 55 55 58 58 57 56 59 53 49 44 53 58 55 52 54 58 55 48 43 43

GFSGBSN_prec_cthk_003.txt.gz
RH
26 31 29 29 30 27 27 24 26 32 39 50 55 57 57 61 60 59 57 52 49 50 50 48 46 51 58 60 50 54 55 50 47 61 55 59 73 70 71 63 65 56 53 49 48 48 49
25 30 28 27 30 28 30 28 27 31 38 53 59 65 68 70 69 64 61 59 55 50 51 55 59 60 60 60 59 63 63 56 57 63 59 61 73 72 71 66 65 57 55 52 49 49 50
26 27 28 29 30 29 30 28 27 30 36 51 60 72 74 77 78 77 70 62 59 55 53 60 65 65 66 63 66 65 67 63 66 63 63 64 73 79 71 72 61 62 62 57 50 48 47
26 27 32 29 29 33 29 29 29 29 35 48 59 72 77 81 84 84 81 74 67 62 64 68 72 76 75 74 71 71 77 75 70 66 67 73 84 89 77 71 67 68 65 63 51 48 45
26 28 32 31 30 31 34 29 30 30 33 42 56 70 76 80 85 89 90 87 78 83 81 79 77 80 81 77 77 71 77 80 74 74 71 82 90 93 86 76 72 73 70 59 58 48 46
25 28 32 34 31 32 35 32 29 27 31 41 59 77 84 89 92 93 96 97 91 92 93 90 84 86 79 83 79 71 77 76 84 84 82 88 94 94 89 78 82 74 66 57 54 51 48
25 28 30 33 32 35 35 36 30 27 29 38 60 77 78 90 94 97 98 98 97 96 91 88 80 73 74 81 83 76 79 75 88 93 83 87 94 95 87 75 68 68 61 55 58 56 52
24 31 34 32 35 37 39 37 35 28 27 34 52 66 77 88 95 98 97 98 97 95 95 92 85 80 68 78 87 80 83 77 90 88 83 93 94 91 87 78 72 69 69 62 61 57 54
31 31 36 36 38 37 42 45 41 35 30 29 46 62 81 92 97 98 97 97 98 96 96 93 83 79 71 76 83 87 79 73 87 89 82 84 90 86 88 83 78 70 64 62 66 64 59
32 35 36 37 40 38 41 48 48 44 36 31 36 56 78 88 97 99 98 98 98 98 98 91 90 79 71 77 77 88 75 72 87 86 81 94 93 85 91 83 75 75 68 63 68 69 65
33 34 35 37 40 39 40 48 53 53 49 39 29 47 66 82 95 97 97 98 98 98 97 90 92 85 68 66 77 80 70 75 82 83 84 93 91 86 88 83 75 76 73 74 71 68 59
33 33 35 38 42 40 45 50 53 59 58 51 34 44 57 73 89 97 98 98 98 98 96 97 95 91 78 75 83 85 66 79 88 83 81 96 90 93 80 83 81 73 77 77 70 66 61
39 33 35 39 45 44 44 52 54 61 64 53 37 46 52 66 80 98 98 98 98 97 95 97 96 88 77 80 88 83 62 81 97 94 91 96 91 91 89 85 84 80 82 91 91 80 62
43 39 42 44 47 45 46 52 57 61 65 59 37 45 53 63 81 98 97 97 97 92 93 91 74 91 81 81 93 80 71 82 95 85 83 98 99 85 84 93 83 83 80 81 82 71 59
53 47 45 47 48 46 47 51 57 61 66 66 41 40 50 59 86 98 98 98 92 94 93 82 72 82 87 80 89 74 71 77 92 88 75 87 86 78 83 82 75 91 85 75 71 66 64
52 52 53 49 49 47 48 49 56 62 67 63 40 45 52 64 91 97 98 98 96 97 91 55 64 72 81 79 94 72 69 74 89 82 75 75 79 78 72 78 78 78 73 86 70 70 67
51 51 54 51 50 47 49 48 55 61 67 57 46 51 61 77 92 96 98 97 97 95 79 57 63 71 68 79 91 80 67 86 92 86 79 69 68 72 69 69 73 70 79 75 73 67 61
63 53 53 52 51 48 50 48 55 61 66 55 50 52 67 80 94 97 98 96 95 87 72 68 75 78 76 77 80 83 79 88 88 83 71 66 65 72 66 66 67 62 68 79 69 65 63
73 55 53 54 52 49 51 49 55 62 64 54 59 59 70 82 93 97 96 97 95 82 79 74 72 78 75 86 88 79 81 79 86 85 72 69 70 75 75 72 66 68 64 66 65 60 60
83 64 52 54 53 51 52 50 55 63 64 52 63 62 75 85 95 97 98 97 96 91 91 83 74 77 77 78 80 86 85 82 82 81 76 72 70 67 67 61 60 61 60 62 63 63 61
92 78 62 55 53 53 54 51 55 63 64 49 58 55 71 88 93 96 98 96 96 96 96 95 85 75 74 78 79 84 90 80 82 84 79 73 71 65 62 58 60 57 61 69 62 59 62
96 86 75 57 52 51 54 52 55 64 65 55 53 50 58 77 79 90 97 98 96 98 98 93 83 75 72 70 70 75 79 78 75 78 77 75 76 68 65 64 64 66 64 62 63 61 48
97 93 79 56 52 53 53 52 53 63 65 66 40 39 54 73 79 84 88 96 97 95 96 86 76 73 73 75 72 75 73 76 76 78 75 79 74 74 78 69 65 61 56 61 60 55 37
98 95 81 57 57 53 54 52 52 60 65 69 44 42 60 74 82 80 79 91 96 90 92 81 76 73 72 68 70 75 75 76 79 80 79 82 85 80 75 71 70 57 57 50 47 44 41
98 96 85 61 54 52 53 52 52 59 66 69 50 39 61 74 79 78 77 88 92 89 88 81 82 79 76 75 77 81 80 81 81 84 79 83 81 83 74 69 60 56 53 45 41 44 44
99 97 86 71 58 52 53 50 50 57 66 70 61 39 61 74 71 71 72 80 88 91 86 85 84 83 86 82 84 88 93 78 82 79 77 71 70 71 83 68 58 50 54 55 50 49 48
98 97 88 77 60 52 52 49 48 53 64 71 68 44 60 73 69 65 69 76 79 86 88 86 86 88 87 86 84 87 83 77 77 77 73 73 73 81 80 69 62 59 55 52 56 49 53
98 96 93 80 61 54 52 49 47 52 60 71 73 52 57 72 68 61 64 69 71 71 79 83 84 84 93 90 86 84 82 77 76 72 73 73 75 75 77 72 67 62 57 55 53 51 53
98 97 95 81 68 64 56 50 48 51 58 70 78 62 54 69 71 65 62 62 64 60 64 68 73 72 75 80 85 80 80 80 75 76 74 72 70 71 69 62 59 57 54 51 52 50 55

GFSGBSN_prec_cthk_006.txt.gz
RH
27 30 29 28 27 29 28 27 26 23 26 29 42 48 49 53 61 59 56 53 51 51 53 54 46 44 50 57 60 61 55 49 46 54 55 55 62 64 66 73 70 59 52 50 49 48 44
28 30 33 28 28 28 28 32 30 26 25 27 41 49 54 59 66 66 63 58 59 54 52 53 51 52 53 59 54 54 56 50 46 50 58 57 59 69 68 70 72 61 58 52 52 50 49
27 26 32 33 30 28 29 29 32 27 23 26 37 46 53 62 71 73 71 66 59 58 55 57 65 67 65 56 51 48 46 47 46 48 52 57 63 80 74 75 75 68 64 61 53 51 49
26 26 31 35 33 31 31 30 30 29 27 24 31 45 53 63 74 80 78 74 70 62 61 63 74 74 68 59 56 53 52 52 50 50 49 59 70 82 90 77 79 73 69 64 52 54 49
23 33 33 35 35 34 33 31 34 31 30 25 28 42 53 68 68 79 80 80 82 71 72 77 79 77 69 61 57 56 55 55 55 57 54 63 73 85 90 86 84 79 69 60 59 55 51
20 26 34 35 36 35 35 35 33 33 31 25 25 36 58 71 75 84 84 82 89 89 90 91 88 87 71 65 62 63 66 72 69 74 71 75 75 89 93 91 82 77 70 59 59 54 47
29 20 30 35 37 36 36 37 33 35 35 27 24 31 51 64 78 85 91 91 93 93 93 88 87 85 78 71 69 69 74 79 75 84 83 80 83 88 79 85 79 70 63 61 57 54 52
44 29 23 33 37 38 38 38 36 38 37 30 26 27 42 56 75 85 95 96 95 96 97 96 94 92 89 84 75 71 79 76 77 84 95 92 87 80 94 89 85 73 66 62 63 55 53
42 46 31 33 37 38 39 40 39 43 43 38 31 29 39 54 70 83 90 97 97 98 98 96 97 97 94 86 70 78 77 74 75 89 97 90 75 87 94 86 86 76 70 64 64 60 59
45 48 46 33 40 45 41 40 39 47 49 48 42 37 39 49 63 82 89 97 98 99 98 91 95 96 96 89 70 66 81 77 81 91 97 87 88 95 91 88 86 78 70 70 69 73 67
51 46 52 36 38 47 47 43 42 48 54 57 53 45 42 42 62 76 86 98 98 98 96 85 93 94 93 83 69 70 82 81 80 93 96 86 93 96 94 84 82 77 74 70 72 76 67
66 56 58 44 37 47 49 49 48 52 57 63 64 52 41 45 57 70 90 98 98 98 94 95 96 94 94 85 77 81 87 83 90 93 92 81 91 95 82 87 84 81 74 76 71 71 69
78 62 65 49 39 47 50 50 49 55 58 64 68 59 49 44 57 70 94 98 98 97 94 98 97 97 94 77 70 89 86 82 95 96 96 92 96 92 88 94 88 82 80 94 92 84 64
84 77 61 59 47 49 51 50 51 58 61 65 69 64 57 46 58 76 97 98 98 93 96 95 95 96 94 79 79 90 86 83 92 87 83 98 97 96 82 88 90 81 75 70 73 65 55
98 92 67 68 50 50 51 52 54 60 63 65 69 66 53 47 60 78 98 98 91 96 95 95 93 90 86 76 80 94 75 75 88 88 89 97 96 95 87 80 83 91 83 69 63 58 56
99 95 65 76 62 52 54 54 56 60 64 66 70 60 49 52 66 89 98 98 97 97 97 69 60 69 69 71 87 90 70 70 80 87 90 84 97 90 90 89 86 86 77 79 66 66 61
98 94 75 71 67 56 56 54 58 62 64 67 68 64 59 60 73 92 98 98 96 96 84 54 53 56 58 63 80 72 64 74 70 80 89 85 81 87 88 87 87 82 90 81 64 58 54
98 98 85 72 72 61 58 56 59 63 65 68 61 69 63 64 77 91 97 97 96 93 74 51 51 53 52 64 77 76 59 75 67 76 82 82 72 90 77 74 79 78 71 77 74 66 55
95 99 90 76 76 64 58 58 60 63 66 68 60 72 68 69 82 94 95 97 96 89 72 66 62 60 58 63 74 66 67 68 74 77 76 73 70 78 88 81 76 80 70 70 60 55 55
95 97 91 78 74 68 59 59 62 64 66 69 63 72 72 69 89 98 98 97 97 84 72 77 71 69 68 65 60 57 70 76 85 79 77 73 67 59 61 57 57 61 61 64 60 65 59
95 97 92 83 75 69 61 60 62 64 67 70 57 68 67 68 90 98 98 96 96 94 84 89 73 72 63 70 73 69 67 79 79 85 81 79 68 65 60 56 57 58 61 59 57 57 56
90 97 96 85 78 70 63 60 63 64 68 71 57 57 65 63 79 94 98 97 96 97 95 95 91 75 74 65 61 70 66 75 78 81 77 77 75 66 63 62 58 57 56 59 57 58 53
87 97 98 89 77 70 62 61 63 64 66 72 69 51 55 53 66 88 95 97 96 95 97 95 94 82 73 70 70 74 81 80 78 79 78 79 75 73 69 63 62 63 53 54 51 50 52
89 98 98 94 82 71 67 65 61 63 63 72 72 53 47 47 66 85 89 95 98 95 97 95 86 80 74 74 74 82 85 85 84 83 81 80 76 75 74 68 69 51 52 50 49 47 49
83 97 98 98 91 75 69 67 63 62 62 72 76 60 52 55 69 83 86 97 96 95 93 86 78 76 76 78 82 84 86 93 86 84 84 83 87 85 76 89 61 52 54 53 52 47 43
81 97 98 98 87 87 70 63 63 61 62 71 76 68 51 56 69 76 80 95 96 93 86 84 80 75 72 76 82 86 90 84 89 86 84 87 91 94 88 72 63 55 55 51 48 40 36
76 96 98 98 95 84 67 69 63 61 61 69 77 71 54 57 73 72 72 88 95 95 86 85 85 85 85 78 78 81 76 72 78 83 87 82 84 93 79 80 59 57 57 58 54 49 49
77 95 98 98 97 76 69 67 64 60 60 67 78 72 63 57 76 71 68 83 91 93 89 83 88 90 95 92 86 85 81 68 69 69 73 78 75 71 80 92 90 60 60 57 55 55 53
80 92 98 99 96 76 71 67 64 58 58 66 77 73 74 61 76 73 66 75 81 83 92 88 87 88 92 93 85 86 83 81 72 73 75 74 68 68 68 65 66 68 64 60 56 52 52

GFSGBSN_prec_cthk_009.txt.gz
RH
30 30 29 33 32 27 26 27 27 27 24 22 25 35 41 44 47 52 52 54 54 52 50 54 54 51 50 55 55 55 51 47 49 51 56 53 46 53 59 59 67 67 58 58 56 53 49
24 29 29 32 34 33 28 27 26 30 27 22 23 30 41 47 53 56 60 59 58 56 53 54 56 55 56 58 54 60 56 54 52 54 58 58 53 51 58 63 65 67 62 62 59 55 49
21 23 26 28 32 35 34 30 27 28 30 25 22 25 38 44 55 61 65 65 68 60 57 53 60 66 66 57 56 54 53 50 51 55 55 56 61 60 57 64 59 70 69 67 60 60 52
28 22 22 24 32 35 36 37 35 29 29 30 25 23 32 43 58 63 67 69 72 68 60 55 61 71 71 64 62 58 55 52 46 44 47 54 63 59 69 74 68 67 73 72 63 61 54
32 30 26 29 32 32 37 38 38 35 32 32 31 23 26 39 56 67 69 70 75 74 65 62 66 71 71 64 60 60 59 54 53 52 49 53 60 63 64 80 83 80 71 65 69 61 57
34 31 38 38 33 31 34 38 39 39 34 34 34 26 24 33 53 68 74 76 77 80 81 82 81 81 70 67 65 60 61 58 58 58 57 55 63 63 67 79 83 74 71 65 68 62 58
40 33 38 41 40 34 33 37 39 41 38 34 36 30 25 28 43 64 70 76 82 85 86 85 81 77 75 72 72 69 64 64 63 63 64 59 67 71 53 59 71 72 74 68 64 61 61
53 40 35 42 42 41 34 36 39 42 43 37 38 33 27 28 39 58 70 74 83 85 89 92 90 88 86 83 81 78 74 71 70 69 66 80 86 56 44 59 80 77 74 67 67 68 61
66 55 44 41 43 45 43 36 39 42 45 45 41 38 34 33 39 56 68 73 83 88 92 89 90 92 92 92 89 86 78 72 68 70 76 88 78 61 61 69 87 80 81 68 71 73 57
72 70 59 44 46 49 57 45 41 44 47 50 48 45 45 43 41 48 58 74 84 92 96 85 85 89 96 97 94 89 86 77 72 73 80 86 79 92 70 76 87 83 78 73 73 75 64
88 93 72 62 58 53 56 57 50 48 50 53 59 54 53 51 50 54 57 71 85 96 95 84 90 93 96 97 88 81 74 74 78 79 92 77 78 89 75 80 87 90 82 75 78 69 76
98 96 87 69 66 56 57 65 49 49 54 56 62 65 64 58 54 60 54 72 88 98 94 93 95 96 96 96 89 83 67 65 84 84 97 82 84 91 64 88 90 83 82 78 80 76 70
97 98 99 92 64 67 56 68 52 52 57 58 65 70 72 69 56 60 62 77 96 97 92 97 97 97 96 97 93 84 74 81 87 89 97 95 97 90 90 98 97 91 90 95 89 84 62
72 91 99 98 75 72 62 73 57 55 58 62 70 74 74 75 65 61 66 84 97 86 93 97 98 98 98 95 87 79 85 87 83 84 98 97 97 91 91 93 95 93 86 73 74 67 56
80 95 99 97 76 75 79 77 60 59 59 66 74 76 74 78 69 63 71 89 95 94 95 97 97 93 98 96 74 66 81 83 78 85 99 90 88 91 90 88 90 91 90 70 65 54 56
67 87 98 98 86 84 87 71 61 62 64 68 75 78 76 79 67 68 73 91 97 95 97 96 76 70 83 82 70 75 78 75 77 86 92 96 92 91 95 93 93 89 75 76 61 61 58
82 91 97 98 87 82 92 72 62 62 66 72 77 78 78 73 75 68 72 95 97 96 96 92 59 61 64 65 67 74 75 66 70 79 91 97 96 97 97 91 94 95 85 74 60 56 57
83 85 92 97 97 90 94 71 64 64 68 73 77 76 73 76 77 68 85 97 96 96 94 74 54 56 59 58 63 72 74 69 64 80 97 95 96 98 82 80 83 87 79 67 62 60 54
75 86 94 95 96 85 94 71 64 65 70 74 77 75 73 77 76 74 92 97 97 96 91 61 55 52 51 56 61 67 67 62 74 72 92 85 88 97 94 80 86 83 75 72 67 60 54
83 82 92 96 93 88 96 72 65 67 72 75 76 75 76 77 73 80 95 97 97 93 83 61 57 53 56 59 56 58 64 66 72 70 86 82 77 76 70 62 70 78 77 66 63 64 58
85 88 91 97 97 91 91 74 66 67 74 77 77 72 73 74 77 84 96 96 97 97 82 70 82 65 58 55 54 57 61 74 72 68 76 83 74 67 62 58 62 65 70 72 67 62 59
84 87 94 98 96 88 97 79 70 69 76 76 74 65 76 72 72 72 92 96 98 96 89 82 87 71 67 60 49 47 61 72 77 77 72 78 76 66 66 62 60 60 61 60 58 58 59
77 83 93 96 97 90 87 86 72 71 74 71 78 74 67 63 64 67 80 94 96 96 96 85 91 78 72 66 62 62 66 75 80 74 79 80 79 69 68 62 62 61 51 52 50 50 52
70 77 89 97 96 91 82 80 72 72 71 72 78 79 73 54 50 57 75 93 97 96 96 94 95 95 81 78 72 70 74 74 74 80 76 82 80 76 77 65 72 52 49 48 49 49 49
65 79 92 96 97 88 98 81 74 74 72 73 79 78 79 55 47 64 79 93 96 98 97 96 95 93 87 80 86 89 89 85 81 85 82 83 87 84 83 81 68 56 52 51 51 49 46
65 82 89 97 98 91 95 78 77 72 72 72 76 82 83 59 51 67 80 91 97 97 96 95 92 88 85 82 85 93 98 94 95 93 90 88 88 90 84 75 74 59 53 50 53 51 44
73 83 91 97 98 93 88 80 76 77 76 71 74 82 85 62 56 69 75 88 97 93 91 89 84 83 81 89 87 85 85 85 92 92 91 94 94 94 93 90 67 59 55 52 53 52 48
76 84 85 95 98 94 89 83 73 75 76 70 73 82 85 66 62 72 75 82 97 96 87 87 86 88 90 88 85 78 76 73 74 75 83 85 92 89 96 95 82 64 60 59 60 57 56
74 86 84 93 95 90 95 88 80 75 71 70 72 82 86 68 70 73 73 77 94 96 92 89 90 86 90 90 77 76 76 67 64 71 70 81 67 69 68 70 68 66 66 63 60 59 56

GFSGBSN_prec_cthk_012.txt.gz
RH
26 20 25 29 30 31 31 31 31 29 30 28 25 22 27 36 39 42 45 47 46 48 47 48 52 52 49 51 50 54 50 46 48 48 55 56 56 51 54 54 58 56 55 54 51 51 54
32 26 20 22 27 35 33 28 32 28 28 32 29 23 23 31 40 44 49 52 53 52 51 52 56 60 58 58 52 50 56 52 52 57 57 59 61 56 52 55 60 61 58 56 56 54 55
40 33 27 24 21 29 35 34 35 34 30 31 31 26 23 25 35 42 50 55 57 58 56 55 58 60 63 56 57 56 58 58 58 55 61 61 60 65 59 56 59 62 64 61 55 56 58
47 41 34 30 28 26 32 35 35 37 36 33 29 31 26 24 29 38 48 61 60 63 62 58 56 64 65 60 59 57 55 53 51 52 53 58 66 64 66 67 64 66 69 64 48 56 54
52 49 41 33 32 36 39 33 34 37 38 39 35 34 34 26 29 34 47 59 64 65 69 65 58 64 62 58 58 58 62 60 57 53 52 50 60 60 69 69 74 67 65 57 55 56 58
60 58 51 42 31 32 40 41 37 34 39 41 40 38 41 29 31 35 41 55 65 65 70 72 69 71 62 66 66 63 63 65 64 61 59 60 60 59 61 67 65 60 69 54 58 54 57
57 60 66 55 42 32 38 40 41 41 37 42 43 36 42 33 32 36 42 54 57 64 69 70 71 66 69 70 70 67 66 68 69 66 67 64 67 59 50 50 48 58 65 68 54 55 61
41 56 62 66 57 43 35 37 42 45 44 40 45 39 40 36 36 38 42 52 63 66 68 72 73 72 71 79 76 73 74 75 73 72 71 77 67 43 51 54 58 56 72 70 66 64 64
24 42 61 77 76 57 41 41 42 50 52 49 44 44 41 39 43 42 41 51 65 67 72 70 69 72 81 84 83 82 82 81 78 77 74 76 52 65 61 59 64 58 63 69 76 68 69
24 28 55 79 85 71 57 45 49 51 52 58 49 51 45 46 48 47 49 48 60 72 74 67 70 79 86 90 87 88 90 89 85 76 80 79 63 63 66 61 59 60 48 67 75 87 78
36 26 38 62 67 82 71 59 54 58 60 67 53 55 52 52 60 62 55 59 67 79 78 67 80 86 88 91 92 87 93 95 90 83 84 76 69 63 68 67 62 53 57 74 79 90 89
45 43 35 56 86 77 86 71 63 63 65 71 67 58 59 61 65 68 59 59 71 79 75 77 89 91 92 92 94 94 91 96 91 90 84 75 77 76 65 75 78 61 63 86 90 90 90
54 57 47 32 80 98 99 85 70 68 68 73 72 62 66 68 72 75 62 66 78 77 65 93 94 93 93 93 93 97 94 92 88 93 87 89 83 78 84 91 81 78 80 93 99 98 92
60 62 57 39 92 99 99 85 72 74 73 83 68 66 70 73 78 79 75 71 77 54 76 96 97 96 96 92 91 98 98 88 80 80 86 84 82 80 76 86 72 82 95 99 95 97 67
72 69 65 49 76 98 98 94 79 81 78 84 68 69 71 77 82 83 80 76 59 64 94 97 98 98 87 85 97 97 91 90 73 75 91 92 90 84 75 77 88 84 98 89 90 62 62
82 77 74 72 97 98 99 96 82 82 82 81 69 72 73 83 85 84 82 73 61 82 97 97 97 86 69 82 92 90 87 75 75 79 86 92 98 94 95 93 89 83 86 98 89 68 76
81 78 73 76 95 98 99 94 84 98 90 79 75 75 75 85 85 83 81 66 72 94 96 97 86 70 62 72 71 71 61 66 75 75 90 96 98 95 87 83 92 98 98 90 76 74 68
76 83 76 84 95 97 98 93 91 98 95 77 76 75 76 84 84 80 80 69 96 96 97 96 78 68 58 70 67 73 75 84 75 79 94 96 98 92 88 78 82 91 90 78 71 70 66
76 84 91 95 97 98 97 89 96 98 85 73 76 77 78 82 81 80 77 83 97 97 97 90 67 49 48 63 65 61 74 77 79 85 85 97 98 96 95 95 97 96 90 73 68 69 67
75 85 96 98 97 97 96 98 98 93 75 73 77 79 81 82 80 84 80 87 97 97 96 84 56 48 50 52 58 78 71 77 76 77 83 97 92 98 98 81 79 92 82 72 71 69 63
69 79 94 96 98 98 99 96 98 92 71 75 76 75 77 80 84 80 85 90 97 98 97 81 57 47 49 58 61 65 74 70 72 74 83 95 96 95 83 76 75 76 75 71 68 62 62
57 74 89 96 94 98 95 91 97 93 73 76 75 74 80 80 82 82 77 76 97 97 97 87 70 64 54 59 57 59 65 74 75 80 80 84 89 80 74 68 68 72 72 68 64 66 63
43 67 87 96 97 95 97 99 98 88 73 73 75 73 77 79 83 82 74 76 95 96 96 93 79 75 67 62 63 56 62 64 81 79 80 80 86 79 71 62 62 66 61 61 60 61 58
35 51 78 92 93 94 94 97 98 83 73 74 75 78 82 82 74 69 64 75 94 96 97 94 89 84 78 72 68 68 69 72 78 80 75 74 76 77 70 62 71 56 52 50 52 53 50
40 64 78 88 93 94 94 98 98 78 73 73 77 81 83 82 80 59 57 77 91 98 98 96 95 90 84 75 80 82 83 85 82 80 78 79 81 83 81 79 68 59 54 51 51 50 48
47 67 76 84 89 94 95 98 95 83 76 78 80 80 83 83 80 60 58 81 96 98 98 97 95 95 95 87 83 87 83 91 88 85 83 84 84 88 88 82 81 63 55 51 50 56 50
38 64 72 84 91 92 93 95 88 82 76 78 78 79 84 85 85 63 66 82 94 97 97 96 95 97 97 95 87 85 85 78 86 81 86 88 90 92 90 90 77 64 60 55 58 58 50
32 59 72 81 90 94 94 93 93 88 77 78 76 78 82 84 83 65 71 83 91 97 95 95 96 97 96 93 92 87 82 83 85 84 88 86 92 88 91 90 86 66 66 61 61 57 54
35 53 72 86 92 93 92 99 95 85 82 78 76 77 82 86 85 69 72 83 84 97 95 93 94 91 89 92 89 86 79 75 80 91 81 87 79 83 80 75 71 69 69 64 62 61 61

GFSGBSN_prec_cthk_015.txt.gz
RH
47 40 33 25 25 26 29 34 38 35 33 29 28 26 22 23 31 33 37 41 44 43 42 42 45 49 49 50 50 53 51 50 48 49 51 57 56 54 52 51 51 52 49 49 42 41 42
55 55 43 37 29 27 23 29 36 36 36 36 30 31 27 23 27 34 36 42 47 46 44 45 45 52 56 57 48 47 49 52 53 52 52 54 57 58 57 52 54 53 52 49 48 46 45
48 55 58 47 41 33 29 25 32 37 36 38 36 33 30 25 24 29 34 40 47 50 49 48 48 49 57 55 53 57 58 55 54 55 55 60 58 66 61 55 50 51 52 50 47 46 46
48 44 56 57 51 43 35 31 37 34 35 37 40 38 31 30 25 26 30 37 46 51 56 54 52 48 55 52 49 57 58 58 58 58 60 59 62 61 68 63 55 55 57 57 51 51 46
37 40 46 64 61 52 45 34 36 42 39 36 38 41 37 36 28 30 32 37 42 51 56 60 55 50 51 49 49 51 58 60 56 55 58 54 58 63 62 67 68 66 65 64 57 51 56
23 23 40 47 61 66 55 43 35 40 42 50 43 40 40 41 36 32 37 36 41 49 55 55 55 57 52 53 54 54 58 62 62 61 60 57 54 59 64 71 70 67 63 61 60 48 59
25 25 24 35 49 60 69 59 48 37 39 50 52 54 44 42 41 33 38 40 43 47 50 53 54 49 49 53 59 58 59 67 71 71 68 62 63 65 63 59 61 60 62 65 58 57 61
27 25 23 22 40 56 65 71 60 47 39 44 50 53 53 44 39 36 41 43 42 48 53 55 55 54 54 59 63 63 70 73 75 76 73 71 68 63 60 59 62 63 67 59 57 63 63
29 34 32 24 27 46 63 74 71 58 46 47 48 54 56 48 40 41 43 44 46 54 57 54 49 56 57 62 70 78 81 81 81 84 80 71 68 63 65 65 66 62 63 56 59 61 72
31 32 34 36 28 37 50 76 86 76 58 55 58 58 57 50 48 43 47 44 49 55 61 57 59 61 63 75 78 83 85 85 88 87 88 79 73 70 75 68 66 67 49 53 53 70 76
38 42 40 43 43 30 60 88 87 89 76 66 64 62 59 51 56 51 51 51 58 60 67 59 62 62 74 84 82 83 88 91 89 89 92 80 76 76 75 58 77 62 58 54 57 62 79
46 50 52 50 52 42 41 76 99 98 86 75 71 69 65 59 66 62 59 57 61 64 67 63 62 72 83 89 89 90 92 95 97 98 95 88 87 83 69 66 67 61 66 60 65 72 90
44 58 66 67 60 53 39 66 97 98 97 80 79 76 71 66 71 69 63 63 67 68 54 66 66 80 86 92 93 92 93 94 99 99 98 97 92 86 80 79 72 75 81 76 77 85 70
43 68 76 75 85 75 64 46 80 87 88 85 85 83 81 79 82 72 68 71 73 53 61 62 72 84 95 93 92 81 86 90 96 99 97 97 92 85 69 68 69 71 71 82 77 67 59
56 75 84 84 86 80 66 57 90 98 99 95 92 85 85 83 87 73 74 74 66 64 65 67 89 97 97 92 79 84 90 97 86 94 89 90 79 69 68 68 76 71 89 51 82 66 97
51 80 85 89 89 80 65 77 95 98 97 97 99 88 91 83 81 79 78 70 69 69 71 87 97 97 87 78 80 86 85 78 81 70 66 71 86 81 88 90 83 82 70 89 91 86 90
51 75 86 95 96 76 77 91 98 99 99 90 97 86 97 86 84 82 71 72 74 72 83 96 97 92 87 75 80 76 71 64 69 75 72 81 94 93 97 98 76 86 90 82 88 91 90
49 71 84 90 86 99 98 97 99 97 99 94 89 88 95 92 85 75 74 78 77 80 95 96 95 88 74 65 73 67 61 61 77 77 82 89 96 98 91 80 81 78 87 82 93 97 93
48 78 76 87 98 98 97 99 98 94 95 96 97 90 94 90 81 74 78 82 79 92 97 97 90 78 60 63 72 60 59 64 74 88 95 96 96 89 92 93 84 83 81 70 83 98 83
50 64 71 78 95 98 97 98 94 98 98 99 89 91 91 84 76 76 82 85 83 94 96 96 87 74 59 59 58 62 63 70 82 88 95 97 98 94 89 89 76 72 71 88 95 98 74
47 57 62 72 93 98 95 96 94 96 98 96 90 94 78 78 76 78 83 84 85 98 97 96 89 72 57 54 54 64 66 71 81 86 96 97 98 97 91 85 83 78 77 91 98 84 68
43 42 58 75 96 98 98 95 94 97 96 88 82 83 77 74 80 88 86 84 79 94 97 96 90 61 55 56 55 61 69 69 81 86 91 95 98 98 94 88 87 86 88 90 85 76 70
45 29 56 87 94 95 95 95 98 99 99 91 79 75 80 75 79 89 89 82 68 95 95 95 92 76 69 57 61 63 64 66 73 81 83 89 90 97 85 92 87 89 80 78 74 69 65
39 30 54 73 83 95 95 98 99 98 95 93 71 80 88 77 84 89 88 78 71 92 95 95 94 85 75 66 67 63 65 72 69 82 84 81 86 88 86 74 80 67 65 69 69 66 64
39 34 53 75 82 94 94 98 98 99 96 92 78 75 82 80 83 87 86 64 69 94 97 96 97 85 81 87 83 83 89 76 70 79 80 79 80 83 86 84 72 64 59 57 58 57 57
42 30 45 67 88 95 94 95 97 97 96 85 75 79 80 80 84 85 82 68 79 94 97 98 97 92 92 87 85 90 90 87 85 83 79 78 84 86 89 84 81 62 55 52 54 58 51
47 33 42 63 89 89 95 96 98 99 93 79 75 78 81 79 85 87 82 66 86 96 98 98 97 96 97 94 90 91 86 80 91 89 89 89 89 86 84 86 73 65 59 55 61 57 52
48 41 41 66 84 82 93 97 98 99 93 77 76 83 83 77 84 87 81 71 91 96 97 98 98 98 98 97 93 94 85 82 80 80 80 80 88 92 91 91 83 64 63 60 60 56 53
51 29 38 61 78 78 89 96 96 98 90 82 79 83 81 78 83 88 81 75 88 91 95 97 98 96 95 95 92 91 83 81 83 85 81 85 81 85 78 76 68 69 66 64 59 58 60

GFSGBSN_prec_cthk_018.txt.gz
RH
62 62 55 54 55 44 34 30 27 36 41 39 38 34 30 24 23 30 31 34 36 38 40 39 39 41 41 41 41 47 47 48 48 53 55 55 53 51 46 45 44 47 42 41 42 42 42
50 48 53 53 63 62 48 38 31 28 35 40 38 38 35 31 24 27 31 33 34 40 41 41 40 42 46 48 42 43 50 52 53 54 53 54 53 53 53 49 47 45 47 46 45 42 42
20 39 41 47 49 65 70 50 42 36 33 35 39 40 39 35 28 25 30 32 34 41 43 44 42 43 46 44 45 44 46 51 56 57 53 57 55 59 60 56 53 51 51 49 46 46 49
19 17 20 35 39 51 67 69 53 42 41 40 36 46 46 40 33 26 29 32 33 39 43 46 47 47 43 39 42 47 48 49 50 57 61 63 62 67 66 65 63 59 55 57 45 48 49
18 21 21 17 22 36 55 68 67 55 44 47 49 47 46 44 38 31 32 36 36 36 42 47 49 49 43 39 40 41 48 50 51 54 59 66 66 65 65 71 69 68 66 58 55 48 52
24 25 23 24 22 17 35 47 70 67 55 46 50 53 52 49 42 38 38 41 41 39 41 47 49 47 40 40 43 44 49 52 54 54 54 62 64 65 68 70 68 65 63 57 57 57 56
27 27 27 27 24 26 22 35 50 65 70 61 45 52 58 55 54 45 39 46 45 43 42 41 44 43 41 44 43 45 49 53 57 59 61 61 69 66 59 62 65 66 63 61 61 64 61
26 27 27 28 33 28 24 34 49 60 74 73 57 53 57 61 57 57 41 45 42 40 42 42 46 47 50 51 51 50 52 56 59 64 68 71 71 62 60 60 63 67 70 64 61 60 63
27 27 37 36 34 32 33 24 45 58 74 75 66 55 58 59 58 56 47 46 44 44 46 46 45 50 51 55 59 59 60 63 68 74 77 77 68 64 66 66 69 64 66 66 63 56 54
37 37 37 40 38 42 37 34 32 53 79 85 78 64 64 63 58 51 50 52 51 49 54 50 52 57 57 61 63 66 69 74 80 83 85 83 77 73 72 76 73 70 62 64 64 68 67
38 40 43 44 47 55 57 46 33 46 71 83 88 76 68 63 55 47 50 55 58 61 58 51 58 60 61 62 66 69 75 79 87 88 90 82 80 82 81 75 79 74 69 68 70 71 73
44 47 44 46 56 71 64 57 48 49 58 94 99 98 77 69 57 54 59 63 70 71 63 58 60 62 63 64 71 76 82 90 94 95 89 86 85 84 76 76 78 83 80 79 78 79 82
46 54 48 60 73 82 76 67 68 46 90 99 99 98 88 74 58 62 70 71 74 71 52 64 62 68 63 67 77 86 90 96 94 93 91 95 91 91 87 86 83 85 89 92 93 89 68
54 54 49 73 83 85 83 81 70 52 93 98 96 99 93 80 75 74 74 74 72 55 58 60 68 67 67 75 89 88 86 79 79 89 93 96 97 93 84 85 87 88 86 89 86 86 63
56 53 53 73 87 95 94 80 61 64 93 98 99 99 90 88 74 79 79 78 69 56 58 70 74 73 81 89 85 76 75 77 72 85 93 94 96 89 89 84 85 88 96 65 85 77 82
54 54 70 77 86 96 98 85 67 61 84 97 98 97 97 89 88 85 90 80 71 63 75 74 73 79 89 81 73 73 72 65 72 81 86 90 93 78 82 80 79 75 72 92 90 87 80
51 56 78 83 87 95 93 87 77 74 78 95 95 94 99 96 94 89 89 83 69 72 76 77 79 91 86 73 68 67 63 59 67 70 76 77 80 79 78 79 73 83 88 84 70 66 89
51 68 75 78 82 87 95 98 86 76 85 96 98 98 93 91 91 86 87 78 71 78 80 79 88 94 80 71 69 70 66 58 62 67 79 79 93 96 89 81 84 91 75 73 76 68 66
57 55 67 68 71 87 99 94 98 93 97 98 98 98 99 95 94 89 84 83 80 84 84 89 94 94 74 65 64 65 61 60 71 76 83 91 98 96 95 92 93 91 80 70 73 68 78
58 43 54 57 68 86 95 97 92 98 98 98 96 98 94 94 93 95 87 78 82 86 85 93 97 89 73 62 59 60 66 63 73 82 93 97 98 97 93 99 87 86 75 72 77 62 73
58 46 39 58 67 86 93 90 97 96 96 95 97 92 74 80 85 86 86 76 82 90 90 97 97 91 76 69 55 63 67 70 79 88 97 98 98 98 96 96 98 82 69 72 76 69 91
55 49 38 55 58 81 93 97 99 94 96 97 96 94 78 81 88 88 76 78 87 89 91 97 97 92 75 64 50 57 67 73 77 90 97 98 97 99 95 82 91 86 78 78 81 89 90
55 44 35 46 62 80 91 97 98 98 96 98 96 85 81 89 84 83 79 86 88 83 86 95 96 94 78 61 56 59 67 70 72 85 97 97 97 98 99 94 91 96 86 84 84 90 92
56 44 37 40 64 84 86 90 96 98 98 98 91 87 85 90 82 75 84 89 92 76 79 93 96 96 82 63 60 64 71 72 72 80 89 95 93 91 96 95 87 76 84 89 91 92 93
55 52 47 40 62 78 89 97 98 99 98 99 90 80 80 83 80 80 89 91 88 73 82 93 98 96 90 78 71 77 68 75 75 77 80 85 86 90 93 91 77 72 70 82 86 79 76
48 55 46 43 53 70 88 94 97 96 99 99 97 84 76 83 79 75 84 85 88 75 88 96 97 98 91 82 88 81 83 78 77 74 73 81 82 85 90 88 80 65 62 61 63 66 60
50 52 46 43 51 71 84 91 95 98 99 97 95 93 74 78 76 81 85 85 83 75 91 97 98 99 95 92 91 84 79 77 79 77 82 82 85 84 85 86 74 65 61 58 63 59 55
47 53 47 35 47 69 78 93 98 99 99 97 98 85 73 73 77 83 85 87 81 87 96 97 98 98 97 95 91 86 83 82 74 75 80 77 83 85 88 88 82 65 61 59 57 55 55
44 51 48 32 36 69 75 90 95 97 94 94 85 78 77 78 81 82 88 89 79 91 96 97 97 97 95 95 92 93 97 89 77 77 74 78 70 82 82 77 68 69 68 65 62 59 58

GFSGBSN_prec_cthk_021.txt.gz
RH
21 24 34 41 51 62 62 61 52 44 38 32 44 47 39 37 31 32 33 35 38 38 40 41 40 39 37 39 40 41 41 42 44 48 51 54 53 53 52 48 44 48 42 42 41 42 45
21 20 22 28 30 42 58 69 66 61 52 38 36 46 44 40 38 30 34 34 38 38 40 42 42 42 42 44 36 37 42 44 47 50 54 57 56 56 57 54 51 47 45 43 44 42 42
18 19 16 16 18 26 31 61 72 68 65 50 41 36 44 42 41 37 32 34 37 38 40 42 41 42 44 40 40 38 45 47 48 51 52 53 55 61 62 60 57 52 50 45 45 43 44
25 24 24 21 17 16 21 30 53 73 68 63 51 46 42 47 46 42 31 33 40 41 41 43 42 42 46 40 37 40 40 44 46 50 50 50 58 63 70 67 64 63 60 58 43 42 46
20 19 22 23 25 25 20 16 29 55 76 68 60 52 51 47 49 47 36 34 42 41 39 43 45 43 40 41 38 37 41 43 44 47 51 54 58 59 62 69 69 65 65 62 57 49 51
24 23 23 26 25 26 26 25 20 37 62 71 70 60 59 59 60 49 40 45 49 45 43 47 49 45 37 36 37 38 39 43 46 50 54 55 60 62 64 66 67 69 74 66 62 55 58
26 26 27 24 27 27 27 27 25 20 41 55 83 71 62 63 57 63 50 52 52 51 46 42 44 42 41 42 41 41 39 44 47 47 51 53 62 62 59 66 67 70 73 72 67 61 59
27 36 38 35 33 32 33 32 27 31 27 47 74 79 77 67 70 63 60 56 52 49 45 42 45 45 45 45 46 46 45 48 50 55 56 58 59 56 59 63 66 68 71 68 66 61 60
37 37 39 40 38 34 37 36 35 29 27 35 66 76 88 76 75 69 63 59 56 56 49 41 42 46 50 52 53 50 51 54 56 60 61 60 53 53 59 63 69 70 71 67 66 62 59
36 39 44 41 39 38 47 46 52 43 35 49 56 78 92 87 73 74 64 62 55 60 61 51 52 51 50 52 52 52 56 58 62 65 70 70 64 66 70 73 75 76 71 70 69 72 69
40 44 46 54 46 51 58 80 70 57 50 41 54 88 99 87 72 70 60 64 58 61 66 55 60 59 58 59 57 60 63 64 65 69 73 70 71 73 76 74 80 78 75 78 77 78 74
43 47 54 58 57 60 75 85 82 70 55 40 59 88 99 99 86 70 67 59 65 69 68 61 62 62 62 60 60 60 65 69 72 79 78 76 77 80 77 77 84 86 87 89 87 86 82
45 49 54 59 63 70 81 85 82 72 58 44 70 98 99 97 93 77 60 66 77 74 55 63 60 65 65 66 64 66 72 78 84 91 88 90 86 84 84 86 87 91 95 98 98 96 81
56 59 60 52 73 93 89 90 92 77 61 45 57 97 97 98 94 82 62 72 69 56 61 61 63 68 71 64 65 72 80 84 80 80 81 82 79 75 77 82 86 89 93 96 93 89 80
56 60 61 68 84 88 94 96 99 82 68 51 67 96 96 98 96 87 72 76 61 53 58 63 66 77 72 68 74 83 71 57 57 66 74 80 79 76 80 86 89 97 97 78 93 93 97
55 58 65 76 78 87 89 95 98 90 74 65 79 94 98 99 92 91 79 63 62 57 59 65 74 73 70 75 86 68 54 49 57 56 65 71 77 72 80 88 93 96 88 97 98 95 92
57 57 66 75 72 82 86 95 99 90 74 86 96 98 98 98 96 99 87 74 66 68 67 73 75 77 74 87 78 63 55 49 51 55 58 70 78 73 78 75 74 90 93 89 86 87 81
58 56 64 74 62 77 81 96 96 87 96 93 97 99 98 98 97 89 76 80 74 82 78 76 78 78 88 88 78 63 61 53 54 67 75 79 86 91 84 85 79 72 72 82 84 78 71
58 56 57 71 57 61 71 85 89 94 97 98 98 98 99 98 87 83 80 76 86 89 80 82 84 86 92 90 78 61 57 51 57 66 80 88 95 95 95 92 94 95 86 82 76 80 67
57 57 59 59 50 60 77 87 85 91 90 97 97 98 98 98 91 86 81 82 87 85 82 87 90 94 95 87 69 60 61 57 58 68 83 90 97 97 93 97 94 97 93 92 88 79 59
57 55 59 53 48 64 76 82 86 81 87 85 93 96 93 89 91 82 89 87 89 83 85 91 93 94 97 87 67 62 63 64 71 82 91 97 98 98 97 97 98 97 83 79 78 58 60
51 51 60 56 45 67 74 83 91 89 93 93 98 97 94 88 77 93 94 93 86 80 92 95 94 95 96 88 60 52 54 66 78 92 96 98 97 98 96 96 91 86 80 72 64 58 52
48 49 60 50 43 61 77 84 92 98 98 98 98 92 90 85 85 88 85 88 82 83 92 89 94 97 94 88 65 58 65 73 81 88 97 99 98 98 98 95 90 87 77 66 59 65 70
48 49 60 51 45 57 68 79 93 98 97 97 98 98 91 88 82 85 89 86 87 91 92 87 91 97 92 86 64 61 65 72 72 82 88 96 99 99 98 98 97 91 86 79 76 73 79
52 54 57 55 42 51 67 80 92 96 97 98 97 97 93 90 91 90 86 85 92 93 92 77 88 94 96 92 72 68 70 70 74 77 85 89 94 96 97 96 86 77 92 94 91 90 91
54 52 53 53 34 48 65 79 92 92 90 93 98 97 94 91 90 90 82 84 94 94 92 75 93 97 97 93 77 71 75 65 75 75 78 85 87 92 89 90 85 74 72 84 88 91 79
53 53 48 55 35 43 63 75 90 89 92 93 99 91 86 84 85 81 79 77 86 91 83 79 96 97 97 94 87 81 75 73 80 75 76 82 87 90 85 84 78 72 66 71 84 64 60
49 51 45 53 39 37 59 73 92 96 96 96 98 97 93 80 82 85 78 83 89 91 81 92 97 98 98 94 93 87 79 71 76 73 73 75 78 84 84 86 83 68 65 63 60 59 58
47 49 46 47 43 36 50 72 90 97 97 97 98 94 92 80 77 75 79 84 90 88 82 97 96 98 98 94 86 85 79 79 76 75 73 78 73 75 73 77 69 70 69 64 60 62 60

GFSGBSN_prec_cthk_024.txt.gz
RH
21 19 17 16 19 23 32 42 43 71 72 52 51 42 52 47 44 39 30 32 35 38 41 42 43 45 40 44 45 44 42 42 43 51 55 57 56 54 50 48 46 48 42 39 37 37 35
21 23 23 19 17 17 17 20 32 50 73 73 65 56 49 53 49 42 38 31 34 38 40 42 43 46 45 44 39 39 45 43 44 49 55 56 56 55 55 54 52 50 48 45 42 38 37
24 23 21 23 22 19 17 18 16 25 53 78 74 71 51 57 51 47 42 34 35 37 41 41 42 44 47 42 42 43 45 45 46 51 55 56 60 56 57 57 55 54 54 49 44 40 40
22 23 24 25 26 26 27 19 20 20 27 58 83 76 70 56 62 51 46 42 35 39 41 43 44 44 43 42 41 42 43 46 47 49 48 48 50 53 58 59 60 61 60 61 49 46 41
27 26 26 27 26 26 26 27 26 24 23 31 64 82 70 69 68 62 51 48 39 48 49 42 45 43 40 39 40 42 43 42 45 45 48 48 49 51 54 59 61 59 62 63 59 54 51
27 27 27 27 27 28 28 27 26 30 23 24 38 70 81 75 72 73 65 53 44 53 50 45 47 44 37 38 36 35 36 41 42 43 46 50 52 56 57 59 61 57 61 59 61 59 57
34 35 38 34 27 28 27 30 34 35 34 23 22 58 83 82 80 78 74 65 56 54 51 42 43 42 41 41 39 39 40 42 45 47 51 51 54 57 56 56 56 60 64 65 62 59 61
40 40 45 46 48 44 34 31 35 35 33 33 23 37 86 85 84 81 74 66 62 51 48 44 44 45 44 44 44 43 41 45 49 51 51 53 53 49 52 56 58 60 65 63 56 54 56
37 36 39 41 41 45 47 38 45 47 44 44 33 27 56 84 98 88 75 66 61 61 54 43 40 42 44 47 49 47 48 49 52 57 57 55 47 47 53 56 60 59 63 65 62 56 53
31 34 41 48 51 49 52 51 56 60 59 54 46 32 54 92 99 95 86 73 65 62 61 50 50 46 44 49 50 49 50 52 57 60 62 61 54 58 59 61 64 67 63 67 70 75 70
34 43 45 55 58 62 60 66 76 78 71 66 56 34 46 98 99 98 89 89 76 54 66 56 61 61 61 55 54 56 57 60 61 62 64 59 61 64 68 62 71 69 68 75 77 82 81
40 45 54 57 69 66 69 81 79 75 71 68 59 38 44 81 99 98 95 93 72 64 69 62 64 66 66 64 62 62 61 61 64 65 64 60 64 68 68 71 77 82 83 88 90 90 84
42 45 54 60 72 79 89 92 91 90 92 72 59 38 54 94 99 98 94 87 78 73 56 61 60 62 61 64 64 64 66 70 69 74 74 74 72 75 75 80 84 89 98 97 97 96 79
45 53 55 58 79 89 89 88 93 97 97 83 60 40 44 86 98 98 93 84 78 57 62 61 59 61 63 63 67 67 67 70 74 76 72 70 64 63 65 64 73 84 93 96 95 93 81
46 56 57 60 81 82 81 85 96 99 91 87 65 42 60 96 98 98 91 89 66 54 55 60 63 66 70 67 67 68 68 69 53 56 65 67 66 63 63 68 72 83 89 80 97 96 98
47 56 55 57 74 79 74 82 89 98 98 85 70 48 75 97 98 98 90 82 69 54 56 57 61 62 66 70 70 72 70 47 47 50 58 63 69 56 60 68 70 80 80 91 95 97 95
44 59 58 60 70 73 66 75 80 95 99 81 73 77 97 96 98 98 88 81 69 57 56 61 63 66 63 69 70 76 69 43 47 51 62 72 75 69 74 73 70 81 86 90 94 94 89
48 59 59 62 61 63 70 75 79 94 95 79 82 86 90 99 98 98 93 83 71 65 63 65 64 67 72 71 74 82 70 53 47 56 63 69 82 79 75 75 84 87 87 86 86 88 86
52 61 57 62 52 57 66 64 78 93 95 73 79 83 95 91 97 88 87 83 75 72 77 76 76 75 76 78 86 82 65 47 53 58 63 71 88 94 90 88 90 97 93 89 86 86 76
50 60 59 64 56 47 64 74 81 93 85 74 84 96 99 98 93 87 85 84 83 76 85 84 83 83 81 86 93 84 63 55 58 61 70 81 94 96 95 91 97 98 96 98 96 95 66
53 58 55 64 56 43 64 73 86 91 87 86 88 98 95 95 95 89 86 81 82 89 85 84 85 83 90 95 97 85 67 61 64 72 83 92 96 96 96 96 98 98 97 95 89 75 78
58 55 52 61 57 48 63 78 89 92 90 83 95 95 97 91 94 89 89 84 83 86 90 85 86 89 94 96 92 71 60 57 61 82 92 96 93 97 96 95 97 93 82 76 73 70 60
58 54 59 53 59 48 56 70 94 98 94 96 96 93 92 96 91 92 86 90 91 89 83 76 88 95 96 96 93 82 62 58 71 80 93 98 98 97 93 97 97 95 88 78 73 70 66
58 56 56 53 56 45 58 73 88 96 98 93 97 99 95 98 96 90 91 95 93 88 83 88 94 96 95 96 93 83 61 64 69 74 88 96 98 98 97 98 98 94 91 77 77 70 73
56 55 60 49 49 45 50 74 81 89 96 99 98 98 95 95 86 87 94 93 91 87 94 96 88 81 94 98 95 84 63 64 61 67 77 87 95 97 98 98 94 78 91 88 86 82 72
52 49 53 47 48 42 44 66 75 84 92 97 97 98 95 90 88 87 91 93 92 92 98 97 90 86 97 98 96 87 69 69 66 74 80 88 90 94 96 94 90 75 77 89 90 92 80
45 41 47 47 42 47 41 59 79 88 90 93 96 97 95 90 87 88 89 86 84 93 95 96 87 89 98 98 98 90 73 68 76 79 82 84 90 89 91 88 82 72 66 78 81 74 73
43 34 37 46 39 45 44 55 76 85 87 90 97 98 95 88 91 90 87 87 85 86 93 94 86 94 97 98 97 91 79 72 75 76 78 80 82 84 84 88 82 70 69 66 61 59 61
35 34 35 37 38 42 44 52 74 85 87 87 93 94 91 88 85 86 88 84 84 89 94 90 87 97 97 97 93 92 90 81 77 82 76 79 72 77 74 79 75 75 71 64 59 59 59

GFSGBSN_prec_cthk_027.txt.gz
RH
22 22 23 20 20 18 16 16 16 23 33 41 66 70 66 49 68 54 48 40 31 35 38 40 41 43 42 46 48 47 47 45 46 50 53 54 55 49 46 43 42 45 39 37 36 34 33
26 27 27 27 26 28 25 23 20 16 17 21 48 64 73 67 59 68 52 46 33 35 39 40 41 43 46 47 42 44 47 46 47 52 56 56 56 57 54 53 52 50 48 45 40 37 36
28 27 27 27 28 27 27 28 28 26 24 23 23 56 66 81 66 70 59 50 44 36 39 40 41 42 44 46 45 44 44 47 48 50 50 56 59 57 57 57 56 54 54 48 44 42 41
30 29 28 27 28 28 27 27 27 28 28 27 26 34 56 78 77 72 72 51 49 38 41 41 44 43 40 42 44 44 46 49 50 55 54 53 62 63 62 60 57 57 56 52 46 46 43
30 30 31 29 29 29 30 30 27 26 26 27 27 20 50 76 81 77 77 77 51 45 50 47 44 44 38 37 42 44 46 49 50 54 52 50 51 52 55 58 57 57 56 56 50 46 47
35 36 40 36 38 33 33 33 31 31 30 34 29 26 31 62 84 85 83 80 66 53 58 49 47 44 37 39 36 38 41 48 50 50 51 51 50 51 51 57 56 54 56 51 52 47 48
41 41 40 37 44 46 46 36 34 35 33 40 34 34 21 47 78 90 90 76 75 64 55 46 42 44 40 40 38 38 37 42 42 46 49 49 51 51 51 51 51 55 58 55 53 49 48
34 36 42 40 41 42 45 46 50 48 44 47 53 42 35 31 86 98 90 78 68 60 54 47 48 47 47 45 44 44 41 43 46 49 51 53 52 46 46 50 54 54 57 56 49 49 50
35 39 40 37 40 43 45 50 56 64 54 61 60 55 40 31 73 98 90 86 77 70 63 50 45 46 48 46 47 45 45 45 47 51 51 51 45 46 52 55 56 57 61 54 51 53 50
41 42 38 36 42 42 47 56 66 78 78 82 64 62 52 33 61 98 96 90 80 74 67 53 50 44 45 51 47 44 46 46 52 53 54 54 49 52 56 57 59 60 57 58 62 67 60
43 37 38 42 46 47 56 69 80 86 89 79 66 62 59 44 71 98 98 98 90 78 63 54 60 60 53 47 45 49 51 52 55 54 55 54 55 59 60 58 63 62 60 64 67 72 69
36 42 44 45 52 53 67 80 74 81 94 93 87 60 59 45 55 88 98 97 95 87 67 64 64 67 63 59 58 59 60 61 62 61 59 57 58 60 62 63 66 69 74 77 81 84 81
38 41 47 46 53 58 74 85 76 86 93 95 91 73 50 44 58 95 99 98 97 82 63 64 62 66 65 65 65 64 67 66 64 68 66 64 64 63 59 61 64 71 86 87 89 90 76
38 39 43 54 54 59 79 84 76 83 98 91 86 75 51 34 55 98 99 99 92 73 70 59 58 62 62 63 61 62 64 65 62 66 74 67 60 54 56 52 56 64 69 75 78 78 70
45 45 47 55 56 56 78 77 76 85 99 92 86 73 50 36 79 97 98 98 82 70 67 62 65 65 64 62 62 62 62 62 58 67 69 66 62 56 57 60 62 71 75 66 78 69 84
46 49 55 59 57 59 71 72 68 78 98 99 92 80 53 55 90 98 98 89 80 70 65 60 63 63 65 66 67 66 64 59 60 52 54 60 63 54 60 62 64 73 74 84 89 85 82
52 50 58 59 65 57 62 66 76 82 98 98 88 69 53 69 97 98 98 90 83 77 66 58 59 63 62 65 66 68 64 58 57 54 53 57 61 57 67 72 68 84 91 96 92 87 81
51 50 58 57 69 54 55 70 69 78 96 99 74 66 85 94 96 97 98 89 83 79 69 61 62 64 65 66 68 68 70 69 65 54 55 56 66 70 65 66 76 85 90 92 97 87 93
46 49 56 56 67 50 53 59 70 78 96 94 77 67 89 96 98 97 96 91 85 85 68 61 64 63 64 66 72 70 73 73 71 53 54 60 74 81 76 81 84 94 93 96 97 98 90
43 52 54 60 58 51 51 63 75 92 89 87 82 93 95 95 96 92 92 91 91 81 72 67 70 70 73 75 74 76 81 77 61 54 59 68 82 85 87 90 95 98 91 95 98 97 80
48 51 52 57 64 59 52 70 84 88 78 85 89 94 97 93 90 93 88 90 90 84 73 80 84 79 78 78 78 81 87 77 60 61 72 84 90 93 93 90 97 98 96 82 84 83 88
47 45 49 58 57 62 53 65 80 86 86 95 96 92 96 92 94 88 89 88 88 84 80 86 85 79 79 82 80 85 79 67 59 63 79 86 91 96 92 91 93 97 94 75 71 72 71
46 41 41 54 57 56 46 59 90 91 95 94 95 97 94 94 94 89 86 82 81 82 90 86 82 81 85 80 86 87 84 70 64 72 79 91 96 98 90 87 97 98 92 91 81 69 68
41 39 37 45 53 52 42 55 79 88 93 97 98 98 94 96 93 89 89 87 86 89 94 88 81 82 86 87 87 88 83 75 71 70 80 87 94 98 92 95 97 95 93 87 84 80 80
42 38 29 37 49 45 45 51 69 79 93 93 96 98 95 93 93 89 86 90 94 96 94 91 87 87 87 86 89 89 79 75 64 68 73 79 86 95 95 96 88 86 92 95 93 92 87
38 36 24 28 42 43 42 49 56 78 93 96 98 98 97 91 90 87 90 91 94 93 94 96 96 88 89 92 95 92 84 72 71 81 84 86 88 94 92 93 94 79 83 92 91 89 81
31 33 25 29 37 44 46 44 52 73 89 95 96 97 94 89 85 80 81 90 92 89 94 96 97 94 91 97 98 96 85 79 72 80 82 86 87 88 90 92 79 74 73 82 79 80 78
23 26 23 22 26 40 48 38 53 75 80 89 92 96 96 93 86 85 85 87 87 88 92 93 95 89 95 98 98 95 86 77 72 74 78 78 84 86 86 87 82 69 70 72 67 67 71
24 21 20 24 25 34 40 38 56 75 85 85 91 94 98 91 89 90 90 85 86 85 87 93 96 90 92 97 97 95 88 79 73 76 75 78 73 74 74 70 67 67 69 66 64 61 64

GFSGBSN_prec_cthk_030.txt.gz
RH
23 27 25 26 26 25 24 24 23 21 19 17 18 28 39 61 64 63 71 54 52 35 36 39 41 43 41 46 47 44 45 45 44 58 60 53 50 47 44 41 41 39 34 35 34 34 32
24 27 26 28 30 29 30 29 29 27 26 24 22 17 25 60 60 69 71 68 57 44 35 40 42 45 47 44 43 47 49 49 49 55 59 59 56 57 54 49 45 41 39 38 36 33 35
24 30 29 28 29 31 30 30 29 27 26 25 24 26 22 41 52 68 78 75 62 52 37 40 43 44 45 48 45 44 46 51 52 62 61 61 57 61 59 57 54 50 48 43 40 39 38
34 34 34 33 32 33 34 32 31 32 30 30 28 24 25 24 52 72 75 86 72 59 45 41 43 46 44 43 47 48 49 52 54 58 62 62 59 62 60 57 54 49 49 45 40 41 40
34 38 32 34 37 40 37 38 38 36 33 32 29 30 24 24 39 62 76 84 84 67 49 44 45 46 42 42 45 45 51 57 59 63 60 58 61 63 63 59 55 52 45 46 44 41 42
36 35 34 35 42 39 49 46 45 46 42 35 37 33 33 26 24 58 81 84 90 79 66 56 52 48 41 42 41 41 49 60 62 59 58 57 53 51 50 52 45 42 47 43 42 41 41
37 35 36 37 42 42 37 42 42 52 47 51 49 45 49 34 25 62 84 99 92 82 76 48 46 45 43 42 40 39 45 53 60 60 57 56 52 45 41 41 44 46 48 47 44 42 41
38 37 36 36 36 40 41 45 42 53 61 65 63 60 60 46 33 63 93 98 86 78 79 61 49 50 49 45 45 43 44 47 49 50 50 50 48 40 41 42 46 49 48 44 40 41 42
38 39 38 37 41 45 46 48 53 68 73 80 77 75 65 52 38 51 96 98 96 84 71 73 51 51 50 49 49 48 46 47 47 50 47 44 43 40 44 45 48 49 51 51 48 44 42
38 39 38 42 46 48 52 55 65 74 75 83 93 79 65 59 43 40 95 98 97 93 91 75 63 47 50 52 48 49 49 50 49 46 49 48 45 45 48 48 49 49 47 50 52 53 54
38 39 42 42 49 56 59 60 71 77 72 78 94 94 70 55 54 41 75 93 99 96 93 67 69 58 49 48 47 51 50 50 50 47 48 47 48 53 53 49 52 53 52 53 55 57 60
39 41 47 52 58 61 65 70 73 71 68 88 97 95 89 52 49 47 85 99 99 98 82 68 66 64 57 49 49 53 54 53 53 51 51 49 52 54 53 53 57 59 61 62 61 66 70
42 46 52 53 60 68 63 69 71 75 84 89 93 84 88 55 49 63 89 99 98 95 75 73 60 67 61 58 57 52 57 60 58 65 64 56 55 56 58 58 55 60 67 61 70 72 49
45 50 52 59 66 62 62 66 75 74 76 98 91 83 84 54 52 74 90 99 97 81 77 68 63 64 68 61 63 63 64 66 61 59 63 60 57 53 54 50 49 55 58 55 57 51 44
43 51 53 59 66 65 65 62 66 73 88 98 98 91 85 53 44 84 94 98 95 77 75 70 68 64 68 65 63 66 63 59 57 60 63 63 59 47 48 50 53 67 69 58 72 63 74
43 49 56 59 57 69 60 59 62 68 83 98 93 96 70 59 51 89 98 99 88 79 74 68 65 58 58 61 62 61 60 54 55 55 55 61 60 46 48 53 57 68 68 81 91 83 76
43 50 57 54 62 63 53 61 56 69 82 98 96 87 69 66 68 96 98 98 88 82 75 71 66 64 58 60 59 60 59 54 54 54 59 58 52 49 54 57 58 77 88 94 86 88 82
42 48 53 54 65 53 57 49 57 67 88 88 88 97 60 58 77 90 96 97 89 85 77 69 63 63 61 62 61 61 60 57 56 58 63 54 54 56 56 53 64 70 75 84 97 89 92
42 48 44 51 63 55 54 42 62 87 93 96 85 72 73 89 92 94 95 96 90 84 74 66 63 62 62 61 63 61 62 63 62 65 64 54 60 66 65 73 79 83 80 84 93 87 86
42 47 40 47 64 58 51 49 76 92 95 86 89 89 91 95 90 92 96 94 89 81 74 70 68 66 64 63 63 68 68 68 66 69 61 55 65 72 71 76 81 94 91 96 90 86 73
42 41 36 44 61 56 58 53 77 84 85 80 96 90 82 91 94 95 92 92 90 84 80 69 64 64 65 69 72 75 71 73 75 69 61 61 78 77 82 83 87 93 93 92 82 74 80
38 37 28 39 52 48 51 51 70 82 83 87 94 95 97 89 94 92 90 89 85 87 69 67 76 73 71 75 72 75 77 77 70 64 62 70 80 83 90 83 86 90 94 92 87 78 74
36 38 30 30 46 46 52 53 66 76 83 81 83 85 86 85 87 85 86 85 78 71 66 74 76 75 77 77 80 81 81 81 72 63 67 75 84 92 91 82 85 92 95 89 87 84 80
33 34 29 22 36 45 46 52 63 80 90 90 85 87 87 87 89 82 80 77 75 74 74 82 81 79 78 83 82 86 87 80 77 72 68 76 86 91 92 89 94 94 92 93 96 95 91
28 29 24 25 32 41 42 53 52 81 93 93 94 92 90 87 80 78 79 79 80 86 89 88 86 83 83 86 87 88 78 76 68 67 72 76 84 91 93 93 83 87 93 95 94 92 89
25 24 22 16 23 29 43 46 47 74 91 96 95 97 95 85 79 79 80 82 84 88 92 91 90 89 85 86 90 91 77 71 68 77 80 83 85 90 87 95 83 81 87 88 89 87 81
25 24 21 17 21 35 39 39 44 69 88 93 95 95 90 88 83 77 82 86 85 88 92 97 97 97 94 91 92 94 84 75 73 70 82 85 89 88 89 94 80 73 76 82 76 77 78
27 25 22 18 18 26 33 34 42 65 82 90 90 89 89 87 82 80 80 83 85 86 92 93 96 92 91 94 97 95 85 77 73 65 77 77 82 85 84 88 83 71 75 74 70 72 80
28 24 23 18 15 15 28 33 45 57 74 86 86 88 86 88 82 80 81 82 81 82 86 90 92 93 89 89 94 95 86 79 71 69 76 80 68 70 70 64 66 69 70 70 69 66 68

GFSGBSN_prec_cthk_033.txt.gz
RH
20 21 24 23 26 27 27 29 30 28 25 22 21 18 22 19 30 50 58 60 78 58 46 34 38 42 42 50 50 45 44 44 47 56 63 53 46 42 39 35 34 38 35 34 35 38 35
23 26 26 28 27 28 29 29 29 28 29 29 26 20 20 20 20 38 51 59 68 72 51 38 41 45 49 49 46 49 49 49 50 56 62 59 56 53 48 45 41 40 39 36 36 34 32
30 32 34 33 34 30 33 34 34 34 31 29 30 26 20 20 22 25 48 57 65 81 63 44 42 46 52 51 48 47 50 55 55 55 61 69 66 61 55 49 47 44 42 39 34 32 35
35 34 33 33 34 38 41 35 39 36 36 36 36 30 30 24 24 23 41 54 70 78 74 52 45 48 49 46 49 48 49 55 56 63 64 66 66 64 62 61 55 51 48 45 37 37 39
32 32 35 35 35 41 40 43 47 44 45 45 40 35 32 31 28 24 36 52 75 82 80 62 52 49 50 43 45 49 54 59 59 59 66 73 72 67 64 63 57 51 46 45 43 42 41
34 36 37 38 37 37 42 44 52 49 51 52 48 47 44 37 37 30 29 61 81 95 88 81 62 53 45 43 45 47 55 64 63 63 66 70 70 68 65 67 55 49 50 47 45 42 41
36 38 38 38 38 43 45 53 53 54 53 54 64 62 55 53 60 44 30 68 89 96 90 83 59 45 48 45 43 46 54 65 65 66 63 60 59 57 53 55 52 46 45 43 41 40 37
37 38 38 37 43 45 52 55 56 63 60 74 80 78 72 69 68 50 46 84 92 98 97 89 69 56 48 47 47 48 51 56 64 67 64 65 61 54 48 46 44 42 42 39 34 32 32
37 37 38 41 46 52 53 61 66 67 76 84 79 77 91 71 73 48 45 74 98 99 96 89 79 61 51 49 49 48 49 51 56 57 57 55 47 44 45 45 45 41 41 39 39 37 35
38 39 44 47 51 59 61 68 67 68 78 75 67 82 97 90 56 48 44 93 98 99 99 91 85 72 51 52 51 52 49 50 52 53 50 49 46 44 43 44 42 42 42 42 41 45 43
39 46 45 51 59 57 67 68 66 74 74 67 75 88 98 99 77 54 59 92 98 98 97 93 87 74 54 49 53 55 53 55 53 50 48 48 45 49 48 44 45 47 45 45 45 50 52
40 45 47 52 56 60 73 67 64 74 71 80 93 97 96 90 77 54 64 94 98 98 97 92 83 74 63 53 53 56 57 55 54 49 49 48 49 49 47 48 49 50 49 52 52 56 58
41 43 46 49 56 61 66 69 59 68 77 85 90 94 89 81 66 56 64 98 98 97 85 83 74 72 69 54 54 55 58 57 52 61 57 51 49 50 50 54 53 54 58 52 60 65 47
44 43 47 50 55 65 67 61 59 67 73 81 92 97 96 84 62 53 81 99 97 91 82 68 70 68 71 59 55 53 55 57 51 49 53 60 61 52 57 54 51 49 52 50 51 46 40
44 41 47 47 59 61 53 51 59 57 67 80 96 94 92 88 65 50 77 95 99 83 78 72 74 72 75 62 58 59 53 53 51 53 61 58 59 51 53 48 46 54 61 49 61 55 60
46 41 46 47 55 51 51 42 52 57 69 91 96 96 92 70 54 68 76 86 97 82 77 71 72 64 67 65 63 60 61 55 55 55 56 58 61 50 51 49 49 51 52 65 78 77 65
43 41 46 46 55 49 49 41 48 66 74 81 93 93 88 63 65 84 84 90 93 87 80 76 65 60 58 60 62 63 62 57 56 55 54 54 53 56 51 48 46 55 61 73 78 84 75
39 40 41 43 52 51 53 44 61 83 87 97 90 97 83 51 86 97 97 97 88 90 84 76 67 61 56 58 64 62 60 54 51 52 56 57 57 59 45 41 49 61 73 81 90 76 87
37 38 35 44 46 47 49 48 72 87 97 83 81 81 72 79 95 96 98 96 91 88 85 79 74 68 62 61 63 59 56 55 53 53 56 61 66 54 58 64 67 71 75 77 87 93 88
35 37 34 30 44 44 47 52 72 83 96 74 80 70 67 85 90 92 97 97 91 90 83 75 73 68 68 64 61 61 59 59 57 57 63 67 58 52 59 74 75 88 84 87 98 96 83
36 33 32 27 40 45 47 57 73 82 91 84 88 89 83 86 83 87 93 95 92 86 80 76 73 68 66 68 67 64 62 63 64 65 70 68 65 58 70 73 82 87 88 90 98 97 96
38 34 27 24 33 44 44 49 56 73 84 89 89 89 85 79 76 89 88 92 87 84 79 73 68 65 64 65 65 67 66 66 66 72 70 63 65 72 81 74 81 81 80 88 92 93 91
31 33 25 21 32 40 47 47 48 64 71 78 83 90 92 83 81 80 86 87 83 78 71 69 64 68 68 68 69 69 70 70 72 77 66 65 80 83 79 77 81 86 92 92 94 97 95
33 28 27 18 18 29 41 50 48 61 72 78 78 81 82 80 78 75 73 76 71 68 66 65 70 71 76 72 72 74 76 78 81 76 72 73 81 84 85 81 87 80 82 86 91 93 93
34 29 25 21 17 20 33 45 42 59 68 73 77 79 82 77 74 72 74 75 71 67 72 74 76 79 75 74 76 77 76 76 70 67 73 72 80 82 86 81 74 75 78 84 91 93 89
36 28 23 22 16 19 28 37 38 58 71 78 80 81 82 78 72 72 73 71 75 77 81 83 82 80 78 80 83 82 76 67 71 76 77 75 80 85 78 87 76 71 74 77 82 88 81
38 32 23 19 18 10 14 30 40 54 72 83 81 84 83 84 77 72 74 76 78 83 85 87 90 90 86 86 87 89 82 70 69 66 82 89 90 91 90 89 69 66 67 73 77 73 82
38 33 26 19 18 16 15 27 42 56 63 84 86 83 83 84 78 75 77 80 82 84 87 91 93 94 95 91 92 89 85 76 72 66 72 77 81 87 87 90 84 70 70 73 68 70 75
39 34 26 22 19 17 15 21 41 53 65 81 86 85 85 84 85 80 80 81 84 86 87 90 94 90 92 90 90 92 93 77 74 69 66 72 65 72 73 72 69 70 71 70 69 69 68

GFSGBSN_prec_cthk_036.txt.gz
RH
23 24 26 29 32 30 29 30 27 28 32 34 34 34 32 25 24 21 22 37 55 62 75 62 40 38 39 48 50 47 44 46 52 60 57 52 39 35 38 35 38 40 38 34 31 32 37
28 33 34 34 33 33 31 33 35 35 36 36 38 37 34 32 30 25 21 28 49 60 75 80 55 40 44 47 50 46 46 47 48 53 60 60 53 43 45 41 43 43 39 37 34 30 32
36 30 32 34 36 36 38 43 37 40 46 40 37 35 35 35 31 27 27 26 43 63 69 76 66 47 49 48 47 46 48 49 55 56 69 71 62 57 49 48 52 46 45 41 35 30 31
36 35 32 36 37 38 37 38 42 46 53 53 53 45 40 35 33 31 27 25 33 57 72 75 80 56 51 46 49 50 47 50 54 60 64 76 67 63 58 57 51 48 48 48 32 31 30
35 35 37 37 41 38 43 45 51 51 51 55 58 56 52 47 39 34 35 28 30 48 72 84 82 71 48 42 46 49 48 51 55 65 66 72 76 69 64 62 58 53 54 48 45 39 36
38 39 38 37 38 42 45 51 49 57 66 65 65 67 67 60 48 43 45 37 29 53 77 85 79 79 51 43 43 46 49 57 59 62 71 79 76 69 65 64 61 56 59 53 49 49 43
41 37 38 43 46 49 50 53 59 69 68 68 69 82 84 75 64 67 62 42 35 67 97 84 72 68 47 43 42 45 49 60 63 66 69 75 76 72 64 61 56 59 55 52 49 47 43
41 39 42 46 48 52 57 58 70 73 77 69 80 86 79 79 84 70 72 53 60 81 89 93 91 77 62 46 46 47 51 57 66 73 69 68 69 62 60 60 60 54 52 51 45 41 39
41 43 47 46 52 52 59 65 72 70 68 74 78 71 72 91 94 76 66 48 67 91 98 98 93 85 71 50 48 48 51 55 64 70 71 67 62 59 58 55 52 49 49 46 43 38 34
45 44 47 45 49 51 60 64 66 65 63 71 66 72 85 91 96 87 63 48 83 98 98 91 94 88 72 55 52 51 54 56 59 69 69 69 62 57 51 51 47 48 44 44 42 43 46
45 46 45 45 46 53 57 61 66 60 63 63 67 84 91 97 99 94 79 59 96 98 97 92 91 93 72 59 53 55 54 55 55 55 58 58 53 53 50 43 44 44 44 44 46 47 46
45 46 45 45 46 51 60 57 55 55 59 69 78 79 84 91 94 86 66 71 94 98 97 98 97 88 75 68 57 55 57 55 54 55 55 55 50 46 45 44 45 46 46 46 49 51 59
45 49 44 46 49 51 50 56 50 56 57 64 68 82 85 96 83 72 65 88 98 97 98 93 87 82 77 70 59 57 57 57 58 66 64 53 51 47 46 48 47 51 56 67 69 65 55
48 47 43 43 50 52 45 58 45 52 57 67 73 90 92 95 83 57 56 92 98 96 98 86 88 90 77 73 62 59 61 61 54 52 60 58 55 48 48 50 54 57 59 63 60 61 47
48 46 43 41 45 47 44 52 48 53 71 70 79 86 92 96 79 49 70 90 98 96 87 89 87 91 81 76 59 58 59 54 51 50 56 58 58 51 54 54 55 58 58 48 57 46 58
45 47 40 37 43 45 47 49 58 71 79 90 91 90 96 99 58 67 83 82 98 95 84 79 77 74 74 76 62 57 58 50 49 47 49 59 61 56 59 53 49 51 48 65 67 69 61
45 42 41 32 39 46 49 51 66 82 87 83 87 85 87 84 56 66 83 83 95 94 81 85 68 66 64 73 64 59 53 51 49 51 54 57 59 61 59 55 51 53 55 55 61 72 78
47 42 42 33 36 44 44 64 80 90 83 76 89 71 62 71 81 93 87 84 94 95 86 75 68 59 59 64 67 61 61 60 57 57 60 62 60 66 57 46 45 51 54 64 82 78 80
48 43 40 27 33 41 46 65 79 83 66 69 81 58 82 91 95 91 88 97 96 93 86 76 72 61 60 67 70 66 64 61 60 58 60 59 63 69 67 57 52 58 69 72 79 83 82
48 43 38 26 30 39 47 56 77 78 88 67 62 66 89 92 96 97 98 96 94 91 85 78 72 68 64 67 63 66 66 61 57 57 56 58 62 67 68 65 64 77 76 78 83 90 81
44 38 38 32 28 34 45 47 64 80 80 83 67 80 85 93 95 96 96 94 91 87 83 78 76 74 66 64 65 63 60 62 59 59 59 62 74 68 53 50 62 71 80 86 95 93 93
40 36 32 32 22 23 39 45 48 69 65 71 83 80 76 76 85 90 95 98 88 83 80 75 72 71 70 64 64 63 61 61 63 64 62 65 75 61 61 63 73 80 81 81 84 93 93
39 38 32 28 27 26 33 45 41 59 64 70 76 77 73 71 75 85 88 85 81 78 76 70 68 66 69 68 67 66 66 64 64 65 68 73 66 67 77 70 77 86 82 91 92 91 95
40 39 35 30 24 22 22 37 39 49 67 73 75 78 78 74 72 76 77 78 76 72 69 66 63 66 70 68 69 68 67 68 69 70 76 70 70 81 83 80 95 81 79 83 86 87 90
41 40 36 31 25 20 17 24 35 39 60 70 73 75 78 74 69 71 68 71 68 67 66 62 69 72 72 69 69 70 72 73 70 76 73 69 82 84 88 84 77 77 77 79 84 89 87
43 42 37 33 28 21 18 16 30 42 53 71 73 76 80 80 68 65 68 71 69 69 70 76 75 76 74 74 73 74 74 67 81 83 71 77 82 82 84 89 81 70 71 73 83 89 81
46 44 37 34 29 22 19 17 25 44 53 73 75 78 78 84 76 70 68 66 70 73 78 81 82 83 79 77 76 78 75 69 73 84 75 84 86 86 87 87 73 65 70 74 84 79 80
45 45 38 36 29 21 20 19 18 42 56 80 80 80 80 77 74 69 69 67 72 79 83 87 89 89 88 85 83 84 83 77 77 74 75 76 83 84 87 84 82 68 71 78 77 75 76
45 44 38 35 27 20 21 24 17 42 61 79 89 83 81 82 81 72 74 76 78 85 85 86 92 90 90 87 85 88 89 84 76 79 69 70 66 75 73 70 63 68 72 72 75 72 73

GFSGBSN_prec_cthk_039.txt.gz
RH
35 40 39 35 37 36 36 39 38 41 40 40 41 42 39 38 35 35 31 27 37 49 48 61 80 52 39 43 41 45 49 52 54 55 48 40 39 40 41 36 35 37 33 34 32 28 33
41 42 39 38 40 39 42 45 37 42 42 47 50 51 48 44 39 37 34 30 28 35 46 66 72 76 46 44 39 43 47 47 57 61 61 59 51 38 38 37 39 38 38 37 35 31 33
37 39 42 42 42 42 37 40 41 45 52 53 61 62 55 50 48 38 35 34 30 29 48 67 73 72 61 40 44 43 47 48 50 55 61 64 64 53 44 41 44 41 41 37 34 31 31
40 42 44 44 41 42 46 44 45 50 56 59 64 71 70 63 55 46 43 34 33 22 45 71 76 74 66 49 46 46 48 52 55 57 59 72 71 63 56 49 46 43 44 48 32 31 29
45 46 43 41 45 47 47 47 50 57 60 68 72 74 77 71 69 62 46 38 36 24 43 69 82 67 68 56 45 47 48 51 58 60 62 73 83 72 63 58 56 51 54 48 44 37 37
49 45 46 44 49 49 51 49 61 60 67 71 79 77 81 81 73 70 64 50 44 28 39 79 84 76 63 66 48 47 50 52 57 67 65 77 83 88 79 73 67 55 55 53 49 44 44
46 46 44 49 47 52 47 51 59 63 65 67 71 74 88 81 83 81 67 69 51 34 42 75 81 70 63 67 50 51 53 56 59 64 74 72 75 77 72 66 58 59 60 56 49 45 41
43 48 45 48 47 45 48 50 53 62 64 59 67 76 75 73 85 89 86 70 63 57 57 78 83 81 76 67 52 51 59 59 60 66 64 73 76 71 70 66 63 67 63 55 49 46 43
45 46 46 46 44 44 48 53 57 56 57 55 62 69 72 83 86 88 89 65 58 61 64 78 87 81 77 65 52 53 56 58 62 69 65 67 62 65 68 65 63 60 58 57 53 48 43
49 44 45 45 44 48 49 49 54 52 53 54 58 65 71 82 84 93 89 65 49 70 91 95 92 87 83 72 57 57 62 58 62 68 67 66 63 62 66 65 61 61 55 51 48 46 47
42 43 47 44 43 46 49 51 58 53 52 55 62 69 71 83 83 93 94 68 86 90 98 98 98 90 83 77 57 62 62 56 58 59 63 66 64 64 64 61 63 57 50 48 47 47 46
45 46 47 43 42 45 47 50 57 56 53 58 64 68 81 92 91 89 87 65 91 98 97 99 95 87 86 79 63 60 65 55 53 56 60 62 60 62 63 57 51 49 47 45 47 49 58
43 45 46 40 41 44 50 52 51 50 55 64 70 78 88 95 90 86 69 63 95 96 99 99 94 88 83 81 66 62 60 57 57 66 66 59 57 55 52 51 49 50 52 62 61 63 55
43 42 44 42 39 44 50 49 51 61 70 78 88 93 88 96 83 67 70 80 95 96 99 94 88 85 86 78 70 70 61 61 54 53 61 63 61 53 48 50 52 54 51 61 63 67 56
43 40 42 43 30 44 47 57 72 82 89 85 90 84 96 87 68 57 77 86 98 99 97 87 87 91 91 78 74 71 62 59 53 52 55 60 60 53 51 50 50 58 61 55 60 52 62
41 40 41 42 28 43 50 65 74 69 75 79 77 89 86 68 70 80 96 97 96 98 95 87 94 85 83 77 77 66 59 53 50 49 51 54 60 57 57 54 55 56 51 61 63 63 63
42 45 41 35 25 39 49 64 74 75 67 73 71 74 70 74 88 96 95 98 98 96 94 87 77 73 76 78 73 64 56 51 47 47 53 53 53 63 63 59 57 59 55 52 56 61 65
43 44 42 37 23 40 45 61 75 69 63 56 53 57 64 74 82 90 91 94 98 98 92 84 75 74 74 73 72 56 54 51 51 49 52 53 59 69 63 54 52 51 52 57 66 64 77
45 40 35 39 24 33 42 54 65 64 52 61 65 80 89 86 91 93 92 92 95 92 82 73 65 62 64 73 69 61 60 55 55 55 56 58 65 70 67 57 52 56 58 61 69 78 81
46 40 36 34 22 20 39 48 55 59 54 63 70 81 89 90 93 93 95 98 98 89 80 69 63 62 66 73 69 71 64 63 61 62 59 59 64 62 67 65 61 61 59 67 77 88 78
46 41 37 37 32 22 33 43 46 63 64 67 72 73 81 93 94 90 92 94 92 85 78 78 73 69 68 74 72 72 68 66 63 62 60 59 66 65 63 59 58 55 68 76 83 83 92
47 42 37 37 31 19 20 35 39 53 61 65 67 69 75 82 92 92 91 93 89 84 79 76 75 70 65 65 66 64 65 64 60 61 63 64 70 69 68 53 56 77 78 83 85 86 87
47 45 40 39 33 26 15 21 35 41 58 65 66 68 74 75 85 86 83 80 79 77 74 72 71 73 69 67 64 61 60 60 63 64 65 68 73 68 65 59 75 88 83 84 86 88 91
48 47 43 43 36 30 20 17 24 40 56 66 71 72 70 67 77 77 78 75 73 70 69 67 64 65 70 71 68 66 67 69 67 67 64 75 75 66 76 81 93 83 76 79 84 86 86
49 48 45 44 38 34 25 20 16 33 50 67 68 74 75 72 68 71 71 71 67 66 62 61 61 65 66 67 69 75 76 74 74 70 71 76 69 81 89 90 79 78 77 80 84 82 81
54 49 46 45 40 34 26 20 17 24 45 68 73 71 76 76 66 68 65 68 66 65 63 66 68 68 68 70 68 68 74 69 72 74 77 72 79 87 88 92 85 74 71 72 78 82 73
56 52 47 45 41 34 26 25 18 18 45 70 74 76 76 81 74 69 67 71 69 68 71 72 74 74 72 73 69 70 70 64 73 78 81 80 87 88 85 90 78 72 73 79 83 76 73
57 50 47 48 41 33 28 28 24 17 43 75 78 77 81 82 79 75 73 68 66 71 79 78 81 80 78 78 73 73 76 74 73 79 82 78 86 88 89 88 84 70 74 79 75 73 72
56 50 49 48 41 30 29 32 30 19 42 76 86 83 81 86 80 73 72 72 73 77 81 83 86 84 82 83 78 79 80 82 79 82 77 81 71 79 79 75 65 68 74 75 74 73 72

GFSGBSN_prec_cthk_042.txt.gz
RH
39 38 42 44 46 45 40 40 41 41 41 45 52 56 63 59 50 49 45 39 34 30 48 59 60 75 75 49 41 45 45 42 43 49 38 36 40 41 38 36 34 37 34 32 29 28 31
39 40 42 46 45 38 41 45 43 38 41 48 56 60 66 68 61 57 52 47 39 35 36 59 62 74 77 56 41 45 49 57 53 57 52 41 41 40 36 35 37 36 33 32 31 30 31
43 42 46 39 38 42 45 44 44 47 50 56 57 64 67 72 76 66 62 47 44 37 30 53 57 73 66 81 47 45 51 58 68 70 64 55 52 47 39 39 40 40 41 39 34 30 31
46 50 40 42 44 46 43 43 47 48 52 57 66 71 74 74 76 78 69 56 41 37 29 35 57 85 66 82 61 48 50 54 56 65 72 69 69 58 51 46 44 43 44 44 33 32 29
54 46 46 43 46 46 42 43 45 47 53 62 60 68 69 78 85 80 75 58 45 36 35 33 59 77 69 64 65 50 53 56 59 60 67 73 76 71 64 56 51 48 51 47 39 33 32
47 46 50 46 48 43 40 42 49 48 51 58 55 60 73 86 79 84 74 60 52 44 35 35 74 82 75 66 71 59 57 58 63 65 69 79 83 83 73 65 63 56 52 48 46 39 40
48 48 43 45 46 41 44 45 51 52 56 58 56 61 71 68 68 78 82 75 57 49 34 47 72 87 69 75 73 60 62 60 66 77 68 80 81 93 89 76 67 61 59 55 49 42 38
50 48 44 45 46 43 45 48 51 54 56 53 55 62 63 69 76 82 79 91 63 65 38 59 72 86 89 68 73 59 65 61 65 81 75 76 82 82 91 89 78 69 63 56 49 46 43
51 45 45 48 44 43 43 48 49 58 58 60 59 60 66 73 78 78 79 81 64 64 48 66 91 98 84 70 63 63 72 62 62 68 72 75 66 70 70 73 70 65 60 56 54 51 45
51 45 46 48 43 41 44 48 54 62 64 55 63 67 71 73 82 95 86 87 63 66 55 74 92 93 83 87 73 65 73 71 70 71 68 68 64 67 72 70 64 61 56 55 55 53 52
50 44 46 48 41 42 46 51 54 55 53 59 64 69 75 89 93 98 92 86 68 66 71 73 95 91 85 82 64 72 69 67 70 68 64 67 64 61 62 63 62 62 58 55 52 51 49
48 47 45 48 45 33 47 52 49 63 63 75 75 76 88 98 94 97 95 71 82 84 82 86 89 89 86 79 68 68 68 62 64 70 67 67 67 66 63 62 61 62 60 55 53 52 56
48 47 45 46 38 34 47 51 65 75 68 89 95 94 98 94 93 87 79 80 93 92 97 93 98 80 86 81 74 68 68 63 66 71 78 66 67 65 63 65 61 57 54 60 60 62 50
50 47 48 45 33 35 43 53 67 62 79 79 81 87 92 92 78 81 75 89 96 97 98 86 86 88 87 79 82 72 68 66 60 58 67 70 71 58 57 56 56 53 50 56 52 63 57
50 47 46 45 26 42 47 56 59 65 77 74 87 83 77 73 66 76 84 92 98 98 99 83 94 93 94 85 77 73 68 68 60 55 59 65 61 56 52 50 46 54 58 52 60 58 63
51 49 42 37 25 41 44 53 46 54 63 65 66 61 61 66 75 87 97 97 98 97 96 88 93 96 91 82 75 70 66 60 56 53 52 52 65 57 54 50 50 52 54 64 64 59 58
53 51 43 35 25 31 39 43 42 43 44 47 49 53 67 76 85 90 97 97 98 97 96 90 86 81 80 75 70 70 63 55 53 53 53 50 51 61 57 56 58 61 60 56 55 57 60
56 52 44 35 28 32 40 44 40 47 53 62 64 74 80 81 86 92 97 98 98 93 88 82 69 74 76 75 75 68 60 57 50 49 52 48 53 63 62 58 55 57 58 55 61 52 68
59 52 46 36 30 24 38 39 40 48 55 60 65 70 73 78 91 95 96 95 94 90 81 80 72 69 75 78 77 69 53 49 50 49 51 47 55 66 64 60 57 58 54 54 60 65 76
62 52 48 42 28 15 26 32 38 47 52 54 60 67 75 86 91 97 97 95 91 84 79 68 67 67 73 74 69 63 53 55 52 54 51 54 60 59 65 60 59 59 56 60 64 81 77
66 54 49 46 34 21 13 27 35 45 51 55 54 63 74 77 80 87 90 89 83 78 67 60 62 66 70 75 72 65 60 59 59 61 60 61 67 67 64 62 65 60 56 64 78 75 84
68 56 50 49 39 27 14 16 33 40 50 54 57 62 69 70 73 78 82 82 81 80 74 71 74 72 70 76 69 68 65 65 63 63 64 64 67 68 65 58 61 55 63 74 76 80 79
66 62 51 51 47 34 24 14 23 43 54 56 57 61 71 70 72 72 76 76 74 73 75 76 72 68 70 75 71 64 62 61 62 62 64 66 70 71 67 60 59 77 82 84 85 85 83
69 67 55 50 50 42 31 23 17 32 53 61 61 62 68 72 73 72 71 70 69 66 67 70 71 72 70 68 67 68 68 66 65 64 64 70 72 75 68 61 87 83 78 78 79 81 83
74 72 59 50 49 44 38 31 24 19 40 57 65 66 65 70 73 71 70 68 67 65 66 66 65 67 71 75 71 73 74 72 74 71 67 67 75 74 72 85 79 82 80 80 80 78 77
76 73 65 53 48 43 40 33 28 20 23 54 67 74 73 72 71 72 66 64 61 62 58 62 61 65 66 70 74 72 77 74 78 78 73 77 76 74 87 91 86 80 74 75 77 83 74
74 73 68 55 50 44 39 34 26 22 20 47 73 78 81 80 75 70 65 65 62 60 65 66 70 70 71 72 71 72 74 72 75 72 79 84 77 83 86 92 82 69 74 79 83 78 75
84 82 72 58 51 43 38 30 25 26 19 45 78 82 79 79 79 72 70 69 65 63 69 72 76 78 77 77 75 74 74 75 75 75 82 84 79 88 89 91 85 71 75 79 77 73 74
93 79 68 60 49 47 38 28 28 29 20 50 83 84 84 82 84 74 74 71 66 68 72 78 83 82 80 83 78 77 76 79 80 81 80 83 76 81 80 77 68 68 72 74 76 72 72

GFSGBSN_prec_cthk_045.txt.gz
RH
49 50 49 47 42 38 42 44 45 42 41 44 48 51 53 54 71 74 71 61 55 49 38 36 52 68 98 69 60 60 54 35 42 42 42 43 41 41 40 36 35 36 35 30 27 27 27
50 51 57 45 43 42 44 45 41 41 40 46 51 56 56 62 70 78 80 72 65 53 44 36 47 65 74 60 77 56 66 47 46 48 48 41 41 39 39 37 37 36 34 33 32 29 28
55 62 49 50 45 45 47 44 42 38 42 46 47 55 56 66 75 80 77 75 74 59 49 33 52 73 78 81 76 51 64 63 52 60 54 45 43 46 43 39 39 37 38 34 30 29 31
58 55 54 52 48 44 49 41 41 44 51 50 57 61 50 66 73 87 85 81 76 58 47 36 56 83 70 82 86 62 65 71 75 75 73 57 52 50 46 43 41 42 41 45 34 31 30
62 59 58 53 48 47 46 45 48 47 55 59 56 57 53 61 76 81 82 76 66 62 52 41 56 78 73 62 83 71 63 69 79 95 92 79 73 67 55 53 51 48 51 45 37 33 34
61 61 61 55 49 51 46 47 50 51 60 62 59 59 61 66 64 73 82 80 75 62 52 45 50 76 57 70 90 72 65 67 67 80 99 98 91 81 71 63 61 56 47 43 41 34 36
64 58 60 55 54 52 42 47 47 60 63 66 62 59 62 58 62 76 86 81 82 74 59 42 48 69 68 90 78 70 71 69 73 76 80 82 89 80 71 65 60 57 55 51 46 41 38
66 60 55 55 51 52 42 46 51 61 62 69 69 57 61 62 74 80 80 77 81 65 57 40 66 68 88 82 88 67 73 71 79 79 79 85 83 92 82 79 73 67 64 59 48 42 42
64 58 54 53 51 48 40 50 58 60 58 60 59 62 67 73 74 75 89 86 75 64 58 45 68 80 91 88 91 68 74 77 76 85 85 74 81 92 93 95 92 79 69 61 54 48 45
65 58 53 52 47 44 37 55 61 66 73 64 63 75 69 73 79 93 95 92 75 65 50 58 74 95 97 81 89 79 75 79 80 90 86 75 69 88 84 86 80 74 66 59 55 53 57
63 55 54 51 46 36 46 53 63 66 67 87 92 96 78 75 92 98 94 88 70 68 38 76 78 90 92 87 71 77 77 79 76 70 76 80 69 73 74 72 69 68 60 56 55 55 51
65 56 54 56 44 31 48 54 54 61 81 74 80 85 91 92 97 96 97 77 70 67 79 82 83 98 90 84 71 81 80 78 75 72 72 70 63 63 63 67 64 60 59 60 61 56 57
67 56 53 51 40 39 51 50 49 63 69 74 75 76 86 84 87 84 75 77 78 85 95 94 98 96 95 91 83 82 76 81 83 83 80 69 68 64 64 65 64 63 65 66 56 61 52
67 57 52 44 38 39 40 42 48 55 64 61 58 63 66 62 68 73 81 92 86 86 98 98 92 89 93 90 83 84 78 73 75 77 84 76 77 66 68 68 68 64 62 58 48 59 55
71 61 51 45 31 34 39 38 43 47 54 62 64 48 54 62 75 83 85 91 87 88 97 86 84 87 90 86 82 78 73 70 67 63 67 71 65 63 62 61 59 66 65 51 56 55 61
80 63 51 46 32 33 39 37 39 43 47 50 52 55 58 67 79 89 92 97 95 84 84 91 89 89 86 86 90 79 70 65 62 63 54 57 68 61 61 59 57 53 51 58 58 47 55
74 68 51 46 31 26 39 37 40 47 45 46 59 54 56 70 77 86 94 89 96 82 86 84 80 78 81 80 83 73 65 60 59 58 56 55 58 67 62 58 59 55 57 58 58 57 57
68 71 56 48 36 25 22 34 38 47 49 54 59 66 68 67 76 80 81 85 93 90 76 73 74 76 78 78 71 64 63 59 56 55 57 55 59 68 61 58 57 57 57 57 58 52 64
62 73 54 48 44 28 20 27 34 43 46 51 59 66 72 75 81 78 80 80 81 81 77 73 76 75 76 74 70 66 62 54 52 53 56 52 57 65 62 60 58 58 58 56 56 57 64
64 72 67 45 50 32 21 19 30 37 46 52 61 66 73 79 81 82 84 81 80 77 73 67 67 70 72 75 71 70 58 53 51 52 53 50 54 54 61 58 58 62 58 56 57 66 66
65 77 72 55 52 43 28 18 22 35 45 46 52 63 67 75 76 78 80 78 73 71 71 66 66 70 74 80 77 69 54 55 53 59 54 53 61 64 63 62 64 60 55 57 57 64 78
64 76 72 67 56 46 37 25 17 28 45 47 52 58 64 69 73 74 74 74 71 70 65 64 70 73 72 75 74 66 57 61 56 62 60 60 72 70 65 57 60 63 58 55 70 77 83
61 66 79 77 59 52 43 35 25 17 42 49 53 59 65 64 67 66 70 73 72 71 73 73 74 75 80 79 72 66 63 63 61 64 68 69 72 70 69 59 60 63 53 67 76 80 79
67 64 78 86 66 53 52 42 37 24 26 51 58 56 68 68 69 68 67 67 70 72 77 79 75 72 77 80 75 70 67 69 67 67 67 70 71 72 72 61 68 59 74 78 81 79 81
72 65 76 86 72 56 55 51 45 39 27 32 57 62 65 73 75 69 67 65 64 66 68 71 74 75 76 73 76 81 78 72 74 71 67 65 70 76 73 69 63 75 80 84 84 81 76
77 69 74 84 76 57 58 53 48 43 36 28 47 62 66 73 74 78 74 67 65 64 63 65 64 69 73 78 74 67 71 74 80 80 74 71 72 75 75 74 84 82 81 81 81 84 77
84 75 76 90 84 64 58 54 46 39 31 23 40 61 73 73 78 81 74 69 61 63 61 62 63 68 70 74 78 81 77 72 77 78 78 79 79 79 70 85 79 78 77 81 85 82 77
90 74 84 85 87 67 60 55 45 36 32 25 40 63 84 81 79 80 77 72 68 61 61 63 68 72 76 76 75 74 76 76 76 73 75 74 82 77 82 90 87 75 81 81 79 77 74
90 84 87 84 82 64 62 51 37 36 32 27 43 65 84 88 85 82 75 71 72 65 64 66 73 74 76 80 78 78 73 76 78 81 75 82 79 78 81 79 76 77 73 73 74 76 74

GFSGBSN_prec_cthk_048.txt.gz
RH
50 53 62 53 57 56 55 52 54 46 44 40 40 47 48 50 56 60 65 70 89 80 67 56 40 52 64 88 75 63 67 58 39 44 47 52 49 46 43 41 38 38 35 32 30 30 29
56 57 55 55 60 58 52 52 54 42 42 46 53 52 56 54 56 63 76 81 87 88 79 63 50 50 68 70 69 75 67 64 48 45 47 56 51 47 42 39 38 36 34 33 30 29 28
56 60 58 61 60 57 57 54 50 48 48 49 61 57 56 60 54 58 77 83 90 89 85 67 56 59 77 69 77 92 59 69 58 51 48 54 50 47 44 41 39 40 38 34 31 31 31
60 62 63 61 60 59 60 52 52 51 50 59 65 62 60 65 60 67 76 78 74 81 77 65 58 66 70 70 94 81 62 82 73 64 56 60 50 50 48 43 42 43 42 44 34 30 28
57 65 63 59 61 56 58 52 45 50 56 67 69 65 68 61 68 67 72 83 82 81 71 66 62 55 63 63 81 78 64 81 85 80 79 75 58 54 53 51 51 48 51 45 38 34 33
61 65 61 58 60 58 55 46 49 58 59 67 71 78 74 64 65 63 73 84 80 80 72 66 58 71 71 59 92 88 73 86 91 95 97 93 83 69 58 55 52 50 48 43 40 33 33
62 66 60 57 58 58 50 45 51 60 65 66 67 75 64 61 65 72 79 79 76 78 81 67 57 72 85 74 87 87 77 87 91 98 97 92 90 75 62 55 49 49 48 45 40 37 36
65 64 58 56 57 51 42 44 53 55 65 83 90 67 69 65 71 81 80 81 87 79 68 59 51 76 81 78 77 89 79 79 87 94 97 98 95 88 79 70 64 61 60 55 48 42 39
60 58 56 57 60 46 38 44 48 56 73 82 93 96 77 73 74 74 83 90 92 77 70 58 55 80 83 72 90 87 79 80 82 86 88 93 95 93 93 83 75 72 68 62 56 50 45
55 60 60 59 56 41 47 44 48 55 70 74 73 83 93 85 75 88 91 92 82 69 59 70 67 78 87 97 89 86 81 85 87 86 82 81 82 85 96 96 86 83 73 67 57 55 58
52 61 60 58 48 39 43 38 46 55 63 57 59 72 83 84 90 96 86 82 72 58 46 61 78 90 83 86 89 76 78 85 86 89 83 83 80 87 97 94 90 82 73 71 63 60 54
47 59 53 49 44 38 38 39 43 48 54 51 57 59 67 77 89 96 83 68 62 66 84 71 89 98 86 80 94 82 84 86 84 86 91 85 75 79 87 87 84 80 76 73 70 61 62
49 62 54 50 38 38 40 38 41 44 48 49 53 61 64 63 67 68 67 68 72 80 75 87 97 97 90 82 92 84 85 86 88 92 96 88 82 72 74 78 74 70 72 74 57 62 55
49 54 57 52 37 34 38 38 43 43 43 45 54 66 73 81 76 82 79 75 83 92 91 80 92 90 93 91 89 88 88 83 83 78 79 78 80 68 68 65 67 65 64 67 49 56 51
45 54 67 50 40 33 37 34 37 47 45 47 54 60 76 70 71 74 71 80 96 95 83 92 98 93 92 88 81 95 87 84 83 77 71 72 70 67 68 67 66 68 70 61 64 59 60
41 53 72 54 39 28 27 34 35 43 50 52 52 62 69 77 70 66 70 81 93 91 98 95 95 93 91 93 87 92 83 75 80 80 73 72 78 70 69 66 66 63 64 66 62 52 47
41 52 73 62 41 29 23 27 35 41 49 56 61 64 65 72 70 64 69 74 83 82 79 80 80 83 89 87 75 73 71 66 67 69 62 62 62 73 66 68 68 63 64 58 56 55 50
42 48 66 73 52 33 27 19 27 36 45 55 61 68 74 72 69 70 73 71 65 70 69 67 67 70 73 75 84 74 68 62 63 66 64 56 63 71 64 61 59 54 56 55 57 59 61
39 42 68 79 60 41 33 21 18 32 44 55 57 64 72 74 75 72 71 72 66 65 66 60 66 68 71 75 71 65 60 62 61 58 58 56 61 70 68 61 60 61 59 59 58 58 63
47 50 65 83 68 50 38 22 18 24 41 47 51 61 63 75 77 81 73 70 66 59 59 63 69 69 71 72 64 61 59 59 58 56 55 54 56 55 60 56 59 63 59 59 59 65 57
46 59 61 75 79 65 46 31 19 18 39 47 49 58 65 71 73 76 74 69 67 68 63 64 65 65 71 78 77 71 63 59 55 57 57 56 59 57 57 57 63 62 58 62 59 54 59
51 58 67 74 79 81 61 46 28 19 30 47 49 56 65 68 69 73 72 66 65 69 68 65 68 72 72 76 77 72 57 54 54 56 59 59 65 64 64 60 63 64 61 61 56 59 70
58 57 58 78 78 80 72 56 42 28 27 41 52 55 63 64 70 69 72 70 68 64 68 71 73 73 77 79 76 65 55 59 57 63 62 61 69 71 68 63 61 61 57 53 58 71 75
59 64 57 73 81 80 83 65 53 48 36 33 47 57 62 66 67 69 67 71 72 69 70 74 74 76 79 78 77 68 66 67 66 67 67 71 73 73 74 63 66 50 57 63 74 76 79
60 58 59 71 81 80 80 71 65 58 53 42 40 55 61 68 71 70 69 68 68 71 73 75 76 77 78 80 78 78 77 74 76 73 70 67 71 73 72 72 56 54 71 83 83 85 81
68 65 67 75 87 86 77 73 70 64 64 54 54 49 62 65 72 76 75 68 66 69 68 69 71 75 78 78 79 77 82 78 82 80 75 71 69 70 75 67 68 64 80 83 84 90 78
80 79 75 78 86 84 88 78 69 60 63 58 46 56 60 66 71 86 84 76 68 67 68 67 64 69 73 78 80 78 77 77 81 79 77 79 77 75 70 67 63 72 82 84 92 85 78
81 86 81 89 90 82 84 73 67 61 57 42 29 36 52 66 83 94 95 87 74 67 64 63 64 69 74 76 77 78 80 78 78 75 73 73 74 76 74 74 78 75 87 90 83 78 76
88 92 94 95 92 90 85 70 63 53 48 36 29 30 59 71 82 93 96 88 80 74 69 66 71 69 71 76 76 75 75 80 79 82 79 83 73 73 71 70 72 78 82 83 78 75 75

GFSGBSN_prec_cthk_051.txt.gz
RH
46 46 56 66 69 63 66 65 62 59 53 51 48 50 56 58 64 64 56 60 60 69 78 83 74 63 47 67 66 78 67 76 60 42 49 52 49 51 54 55 49 45 43 42 42 42 40
45 48 53 69 66 65 65 65 61 53 46 53 56 61 63 69 72 63 58 58 74 77 81 86 89 77 54 64 62 82 70 69 64 50 55 60 47 48 52 55 47 44 42 37 34 35 35
44 47 55 54 58 64 64 63 59 52 49 55 58 68 74 81 73 69 70 70 69 69 82 88 89 86 60 56 64 62 61 67 72 58 60 64 56 48 47 53 44 43 42 38 33 33 32
42 48 55 51 57 61 62 61 55 45 53 57 64 72 83 83 75 70 75 67 75 85 79 78 82 82 59 63 73 81 90 67 67 66 66 68 66 57 49 50 47 47 44 43 33 31 31
45 44 52 54 61 61 59 56 44 43 52 58 68 77 71 91 73 69 66 68 79 82 81 78 78 75 63 64 74 85 91 73 65 82 75 76 75 65 56 52 54 54 51 45 38 35 33
46 48 52 48 53 53 53 46 45 46 54 65 76 86 78 56 58 67 69 76 77 81 83 87 83 79 66 74 80 86 82 87 76 83 92 93 88 73 62 58 55 53 52 45 38 33 35
48 51 48 45 56 50 48 53 46 46 60 67 68 77 89 68 61 66 78 80 77 84 83 80 78 66 60 77 85 85 85 90 92 91 94 95 88 68 54 54 51 44 44 42 38 36 37
47 50 54 49 49 49 48 49 42 50 57 56 58 71 82 86 64 69 78 76 85 90 78 76 64 73 78 72 93 88 79 91 93 98 97 97 83 75 63 57 50 50 50 49 43 38 36
43 49 53 44 47 41 45 43 41 43 52 52 59 68 76 88 72 69 76 85 93 86 76 72 81 87 91 86 88 89 86 89 95 98 97 97 92 86 78 68 62 62 56 54 49 44 40
42 48 52 43 46 37 44 42 41 41 48 53 53 57 64 75 83 79 83 83 81 66 71 67 88 93 94 81 92 91 87 90 95 97 97 97 95 94 94 82 73 73 66 62 54 52 51
41 48 52 49 42 39 43 40 42 40 45 54 57 65 65 69 86 96 83 70 58 71 65 67 87 89 86 78 82 92 81 92 94 95 93 93 98 96 97 96 87 81 72 68 61 58 53
44 49 51 54 41 41 39 38 44 41 45 56 61 65 71 70 60 66 59 56 71 67 81 77 87 95 93 81 80 89 83 90 94 89 86 86 88 90 96 96 95 88 78 73 67 62 61
42 48 53 58 45 42 30 39 40 46 42 54 62 67 62 62 63 70 75 78 74 73 79 87 87 93 96 90 84 85 91 91 94 98 98 95 90 84 93 95 90 85 86 83 66 70 63
39 44 55 57 55 40 32 34 34 44 48 52 58 58 56 52 65 68 71 67 72 92 97 94 89 87 87 94 89 82 90 87 85 89 93 96 95 80 78 83 85 82 84 82 58 56 47
40 41 47 53 62 39 33 25 32 40 49 54 52 47 52 61 68 70 70 70 81 88 93 99 97 89 85 91 83 90 89 84 83 82 84 87 94 81 74 70 72 71 77 65 64 58 56
39 38 47 49 60 52 35 29 23 35 44 50 56 48 57 57 59 61 65 71 78 80 82 91 87 85 86 86 89 92 86 81 78 78 66 67 81 74 68 66 65 63 64 69 67 57 46
39 39 50 56 60 65 37 30 17 28 39 48 52 54 58 57 54 56 70 79 85 87 83 83 79 80 89 81 83 81 79 79 72 75 69 67 66 74 67 67 68 70 72 68 61 54 43
36 43 46 62 67 68 40 35 23 19 34 43 46 61 63 58 61 63 66 70 70 76 78 75 75 78 79 76 78 81 78 68 70 72 73 66 70 74 73 65 65 64 64 59 57 56 58
42 43 46 61 66 72 54 39 31 17 33 43 44 52 65 67 67 71 62 60 63 68 66 60 62 64 68 73 77 73 66 63 62 65 64 58 65 73 72 64 63 64 60 56 52 53 61
42 43 46 53 63 68 68 54 43 23 26 41 45 51 53 67 69 67 70 66 61 61 57 58 61 63 69 74 66 68 65 65 63 64 63 57 59 57 59 57 60 63 59 57 58 66 55
41 44 50 54 61 66 70 67 50 35 25 39 46 51 58 62 71 66 66 68 61 61 59 62 65 68 70 75 68 64 61 63 65 62 57 55 61 58 55 56 60 60 61 61 60 57 54
38 45 51 49 59 57 68 70 68 44 37 35 49 52 57 60 62 68 65 68 68 67 65 64 66 66 69 72 71 71 66 61 60 57 58 57 66 59 57 55 61 64 62 62 58 53 50
44 53 60 58 56 54 67 74 73 52 43 44 43 54 56 61 62 66 70 68 66 68 72 68 66 68 71 73 76 70 59 57 54 54 57 59 63 60 64 62 63 64 57 55 59 52 58
52 56 64 65 60 59 70 82 77 73 53 48 50 52 61 60 65 65 67 72 72 72 70 73 74 73 76 78 76 73 61 60 62 62 60 60 63 69 75 66 70 51 55 54 50 61 72
56 64 72 72 67 65 77 85 75 73 71 54 55 55 60 63 66 68 69 72 73 74 76 76 76 76 79 79 80 78 74 69 73 71 68 64 71 76 74 72 56 54 63 68 73 79 81
56 71 72 76 79 70 79 88 81 81 72 67 69 68 63 62 69 71 75 73 75 75 76 77 77 79 80 83 82 74 80 76 79 79 74 72 70 71 74 67 66 56 69 75 81 92 86
61 70 72 79 86 84 88 87 79 72 69 73 70 72 73 74 68 78 79 76 75 76 74 72 72 79 81 79 83 84 80 75 77 78 78 81 80 76 70 70 59 57 63 81 96 89 86
62 67 73 79 88 87 88 93 81 67 63 73 68 57 54 61 65 88 87 88 83 80 76 72 70 69 77 81 80 81 79 79 80 77 74 73 74 75 74 71 67 57 78 92 90 85 82
66 71 74 80 87 87 94 91 77 63 65 65 47 34 31 42 46 85 94 95 92 84 76 69 72 68 71 78 76 77 77 83 81 81 77 80 72 74 68 64 60 62 81 88 87 85 80

GFSGBSN_prec_cthk_054.txt.gz
RH
39 40 39 45 46 44 55 65 57 57 49 54 51 55 60 66 69 77 76 74 66 63 67 66 63 68 72 60 35 65 56 61 66 67 54 50 51 63 58 60 64 57 59 53 50 47 42
41 40 41 41 39 41 51 60 54 50 43 50 57 62 66 71 79 84 79 67 72 72 63 65 69 76 80 68 41 74 86 78 69 62 61 56 52 57 61 59 61 55 55 52 53 50 45
41 42 42 39 43 44 55 52 47 42 43 51 60 67 76 78 78 77 79 74 73 66 64 70 77 87 87 64 51 67 83 83 75 63 61 61 60 59 60 58 58 58 54 48 46 45 43
42 43 41 43 42 50 56 49 41 43 46 55 68 76 84 93 64 78 73 69 66 74 84 68 74 88 79 75 59 62 91 82 77 61 62 66 66 61 59 60 52 54 56 52 34 37 41
43 45 44 45 49 48 53 51 43 40 53 59 72 73 80 93 61 57 63 62 68 72 76 76 85 80 78 75 74 72 90 83 78 63 70 82 79 62 58 59 56 52 45 48 40 35 33
44 46 48 50 47 44 50 53 43 45 50 62 60 65 70 87 76 57 66 70 75 74 75 84 89 85 71 75 83 79 90 78 78 70 87 97 96 84 69 59 48 45 46 48 36 37 37
44 50 51 48 41 39 47 50 47 43 49 60 62 61 64 86 87 58 68 77 76 80 83 83 79 85 85 78 86 71 73 70 84 71 85 93 98 81 64 52 51 46 47 40 34 36 33
43 50 52 47 41 40 47 51 45 40 49 61 70 64 56 86 88 61 74 76 78 89 84 76 82 82 92 97 96 98 97 98 75 78 91 95 94 84 74 63 55 47 43 40 43 41 36
35 42 49 47 43 44 43 48 40 40 50 57 69 60 55 72 73 63 71 81 82 82 79 80 76 73 84 98 95 96 96 94 83 90 94 95 90 84 74 64 56 51 45 45 42 40 37
37 39 47 51 49 44 38 47 41 43 55 58 55 58 54 65 72 74 72 64 66 69 80 81 92 97 97 96 94 94 97 97 98 98 95 98 92 84 78 64 55 56 57 55 46 45 42
37 39 46 48 49 43 36 47 41 46 52 42 41 43 52 58 54 56 56 67 73 74 92 94 96 98 99 85 82 92 86 98 95 96 98 97 94 93 81 69 59 64 62 61 54 49 47
36 38 45 40 44 57 40 39 34 45 48 39 44 49 52 59 62 59 59 71 77 79 94 96 97 94 83 91 80 82 94 94 97 93 93 97 98 96 95 93 77 69 63 65 58 56 59
34 38 41 42 40 49 46 31 29 38 48 40 41 46 52 60 60 57 54 58 69 76 85 90 97 87 80 87 85 89 90 92 96 97 97 98 95 96 97 98 93 77 73 78 75 74 55
33 39 40 48 46 49 51 31 24 31 44 45 39 42 54 57 58 55 53 59 67 80 87 89 92 83 84 83 92 89 91 85 84 92 96 98 94 94 96 92 90 91 83 73 63 56 46
27 32 40 48 47 48 44 37 25 22 36 47 42 42 48 50 55 56 63 68 75 75 82 89 93 87 86 79 80 93 93 84 84 87 89 97 97 85 84 83 82 84 87 74 63 57 54
29 33 39 42 52 55 52 40 31 17 28 42 49 43 46 48 51 52 57 69 80 84 82 76 75 71 77 78 76 86 82 81 78 80 77 79 93 86 78 76 74 74 70 76 75 63 48
34 34 40 40 51 54 61 51 40 22 21 35 43 54 53 49 49 61 67 70 72 77 77 72 69 67 70 73 73 71 76 78 74 74 72 68 71 83 75 71 69 69 67 63 57 47 36
30 35 39 38 49 46 49 57 50 40 18 31 40 52 56 54 54 58 65 67 69 72 72 69 67 69 67 67 70 72 72 75 72 72 69 67 66 73 71 64 64 62 60 54 56 57 50
31 35 38 40 47 51 49 54 50 52 35 33 38 44 52 59 59 57 59 66 67 65 65 64 66 66 64 63 70 72 72 70 68 69 70 66 67 73 74 69 62 61 59 56 53 54 55
33 33 36 42 49 51 42 47 54 53 50 29 40 44 49 57 61 57 56 57 61 60 57 55 57 59 62 65 66 68 66 67 63 66 66 59 58 57 54 60 59 66 60 55 56 57 43
32 32 39 47 49 57 49 46 49 54 53 51 40 48 51 58 64 58 58 58 58 59 56 57 59 62 63 66 63 61 66 63 62 63 63 58 66 58 54 54 60 59 58 54 55 50 54
31 32 41 48 52 58 66 53 56 56 49 59 53 50 54 56 61 65 60 60 56 58 60 61 64 68 67 67 64 59 57 57 58 59 59 55 66 61 57 52 55 59 55 55 54 52 50
34 39 43 49 54 61 65 61 64 66 56 56 58 53 54 57 58 64 65 64 64 64 65 65 64 65 66 70 73 69 64 56 57 55 53 55 58 58 56 54 56 57 52 52 52 50 45
37 46 48 52 56 60 66 66 67 69 70 65 60 57 61 61 60 62 67 70 69 68 69 73 71 69 70 72 74 75 69 65 62 56 53 55 56 58 59 59 64 48 53 50 49 49 46
41 47 52 54 56 64 68 78 81 81 69 75 65 65 61 65 66 64 67 68 73 73 73 75 76 74 77 78 80 80 78 66 66 65 60 57 58 64 68 65 53 51 58 55 52 51 61
46 52 53 57 57 64 73 77 85 89 76 70 69 70 77 67 59 76 72 72 72 75 77 78 80 79 80 81 80 77 76 71 70 72 68 67 65 66 70 67 54 55 62 62 65 80 76
51 55 52 56 60 67 76 79 87 90 76 72 75 75 77 85 67 77 84 78 74 73 76 78 80 83 82 82 83 80 74 71 74 72 71 74 75 72 67 64 53 54 60 72 85 83 84
59 58 57 58 60 68 81 87 89 84 72 70 74 80 81 79 74 78 87 89 85 79 77 77 76 78 83 82 81 83 81 76 73 71 69 68 69 72 69 67 62 50 62 71 78 86 88
62 57 57 62 63 70 82 86 91 84 66 64 68 71 58 42 31 43 87 96 90 90 86 80 74 70 68 75 76 79 76 78 74 75 72 72 65 65 62 59 56 63 67 73 82 90 90

GFSGBSN_prec_cthk_057.txt.gz
RH
38 36 38 40 39 36 42 49 51 44 42 42 46 55 63 68 70 68 72 71 75 75 78 76 70 66 67 66 42 49 55 54 54 60 57 60 55 54 62 61 65 67 64 58 52 45 43
39 37 39 44 44 38 46 47 44 47 48 45 57 65 75 77 78 81 70 72 69 77 76 75 73 75 72 67 55 48 63 60 75 68 61 58 56 53 61 68 59 68 73 68 59 55 54
39 37 42 48 46 38 45 45 49 48 44 50 64 71 79 85 92 89 68 72 77 79 73 69 73 76 77 63 65 62 63 64 72 74 68 54 65 66 61 71 68 65 71 71 62 60 56
40 36 43 47 46 36 42 48 46 47 47 52 66 75 65 77 92 86 56 66 68 67 71 78 68 75 82 76 70 62 80 83 67 68 73 65 70 72 69 69 72 69 67 73 60 58 56
41 35 42 47 44 37 42 51 51 45 50 55 61 58 60 73 93 72 52 60 61 64 67 70 74 85 75 79 64 60 97 98 90 84 78 63 76 74 69 66 70 66 61 57 58 49 51
42 36 42 43 42 36 40 50 46 47 50 52 53 51 56 75 92 70 55 60 67 69 69 75 89 88 70 77 75 62 74 93 95 94 79 68 79 90 78 70 63 50 50 47 50 51 44
41 35 40 41 42 37 38 46 43 47 44 45 46 44 63 74 84 65 62 71 75 80 85 82 83 71 90 80 78 81 82 91 99 88 68 77 89 91 66 50 46 49 48 46 46 54 49
36 33 39 41 35 43 41 47 42 43 44 43 45 50 55 63 69 61 68 75 78 82 86 76 67 73 84 95 88 86 79 88 97 74 70 90 83 88 75 64 55 52 53 52 53 50 51
35 34 37 37 32 44 47 42 44 44 43 46 47 48 50 59 62 68 68 64 74 85 90 80 79 85 88 96 93 94 92 85 82 65 71 73 89 88 91 72 60 54 56 50 48 51 50
36 34 37 34 35 43 54 39 39 46 40 43 51 51 51 48 59 62 64 65 70 80 92 74 83 97 96 94 83 82 81 93 92 70 78 81 88 94 93 81 64 58 53 52 53 50 40
36 31 32 32 38 42 54 46 28 46 42 41 46 50 50 50 52 57 59 65 84 89 95 93 93 90 97 98 87 80 84 89 75 69 75 84 89 96 85 81 71 62 58 56 49 54 50
33 29 29 32 35 43 48 44 21 30 39 42 44 48 50 53 54 54 57 73 75 92 96 98 95 98 97 96 96 98 96 88 74 83 90 92 96 97 89 84 75 77 62 56 53 59 59
35 31 32 33 36 44 50 40 24 20 31 40 43 46 50 50 51 47 54 62 82 93 93 97 94 95 86 88 94 96 98 96 93 98 98 98 98 97 94 90 86 74 67 77 77 74 65
33 31 33 32 35 40 48 48 34 17 25 38 41 44 47 52 50 52 54 61 65 79 82 88 83 79 87 87 92 92 94 90 88 89 98 98 98 98 97 92 88 80 70 68 63 63 59
31 33 32 31 31 37 39 48 50 23 16 32 46 45 49 53 53 56 57 60 65 76 79 78 71 77 77 78 76 83 86 85 81 80 92 95 98 97 96 96 93 94 81 64 53 49 52
32 31 31 32 29 33 38 41 49 49 17 25 37 49 52 48 48 52 60 66 68 67 71 71 69 66 68 73 73 79 76 76 78 80 79 84 96 91 92 93 89 89 81 81 71 62 49
34 28 30 30 31 35 36 36 39 47 38 20 33 46 52 49 55 57 62 64 68 64 63 66 60 64 62 63 65 69 71 73 72 74 74 75 79 92 81 82 80 79 79 76 73 59 47
31 28 30 32 33 41 41 42 36 39 50 27 34 48 51 51 55 54 56 60 62 63 64 65 61 59 63 65 67 65 69 71 70 71 72 70 71 83 81 72 70 67 67 63 68 67 57
30 30 28 28 33 41 44 44 37 34 45 50 34 39 44 55 59 58 55 59 60 59 59 60 61 59 59 59 66 67 68 67 66 66 68 65 70 75 73 66 63 64 59 55 55 59 63
31 32 29 30 33 43 46 47 49 34 37 54 52 44 45 54 58 56 55 56 56 56 56 57 57 59 58 58 62 68 69 70 64 63 63 61 60 61 62 67 60 60 53 54 61 65 49
34 33 29 33 37 41 47 49 54 40 36 55 66 51 50 54 58 57 52 50 51 54 51 50 52 53 56 61 61 64 66 67 63 58 65 62 69 59 53 53 60 59 57 57 65 56 58
36 33 30 36 42 41 44 49 56 48 42 52 65 66 50 53 55 61 57 55 53 55 52 51 54 58 58 60 59 59 59 62 60 61 61 63 71 63 63 52 53 58 54 57 56 52 46
35 35 37 41 44 45 47 50 57 57 52 52 59 67 62 54 55 58 65 62 58 55 53 54 57 60 62 66 67 64 59 56 57 59 61 62 65 65 65 55 52 53 47 48 50 48 48
38 41 43 46 47 46 50 53 58 64 63 69 68 66 68 61 57 58 63 67 64 62 64 63 62 63 64 63 66 70 71 65 57 56 58 56 57 58 59 54 61 50 47 46 47 46 46
45 46 47 49 49 49 53 54 62 72 71 72 73 70 74 66 62 63 64 67 70 71 69 70 70 68 68 69 71 73 75 74 70 65 58 52 55 60 59 54 48 43 48 52 50 46 46
51 52 53 51 49 49 56 56 63 79 80 75 72 68 78 75 68 67 74 71 71 70 74 78 75 73 73 75 75 75 77 73 70 68 61 56 58 60 61 62 56 59 56 54 52 58 49
52 57 58 52 53 49 59 59 73 81 83 74 71 63 74 80 73 72 81 86 79 73 74 78 78 79 76 78 81 78 73 72 72 64 67 66 68 67 63 63 53 48 58 64 74 76 70
52 59 61 57 56 52 61 66 72 83 87 79 69 67 73 79 73 80 75 93 93 86 78 79 82 82 83 82 82 78 75 73 69 64 64 64 65 65 64 68 63 48 58 65 72 73 78
54 55 57 57 51 60 67 63 67 76 66 61 65 66 69 72 67 66 78 81 97 99 94 83 81 77 78 80 79 79 78 78 71 70 65 66 61 61 58 59 54 55 62 63 68 73 80

GFSGBSN_prec_cthk_060.txt.gz
RH
37 35 34 42 42 41 34 38 39 39 42 52 48 52 60 67 78 84 90 86 77 65 64 70 78 80 79 79 58 64 59 43 65 69 67 55 47 58 60 51 57 66 63 52 54 54 52
34 32 33 42 41 38 31 39 37 40 53 45 44 48 56 63 74 85 96 85 72 67 77 86 85 84 87 74 68 63 62 64 60 72 66 63 46 57 63 63 58 59 69 71 61 54 48
31 32 32 40 43 35 29 41 42 48 42 39 44 49 51 59 77 89 96 69 66 74 77 70 70 80 78 69 74 59 50 69 69 77 68 64 56 56 64 74 64 64 71 76 69 57 53
30 31 31 41 40 36 33 39 38 44 40 42 48 48 49 70 78 90 78 49 66 68 67 67 82 72 70 66 65 62 53 69 76 85 77 70 64 59 70 71 71 68 69 77 71 67 65
32 30 30 38 37 37 39 35 43 41 38 43 50 44 48 57 78 76 53 52 62 60 60 61 67 73 74 67 61 59 58 61 76 84 86 80 70 61 70 77 82 79 67 68 67 69 67
33 31 29 36 34 38 47 31 45 38 38 42 46 42 47 56 65 65 52 59 61 64 71 68 77 93 73 70 68 59 57 66 85 89 91 92 77 69 69 83 80 69 67 56 58 59 67
31 31 30 32 31 40 51 33 44 39 37 46 43 47 43 47 49 50 61 69 79 85 90 83 86 77 85 77 67 69 69 74 83 85 97 77 82 67 49 56 60 56 61 62 55 58 60
31 30 29 29 31 39 46 41 34 40 38 40 38 47 41 46 54 60 64 67 69 73 72 74 66 65 73 73 75 75 94 97 87 90 77 85 71 62 64 69 71 66 59 50 58 58 57
30 29 28 32 32 40 41 41 32 36 37 41 38 42 44 43 53 70 79 74 69 74 82 76 75 70 76 74 85 88 98 98 98 94 78 74 61 63 69 71 73 64 55 50 59 57 58
30 30 31 33 32 37 43 34 26 28 29 35 41 41 41 45 55 61 75 72 76 85 95 90 92 89 89 76 84 96 94 95 97 89 81 85 73 69 78 80 71 70 54 56 59 59 61
30 31 32 32 30 34 41 36 25 22 24 31 39 39 41 42 49 58 65 75 87 92 94 87 92 90 96 96 86 94 93 92 95 85 73 83 81 77 91 82 78 71 57 60 62 61 65
31 28 32 30 29 32 38 39 37 27 21 30 37 40 41 43 45 56 63 70 76 88 97 98 96 96 98 85 85 80 86 90 88 75 73 77 84 88 93 94 88 76 69 61 60 64 78
30 30 31 29 30 28 33 35 41 36 20 25 38 41 42 43 48 50 58 67 73 84 92 95 98 94 94 81 80 83 83 90 85 81 82 89 87 88 97 96 88 84 81 78 82 81 74
29 30 28 28 30 29 30 32 34 45 30 17 35 42 45 46 49 48 54 66 67 78 88 89 93 91 82 93 98 97 92 93 80 72 83 87 94 97 98 93 89 84 75 78 67 77 63
30 30 25 28 32 30 31 36 35 33 45 21 28 42 45 44 44 50 60 61 69 75 80 86 83 82 90 85 83 95 89 87 91 92 98 98 96 93 97 95 89 89 89 68 65 57 68
30 30 25 27 30 29 30 34 37 32 35 40 25 36 46 43 47 46 54 62 69 72 75 74 71 73 73 68 72 85 82 79 82 82 83 88 96 95 96 96 93 89 80 78 77 72 68
32 26 26 26 28 28 30 34 37 37 29 40 36 37 45 46 48 50 55 58 61 66 66 66 63 62 64 66 68 71 72 74 74 75 79 83 87 97 97 98 98 96 97 78 70 61 63
31 27 27 25 26 31 32 33 37 38 29 32 57 44 40 47 51 50 51 54 55 53 59 61 59 57 57 59 62 66 71 69 72 73 74 73 83 94 86 83 86 90 82 85 90 76 65
30 28 27 25 28 33 34 33 36 36 34 33 50 50 42 47 56 53 51 55 56 55 55 55 54 55 54 57 62 60 66 66 66 69 70 66 72 87 83 77 76 79 78 76 76 80 83
31 29 27 26 30 32 36 33 35 33 38 38 51 69 47 51 49 54 53 55 60 56 57 56 56 54 54 53 55 60 64 65 64 62 64 62 63 68 74 75 71 71 67 64 68 74 64
32 30 28 30 33 34 34 36 38 35 38 44 46 67 73 55 55 54 52 51 52 56 55 53 56 55 59 60 57 60 65 64 62 57 57 61 68 62 58 57 64 62 58 58 64 60 63
34 33 33 35 38 37 39 38 42 41 37 52 59 53 66 68 53 54 56 51 50 51 54 53 54 55 56 61 63 64 59 59 63 58 56 65 73 66 64 53 54 57 54 55 55 58 56
37 39 42 40 40 41 42 41 42 45 42 51 61 63 62 72 61 56 62 61 62 57 56 53 53 55 59 67 64 63 61 57 57 59 59 63 68 69 71 58 54 58 48 49 53 53 54
39 42 44 44 41 42 43 41 44 51 51 57 61 73 75 68 74 61 58 64 62 61 60 58 53 57 65 63 61 63 66 64 58 54 59 62 63 64 70 60 69 51 45 45 47 50 50
42 41 43 44 45 46 43 45 47 52 54 61 65 69 81 74 65 63 62 62 66 66 65 64 63 61 62 64 68 69 71 72 74 65 57 60 61 63 70 66 51 49 47 50 49 48 46
42 43 46 48 45 46 45 51 54 58 61 63 67 67 77 77 80 72 70 71 69 70 70 69 67 67 69 72 75 76 74 70 77 77 68 62 57 58 65 66 63 58 55 52 52 61 47
41 43 44 45 47 46 47 51 54 63 66 66 66 68 73 71 67 76 72 82 83 73 74 69 71 73 72 73 78 78 73 69 78 75 74 68 63 67 64 65 54 52 55 61 70 70 56
42 43 41 44 45 47 54 56 53 55 65 54 51 59 66 71 62 67 72 72 89 91 87 80 74 73 77 78 80 76 73 72 73 69 68 67 67 66 66 68 66 53 55 64 68 67 70
42 42 43 44 48 49 53 58 60 57 54 56 56 52 59 60 54 58 66 73 75 95 98 95 88 76 74 79 79 80 79 77 75 77 68 67 60 61 60 61 56 55 55 60 64 68 73

GFSGBSN_prec_cthk_063.txt.gz
RH
28 29 31 34 38 34 30 33 34 42 38 38 40 43 40 44 53 68 82 93 92 86 75 61 60 75 79 79 53 74 60 57 48 54 72 67 43 45 60 65 59 64 66 68 62 65 71
30 31 31 34 35 33 36 29 36 34 36 39 42 42 40 46 57 71 78 94 84 74 64 81 86 79 80 81 70 80 66 57 57 72 77 78 60 44 57 68 63 56 64 72 73 56 57
32 30 29 33 36 34 39 30 38 34 38 39 39 40 40 46 53 65 77 74 54 64 75 74 70 73 83 79 81 84 72 62 68 87 90 78 70 48 48 64 63 61 68 80 72 61 56
31 29 29 28 36 36 39 38 36 38 38 39 38 42 43 50 55 53 47 42 52 64 67 65 73 71 71 69 71 85 88 71 67 88 96 91 74 60 63 65 71 68 61 82 67 68 57
32 30 27 26 33 36 39 43 32 38 38 39 40 44 43 50 50 43 41 48 53 57 55 57 60 66 71 67 68 71 78 81 76 91 93 93 86 69 63 70 79 82 71 67 65 66 66
32 28 25 26 34 35 38 41 33 33 40 36 37 40 39 46 49 48 47 49 55 56 62 66 70 83 79 71 66 69 63 83 80 91 97 93 88 74 66 69 67 70 68 57 57 59 62
29 28 25 28 33 31 37 35 27 31 39 37 36 36 37 43 55 62 60 55 56 67 77 76 75 72 75 74 64 66 56 84 93 94 99 94 87 69 44 55 59 70 71 65 56 54 62
27 27 25 28 31 29 39 30 23 30 34 37 38 35 37 39 47 60 63 66 66 66 62 58 64 65 65 66 63 66 63 75 97 97 97 97 76 67 57 59 62 63 71 67 61 56 57
27 26 24 27 29 29 34 32 26 27 29 31 33 38 35 41 43 48 64 67 76 83 92 92 80 71 71 71 65 70 60 86 97 98 93 79 73 70 63 62 61 57 58 61 63 61 58
28 26 25 26 27 30 31 35 32 28 23 27 31 38 37 40 43 50 61 73 73 86 96 99 96 83 74 78 77 67 59 84 92 97 95 89 77 70 69 60 56 64 58 63 67 63 65
30 27 26 26 25 26 29 29 31 36 28 23 31 40 39 41 45 55 58 64 75 88 96 91 91 91 89 97 92 97 97 88 79 87 85 84 74 68 71 69 65 64 68 74 68 64 62
31 28 29 24 25 27 30 32 33 30 36 21 30 37 42 42 46 50 58 57 70 84 97 97 95 93 90 94 98 95 97 98 95 94 81 79 76 74 72 73 74 79 77 76 73 73 80
31 29 29 23 26 24 26 30 33 35 30 35 22 36 42 42 45 47 56 58 61 76 88 99 98 88 84 84 81 93 97 92 90 90 95 94 87 82 82 77 83 82 82 94 93 91 76
32 30 28 24 24 23 24 28 30 34 30 34 22 37 42 43 44 46 53 58 63 73 82 90 93 85 87 92 90 92 89 88 79 73 80 84 94 89 83 90 95 91 79 81 81 83 67
32 31 25 24 24 22 25 26 28 30 31 28 32 33 43 43 47 44 53 56 65 72 74 80 73 81 78 93 96 92 92 89 84 73 69 75 79 80 90 93 95 94 89 75 75 65 66
34 30 25 24 22 23 26 26 26 28 30 24 35 38 43 45 50 46 49 60 67 66 66 72 81 72 68 77 87 87 81 79 77 77 78 80 81 84 92 98 95 92 83 83 90 75 76
36 28 25 25 22 24 26 25 24 25 29 25 34 46 45 48 50 52 54 60 62 61 61 70 67 65 68 72 72 73 73 71 71 76 78 80 83 90 92 95 96 92 89 81 78 76 72
35 28 27 26 24 26 28 25 25 23 29 30 31 47 47 52 55 54 56 59 58 60 59 62 63 63 64 65 67 70 71 69 69 72 81 83 86 96 92 89 92 89 89 80 84 78 71
34 29 28 27 27 28 28 25 26 23 28 33 46 44 52 58 54 55 55 60 63 60 57 56 57 57 59 63 65 66 67 67 69 71 71 74 89 94 96 89 91 95 86 84 81 81 79
34 31 31 29 33 31 29 27 26 24 27 32 45 52 52 59 58 54 56 57 67 59 58 58 57 55 56 57 59 64 67 67 66 67 69 68 70 78 80 75 76 82 87 81 85 92 80
34 33 34 34 33 31 30 29 28 26 26 29 38 56 62 62 62 56 57 56 55 62 57 56 58 57 57 60 58 66 66 66 64 60 62 66 70 67 69 71 73 71 73 78 79 72 75
38 37 38 35 34 32 31 31 30 31 29 28 41 52 58 66 64 68 56 58 55 55 54 55 54 51 52 57 58 60 59 58 60 60 57 61 72 65 63 57 57 59 60 62 63 62 59
38 39 37 36 34 32 32 33 33 34 34 33 36 49 66 69 72 72 68 60 63 58 55 54 55 53 53 57 57 58 59 57 57 62 59 59 67 71 72 60 57 55 49 50 52 51 52
38 38 38 37 36 35 33 36 37 38 40 41 39 46 60 73 72 73 70 63 62 65 64 62 54 55 54 56 58 58 60 64 62 57 58 62 64 68 74 65 70 46 47 47 47 49 51
39 38 36 38 37 37 34 37 40 45 47 46 49 48 57 68 72 64 75 67 64 66 69 62 59 54 57 59 62 64 65 66 69 67 65 61 64 67 71 71 52 54 50 50 51 51 49
36 37 38 40 39 39 36 39 42 44 46 46 38 40 51 69 78 80 72 66 73 72 73 72 66 62 62 67 69 72 72 64 72 75 70 68 65 67 69 70 68 60 54 54 53 61 51
38 40 41 43 43 40 39 43 41 44 44 41 43 44 48 57 59 72 73 77 83 83 78 77 72 72 70 73 78 77 70 61 72 73 78 75 72 72 61 67 55 54 55 55 68 61 49
38 41 44 44 43 41 40 44 46 47 40 47 49 52 52 50 49 58 64 72 69 85 88 92 81 75 74 77 81 77 74 66 66 68 74 74 71 69 64 68 65 54 55 65 67 67 61
41 39 41 43 43 43 39 43 49 49 45 49 54 58 59 58 47 45 54 60 72 73 85 98 98 92 88 77 75 79 78 75 72 76 69 72 64 61 61 60 53 55 55 59 64 67 70

GFSGBSN_prec_cthk_066.txt.gz
RH
29 31 31 31 32 34 37 37 30 30 34 34 34 38 39 43 48 52 54 72 91 91 81 79 72 67 70 67 53 60 56 60 63 61 69 75 44 42 59 63 71 78 73 76 78 76 81
28 30 30 30 30 32 36 41 28 31 33 36 35 38 41 44 47 51 50 56 68 62 67 72 80 76 76 78 66 56 74 56 57 63 75 81 58 45 54 62 72 74 77 80 83 71 79
28 29 29 30 31 32 38 42 29 31 33 37 36 36 39 39 47 45 47 44 44 51 62 66 68 73 75 74 77 67 72 69 59 65 75 80 74 55 46 56 68 78 78 82 75 75 73
29 28 27 29 32 32 40 40 27 27 35 38 37 36 37 37 47 44 45 42 48 54 57 63 67 66 68 73 75 85 85 77 62 63 73 86 87 59 55 61 66 85 74 84 71 74 73
30 27 26 29 31 32 40 32 24 27 31 38 39 36 35 37 45 56 58 55 48 45 45 48 54 59 63 71 79 86 92 78 64 70 86 97 98 72 66 65 72 88 84 72 73 70 70
30 26 25 28 28 28 33 32 26 28 31 35 39 35 34 36 43 59 65 63 55 50 55 55 58 64 69 69 70 74 82 83 77 82 94 99 98 83 72 65 65 59 65 65 61 63 65
31 27 25 27 25 27 28 38 30 29 31 32 37 38 36 32 40 56 66 71 72 70 61 61 63 64 69 65 61 66 78 81 84 85 98 99 95 73 54 58 54 57 61 65 59 58 60
32 28 26 28 24 27 26 27 34 34 32 29 33 39 37 38 39 49 60 75 82 78 74 61 58 64 57 62 61 69 78 78 92 91 94 98 78 73 68 62 59 63 61 64 62 58 59
32 28 26 28 24 27 26 27 32 35 33 25 24 38 40 41 42 50 60 71 77 86 91 86 77 63 65 65 69 78 80 85 95 96 98 91 77 75 66 62 60 60 62 65 63 63 62
31 30 27 27 24 25 24 26 30 33 32 30 18 33 40 41 46 52 64 69 75 85 96 99 88 70 70 71 75 74 80 82 91 98 98 89 79 73 71 66 64 64 58 60 64 66 70
31 30 28 27 23 24 21 22 27 31 32 29 21 30 38 43 46 52 62 70 72 83 96 97 96 93 80 82 71 77 76 85 91 88 95 94 80 74 74 63 67 65 58 54 57 65 65
32 31 29 26 23 23 22 23 26 27 31 27 31 26 37 41 46 50 59 67 70 74 93 96 92 94 89 84 83 88 92 92 95 97 96 89 84 82 78 70 70 66 62 62 68 74 79
33 32 31 25 24 22 22 24 23 23 27 27 28 28 37 40 45 48 53 61 62 70 81 88 92 90 97 95 84 92 95 93 94 98 98 97 92 84 81 75 71 69 66 84 89 90 77
33 33 31 27 24 21 22 23 22 22 24 27 23 34 37 42 43 48 51 55 61 70 84 88 95 97 88 93 97 97 95 88 78 87 87 86 92 83 75 74 73 73 65 77 85 86 77
33 34 31 28 24 22 23 23 22 22 22 26 24 35 37 41 42 47 49 54 57 63 72 79 76 91 95 86 90 93 90 88 80 74 82 79 84 79 76 74 76 80 80 70 73 72 78
33 35 32 29 26 23 24 23 21 21 22 24 28 36 38 43 41 45 45 53 59 59 67 74 75 75 92 91 86 79 79 78 80 76 73 75 82 82 82 82 83 88 84 84 86 77 79
34 35 34 31 28 25 25 23 21 19 20 22 32 38 42 47 48 44 48 51 56 54 60 66 66 66 73 76 82 78 72 68 70 70 63 62 64 79 83 82 86 91 87 80 77 77 74
35 35 35 33 30 29 26 23 22 19 20 23 32 43 47 52 54 47 50 49 50 56 58 61 65 63 64 66 71 75 78 73 67 69 78 79 84 82 78 82 87 88 84 78 87 80 78
37 37 35 35 33 29 27 24 24 22 21 24 33 43 54 55 61 59 50 53 54 55 55 53 55 56 57 58 64 67 70 73 74 77 81 83 85 91 87 78 84 87 85 83 82 82 81
36 37 38 38 33 30 27 25 25 24 23 26 33 43 52 55 61 64 65 55 59 54 56 53 51 51 52 56 55 62 63 67 72 71 71 72 81 79 83 74 75 83 85 84 84 87 79
35 40 41 38 33 30 28 27 26 25 23 27 30 40 48 61 67 67 71 63 59 60 57 57 55 54 53 52 54 61 63 65 63 64 69 68 74 80 76 76 79 80 84 83 82 80 85
37 43 43 39 34 31 30 28 29 27 24 25 34 38 38 46 68 74 68 74 67 62 58 62 59 59 56 57 55 60 60 61 60 60 61 66 75 70 74 70 67 67 70 77 76 77 75
39 44 44 39 36 34 31 31 32 32 29 26 29 37 47 52 62 76 79 71 69 67 59 60 62 60 58 59 58 58 56 55 54 57 61 59 64 70 71 63 61 60 54 58 62 64 65
40 46 43 42 36 35 36 36 35 35 34 33 32 32 39 50 56 67 78 78 72 68 67 63 60 60 58 58 60 61 61 63 61 56 60 61 61 66 75 70 69 46 49 47 47 48 51
42 43 43 43 40 38 38 38 40 39 33 29 28 25 28 39 52 62 72 75 71 68 69 65 65 58 59 58 61 66 67 62 66 68 62 60 64 68 73 74 56 50 52 52 53 49 46
44 44 43 42 40 40 41 42 42 38 32 35 34 32 30 33 39 63 72 77 76 80 72 72 74 67 61 61 65 70 72 65 71 69 67 70 64 65 74 72 69 56 53 51 53 56 46
41 43 39 38 39 38 39 41 44 39 34 37 40 40 37 38 32 40 63 76 70 85 80 82 77 73 70 73 74 77 71 64 73 71 71 73 77 73 71 74 57 44 56 55 62 57 54
43 38 37 38 37 39 39 41 41 39 40 43 42 45 47 53 47 40 36 63 78 78 86 86 90 82 77 78 78 76 74 69 66 66 69 72 78 78 70 70 64 50 53 62 63 66 58
37 38 37 38 38 38 40 40 43 38 39 44 44 49 53 56 58 60 54 44 58 71 83 86 96 93 91 82 78 80 76 76 71 74 68 71 64 68 66 61 52 57 55 57 61 67 68

GFSGBSN_prec_cthk_069.txt.gz
RH
28 29 27 29 28 31 34 39 34 29 30 33 32 37 34 36 44 46 47 50 56 67 76 77 74 75 73 62 57 73 63 78 80 80 71 73 52 45 56 64 65 78 85 86 89 91 89
28 28 28 28 31 30 33 35 31 27 31 33 36 36 35 35 39 45 49 58 52 48 53 67 74 70 65 69 60 58 66 68 71 77 68 77 55 45 54 63 62 66 74 83 83 88 88
29 28 26 26 30 31 33 35 25 25 30 34 37 38 35 33 34 40 47 51 49 51 62 63 64 65 66 67 61 58 60 64 67 67 72 75 70 46 53 59 65 66 72 79 81 86 90
31 29 26 25 30 29 32 36 28 25 28 33 37 42 37 36 36 45 54 53 54 50 56 64 70 64 64 68 67 63 64 74 60 66 76 87 88 51 55 56 62 73 77 80 77 85 89
32 29 27 25 29 28 27 32 35 32 28 30 38 41 39 35 39 48 54 61 54 52 49 52 56 62 64 69 70 71 81 81 73 70 78 92 98 69 57 58 62 74 78 73 79 80 81
33 30 28 25 28 27 28 30 33 37 36 31 29 40 41 39 39 51 58 61 61 61 56 60 59 67 73 74 73 73 87 86 77 63 88 94 99 81 71 63 53 51 62 65 69 72 77
34 30 27 26 27 25 30 24 30 37 39 37 20 30 41 42 42 49 57 65 76 76 69 55 67 65 75 74 73 82 87 95 74 75 85 95 97 75 55 56 50 49 58 66 65 66 72
34 28 28 26 26 24 26 24 26 34 38 37 30 22 40 42 46 50 57 60 73 77 79 67 55 62 63 62 66 78 89 84 81 85 88 98 92 85 73 65 55 56 63 65 64 70 71
35 28 29 27 25 23 23 22 22 30 34 36 35 19 36 41 45 52 62 59 67 83 91 90 75 59 57 61 66 75 79 82 85 90 88 94 93 82 78 69 60 61 59 62 63 69 71
35 29 30 28 25 23 22 22 23 26 29 32 30 22 35 40 45 52 63 60 69 74 95 98 90 69 68 65 65 75 80 88 93 89 91 96 91 82 81 72 62 64 63 62 64 70 76
36 31 31 30 25 23 21 20 23 24 25 30 27 29 33 40 44 51 60 62 70 79 92 98 90 86 77 76 72 82 75 83 93 98 99 96 87 82 79 72 63 61 63 66 65 69 69
34 32 32 31 26 24 21 21 23 23 24 27 25 30 32 43 46 49 56 62 70 74 92 99 95 91 86 86 83 75 86 87 95 98 98 96 88 86 80 73 64 62 67 68 69 68 72
34 33 32 30 28 25 21 21 23 22 23 25 23 30 36 45 47 49 54 58 66 76 82 96 94 90 85 86 87 82 83 87 95 98 98 94 93 86 79 73 69 67 68 81 81 79 69
34 33 33 29 30 26 21 22 22 21 20 24 23 30 39 43 47 48 51 52 63 70 80 90 96 93 84 86 91 89 74 89 95 97 98 96 98 90 82 70 68 72 66 72 73 76 66
33 33 33 31 31 29 23 23 22 22 19 22 26 32 40 40 48 48 49 51 55 63 71 78 85 89 91 95 92 83 88 84 74 86 88 93 93 88 84 76 69 75 74 62 65 66 76
34 33 32 33 32 31 25 23 22 22 20 21 29 37 40 43 48 47 49 52 55 58 64 69 78 78 85 85 92 91 90 85 79 87 80 76 86 83 82 77 74 74 70 73 71 71 75
36 33 32 35 35 33 26 23 23 23 20 23 31 41 45 47 49 50 50 53 52 55 58 66 71 73 78 80 77 75 78 77 74 74 73 70 69 79 77 73 69 75 74 71 74 70 67
35 33 33 36 38 33 28 24 24 22 22 23 31 39 48 48 48 53 49 50 53 56 60 62 67 66 67 72 75 72 71 70 72 74 75 70 70 76 80 75 71 74 73 75 82 75 73
35 33 33 37 40 34 32 25 25 23 23 24 30 36 44 49 52 53 55 53 54 56 57 59 60 60 58 64 70 75 71 67 66 66 68 70 77 81 79 77 81 82 77 79 77 78 75
36 34 36 39 39 35 33 28 27 24 23 26 30 38 39 44 52 56 58 64 56 55 57 55 55 57 57 58 60 64 72 76 77 73 76 78 83 80 79 61 62 77 81 85 81 82 76
37 36 37 38 37 35 33 29 30 27 24 28 28 32 39 47 52 60 63 63 60 57 58 59 56 57 56 55 58 63 66 67 73 74 75 77 83 86 82 80 79 74 74 82 84 78 80
37 37 37 38 37 33 34 34 32 30 26 26 28 32 34 39 50 58 65 67 68 59 60 64 62 61 58 57 54 62 64 65 67 66 68 74 80 76 82 76 72 74 74 79 81 81 81
38 38 39 38 36 33 38 35 33 31 27 26 25 28 36 44 52 62 66 72 72 70 59 62 64 63 60 60 59 58 58 59 58 60 65 65 70 73 72 71 68 63 59 66 73 71 69
38 41 40 40 35 36 40 35 35 30 27 28 28 24 26 35 44 57 64 72 81 78 67 64 62 60 60 60 59 59 59 60 62 60 60 65 65 64 72 68 72 50 50 48 50 50 53
40 42 44 41 36 36 39 36 34 31 34 35 32 29 26 27 33 41 59 72 79 77 70 67 66 62 61 61 62 64 66 64 65 67 65 62 66 69 71 73 59 48 51 52 53 47 45
45 46 45 40 38 36 38 38 37 35 34 36 38 37 39 33 29 30 44 65 80 83 74 72 71 68 63 64 64 64 68 64 68 67 67 71 69 68 73 73 68 54 54 53 54 57 50
46 46 44 40 36 36 36 36 35 32 37 38 40 41 43 42 40 35 34 42 63 78 80 81 78 77 72 71 70 71 68 63 70 70 72 71 74 78 77 76 60 52 54 55 63 54 57
45 46 41 36 34 35 36 33 34 30 34 37 38 44 49 48 48 48 43 32 38 67 82 88 88 85 80 80 78 74 73 68 68 67 70 71 74 80 80 80 72 56 59 56 61 65 57
48 43 35 34 33 34 33 33 34 28 29 34 35 43 50 50 53 54 56 52 45 42 71 80 92 93 91 89 81 79 78 77 74 75 69 70 66 70 70 68 57 58 59 56 57 61 62

GFSGBSN_prec_cthk_072.txt.gz
RH
29 31 27 27 32 31 31 33 26 22 24 31 35 35 35 34 35 36 43 45 49 46 43 51 73 73 71 72 63 74 69 75 92 90 72 80 66 52 57 59 61 60 83 87 87 88 87
31 31 28 27 31 32 31 30 33 27 24 26 37 39 39 36 37 39 42 44 45 45 45 50 56 69 68 74 70 66 77 77 89 91 78 85 69 53 54 59 63 63 64 79 93 90 89
34 32 29 25 27 31 29 31 32 35 31 28 31 39 43 40 38 44 49 46 50 50 53 47 53 56 64 65 66 70 73 81 83 84 89 80 80 57 52 60 67 68 73 82 89 95 93
35 34 30 26 25 27 31 31 32 34 37 35 30 35 44 46 42 47 53 55 52 54 55 50 51 54 56 67 68 67 69 75 73 83 85 85 93 66 55 57 65 77 72 84 88 89 94
36 35 30 26 26 26 30 31 29 32 35 41 37 28 41 48 45 49 56 57 56 57 55 50 47 49 58 69 70 68 68 66 68 80 84 85 97 79 60 60 71 79 77 72 80 79 83
37 35 30 27 26 25 26 30 28 30 34 38 39 32 34 47 47 49 58 62 67 64 62 57 54 54 63 68 67 69 70 70 76 79 88 93 98 86 63 58 58 63 72 64 68 68 71
38 36 30 29 27 26 23 30 30 31 32 36 39 39 28 45 46 50 56 67 75 78 74 64 59 58 65 67 68 72 89 89 81 89 84 91 98 82 55 49 50 54 58 65 62 65 69
38 38 31 31 28 26 23 27 28 30 31 32 38 39 23 44 42 50 55 66 71 76 80 75 60 57 59 58 67 84 93 91 90 84 85 97 97 90 70 53 48 52 55 57 64 72 73
39 38 32 32 30 26 23 22 28 29 30 29 36 35 20 39 41 50 57 64 71 81 86 83 67 57 57 55 69 86 92 97 86 81 85 93 96 90 76 67 55 53 53 57 69 75 75
39 37 33 33 31 26 24 22 25 29 28 28 30 28 24 38 45 50 59 64 72 78 93 95 82 66 62 65 66 82 84 90 79 84 84 94 94 92 79 75 63 61 53 56 65 69 79
38 37 34 33 32 27 25 22 25 27 24 24 27 25 31 38 46 50 57 62 72 83 94 97 89 83 69 70 68 71 77 78 79 90 83 92 91 94 90 80 69 63 60 58 64 72 69
38 37 33 34 32 27 26 23 25 24 22 22 25 22 35 39 47 48 56 60 71 76 93 97 96 93 81 73 72 73 82 87 88 84 81 95 94 95 87 83 73 65 68 67 72 73 81
36 34 32 34 31 28 27 26 25 23 22 21 23 25 37 40 48 49 55 60 66 75 82 87 93 95 92 82 78 85 76 71 74 81 83 96 98 96 86 86 76 67 70 84 85 85 79
37 34 34 34 32 31 29 28 25 22 21 21 22 31 35 42 48 48 52 56 64 69 80 84 84 88 92 84 84 86 82 84 92 98 93 98 98 96 85 82 79 71 68 75 73 78 70
39 36 35 34 33 33 31 28 25 23 21 21 25 34 37 43 48 48 50 53 55 63 70 78 79 84 86 77 75 84 86 89 96 97 94 96 95 93 86 81 72 74 76 65 65 63 66
38 37 36 35 33 34 32 28 26 24 21 23 27 35 41 45 48 50 53 52 55 58 65 72 79 79 88 81 77 77 80 80 83 94 85 84 90 85 82 76 72 70 67 73 71 69 67
38 39 36 34 34 36 31 28 27 25 22 24 31 38 42 48 49 50 53 53 55 59 60 67 72 73 76 82 76 73 73 76 74 78 73 77 76 88 85 80 77 74 75 71 68 64 61
38 40 35 34 36 36 31 28 27 25 23 25 31 40 46 49 50 51 52 52 53 57 63 66 68 69 72 70 69 67 69 70 72 74 77 75 76 85 81 77 75 74 71 66 71 68 67
39 38 36 34 36 35 30 28 27 27 25 25 32 39 42 48 49 52 54 56 59 57 60 65 65 60 63 70 75 70 68 68 71 74 78 74 77 83 85 76 75 74 70 69 68 68 70
39 37 36 34 35 33 31 28 30 29 26 26 32 42 41 46 49 54 58 61 64 61 61 61 62 61 58 64 67 72 70 68 66 68 68 67 70 68 72 63 67 74 69 69 74 73 71
38 37 37 35 37 33 31 32 32 30 26 26 29 36 42 46 49 52 58 65 68 71 60 61 61 61 60 60 62 67 73 77 76 74 70 69 75 79 81 79 75 71 67 71 75 70 78
39 40 40 40 37 35 33 34 34 30 24 23 27 30 32 33 46 54 56 65 74 70 63 68 66 66 59 58 58 62 67 67 70 76 78 78 82 81 88 87 85 81 75 77 73 76 75
43 41 41 42 38 37 37 36 35 27 23 24 23 24 29 37 42 51 56 65 73 75 71 63 70 67 66 63 61 61 61 63 64 67 69 69 73 77 78 77 75 73 68 69 72 72 75
46 43 43 42 41 37 37 36 34 28 29 24 23 22 21 30 38 45 52 63 71 76 78 70 65 62 64 64 61 62 63 62 62 62 61 64 68 69 72 66 74 55 58 59 59 59 62
49 44 43 45 42 37 39 36 35 29 29 27 28 29 25 26 30 32 40 53 71 77 85 75 72 68 64 60 64 66 68 66 67 68 67 66 68 75 76 74 56 47 53 56 58 53 51
52 45 48 45 39 37 38 38 37 30 30 29 32 34 31 28 29 27 31 38 57 76 83 84 75 74 67 62 61 62 68 65 71 70 67 71 73 74 77 76 65 50 57 54 55 59 58
44 50 48 42 38 39 38 39 39 30 31 31 33 37 37 34 36 34 29 30 36 55 76 83 80 78 74 71 66 68 69 60 67 72 71 72 73 77 81 83 67 54 51 55 62 55 58
54 48 47 41 39 39 39 41 37 31 28 30 31 38 40 39 40 42 42 39 31 35 54 77 84 88 86 80 77 74 71 63 61 64 69 71 74 77 78 80 79 60 63 62 58 56 56
51 49 45 43 40 39 39 37 35 30 29 28 31 37 42 43 44 48 50 48 49 49 39 51 83 94 91 87 84 83 78 74 71 73 69 73 67 69 68 66 59 62 65 63 60 58 58

GFSGBSN_prec_cthk_075.txt.gz
RH
37 31 32 29 27 33 28 32 31 33 33 30 26 32 34 37 34 35 37 44 43 45 48 49 49 61 78 76 70 72 68 67 89 96 84 81 82 55 54 56 61 65 72 84 87 85 83
36 32 33 30 27 30 29 31 30 31 32 36 35 29 33 39 38 37 45 43 50 51 51 53 56 57 72 74 71 66 75 81 93 97 82 84 87 62 56 56 59 59 67 75 83 93 91
37 34 33 31 29 29 27 31 28 28 31 34 38 33 28 39 43 41 47 55 54 56 53 50 52 51 58 70 67 71 77 84 82 92 83 84 90 69 60 60 63 60 62 71 80 88 94
40 35 34 32 30 29 29 29 29 30 31 33 35 37 28 34 44 43 51 53 62 61 56 52 48 45 56 64 64 63 74 81 89 90 89 86 89 75 65 62 68 63 68 68 67 77 94
43 37 36 32 31 30 28 29 30 30 31 32 33 38 37 29 43 44 53 58 62 64 57 51 46 45 56 67 65 64 67 76 95 89 89 93 94 82 67 63 73 71 67 65 71 74 82
46 41 37 34 32 31 29 26 29 28 31 32 32 37 39 24 42 47 56 58 65 68 61 54 48 49 61 67 66 61 65 75 85 88 93 92 95 94 72 64 59 63 72 67 62 66 72
51 43 38 36 32 31 29 25 28 30 30 31 32 36 39 25 41 45 53 58 69 76 69 59 54 56 61 68 67 66 69 73 76 91 95 92 97 93 71 60 50 56 61 69 64 69 72
55 43 40 38 33 32 29 25 27 29 30 30 32 35 35 25 40 43 49 61 67 74 75 69 61 51 56 60 66 77 81 80 82 90 95 96 97 95 85 60 54 56 63 68 69 68 70
56 45 41 38 33 32 30 26 25 26 28 28 31 32 28 31 37 43 51 56 66 76 81 85 75 58 57 62 76 96 95 86 92 90 95 92 90 95 86 72 58 56 57 63 62 69 73
53 48 42 38 34 33 29 27 25 26 24 26 28 27 25 33 42 44 52 56 64 74 87 91 83 68 60 72 89 97 97 87 93 89 97 92 98 97 90 75 56 57 51 52 55 64 74
54 49 42 38 34 33 30 28 27 26 23 23 22 26 25 36 42 43 51 55 65 73 86 97 93 73 64 74 77 89 91 83 96 89 93 97 94 97 90 77 66 56 51 53 56 62 67
57 50 42 36 34 33 31 29 30 27 23 22 22 23 30 39 44 45 49 56 67 74 87 95 97 79 60 63 67 75 85 87 79 77 89 96 96 97 84 86 68 58 57 60 63 64 73
57 50 41 37 35 33 32 31 30 26 24 22 22 28 35 41 44 46 49 56 63 74 79 90 93 91 80 74 71 71 79 81 77 84 96 97 95 97 92 89 79 67 63 78 77 79 74
57 49 40 38 37 33 34 31 29 26 24 23 25 32 38 42 45 47 50 52 60 72 78 86 84 88 86 80 82 71 74 79 77 80 87 95 98 97 91 91 80 72 65 65 69 73 67
59 45 38 38 37 35 34 31 29 27 25 25 28 35 42 44 46 49 51 55 55 66 78 85 84 84 83 82 78 84 80 78 72 74 80 91 98 94 91 86 80 77 79 62 64 64 63
64 44 36 38 37 37 35 30 27 27 26 26 32 38 44 46 49 51 53 54 57 62 71 79 81 80 84 77 76 79 76 82 96 87 78 82 93 94 91 84 83 78 65 70 64 66 63
70 46 36 38 36 37 34 29 25 26 26 27 35 39 44 48 50 53 53 55 57 57 64 74 78 75 81 84 83 81 82 77 92 96 84 78 84 96 89 86 83 81 76 70 63 60 57
77 48 38 36 36 38 33 30 26 28 26 28 37 42 45 48 51 54 53 53 53 58 62 68 72 77 73 74 76 73 76 76 74 79 81 87 85 96 92 80 78 76 71 67 69 66 64
83 49 39 34 35 37 34 33 30 29 27 27 35 41 43 47 50 52 54 56 55 57 60 65 66 64 69 75 74 74 71 72 75 77 77 78 84 90 88 82 81 80 77 69 66 66 66
85 52 39 34 34 38 36 34 34 30 27 27 32 40 42 47 48 52 55 57 59 58 59 62 64 62 61 64 69 72 72 73 76 80 77 76 78 74 76 68 71 78 74 74 72 74 64
87 57 41 37 37 39 36 38 34 30 24 26 27 33 38 44 47 50 54 58 62 65 64 59 58 65 63 64 65 68 73 71 72 73 74 73 76 73 68 68 72 75 73 70 69 65 66
89 63 43 39 39 37 38 38 35 28 24 24 24 28 28 30 42 49 52 60 67 71 67 62 62 63 62 61 64 65 67 70 75 73 73 73 75 71 72 76 80 82 78 75 71 68 60
92 67 48 44 42 38 40 38 35 30 26 26 24 24 27 33 35 45 48 57 68 71 72 67 66 66 65 65 60 61 63 64 63 66 72 74 77 78 77 74 74 74 70 73 71 67 67
93 69 50 50 46 42 39 38 37 32 30 29 26 23 24 32 36 40 43 51 64 72 73 74 71 66 70 66 67 63 63 63 63 63 63 65 67 68 72 66 75 54 58 61 63 61 63
91 69 55 52 44 41 39 38 38 34 33 33 32 27 22 31 30 34 39 45 51 65 77 82 78 73 68 64 66 66 65 62 65 68 65 63 65 70 72 75 59 49 53 54 59 59 58
88 69 55 49 44 41 39 37 38 33 33 34 30 30 26 27 30 26 28 32 39 54 66 77 81 74 71 67 63 61 69 63 66 69 71 73 72 73 79 79 66 48 54 53 55 58 60
83 59 54 51 46 42 38 38 38 34 34 31 30 31 27 31 34 32 30 27 30 38 50 63 72 80 72 76 70 63 59 62 66 66 68 74 73 73 74 78 67 58 57 58 62 55 58
80 70 53 53 45 41 39 39 38 32 34 31 33 32 30 33 36 37 39 39 37 29 34 47 62 75 82 81 79 71 65 63 62 60 62 65 75 77 78 83 76 58 66 69 60 58 59
80 58 58 49 43 38 39 39 36 33 34 33 35 32 32 35 38 41 44 44 41 40 42 35 59 71 82 91 87 84 79 76 69 68 64 67 65 71 70 68 60 59 63 65 66 63 62

GFSGBSN_prec_cthk_078.txt.gz
RH
39 37 33 33 29 30 29 30 31 29 28 28 34 35 29 31 38 39 36 37 48 49 49 46 45 44 51 75 80 77 74 65 76 90 94 99 93 67 59 57 62 64 69 80 76 76 75
46 42 36 34 30 31 29 26 31 29 27 29 31 33 36 28 37 40 38 49 48 54 56 51 46 44 50 68 70 69 66 71 90 98 95 98 96 73 58 56 60 64 69 80 75 72 73
54 47 42 36 31 32 30 29 28 28 29 29 31 34 37 31 34 41 43 48 58 59 59 53 46 41 49 58 70 67 67 80 92 98 95 98 95 80 61 58 62 65 65 79 77 77 81
62 50 45 39 34 32 31 29 26 28 29 29 33 34 37 37 31 42 45 57 60 61 61 58 49 41 48 55 63 65 73 83 94 98 94 95 94 88 67 58 61 60 62 86 81 86 88
63 55 50 43 37 33 33 30 25 27 28 29 33 33 36 39 29 42 45 54 60 62 63 57 50 45 52 62 62 62 73 86 86 95 89 96 98 96 72 61 67 67 55 55 76 79 88
64 55 55 44 39 35 33 31 26 26 29 29 30 31 35 38 28 42 46 51 60 67 68 58 51 48 57 66 63 60 70 85 91 94 90 98 98 96 78 67 63 59 65 66 59 65 66
62 53 57 47 39 35 33 32 27 25 29 29 29 31 34 37 31 43 47 51 61 74 77 65 59 51 56 60 62 59 71 84 91 96 93 93 94 86 70 58 58 66 71 73 61 59 58
60 62 59 49 39 36 34 33 28 27 30 30 29 30 32 32 36 42 43 51 58 68 78 77 69 55 51 52 59 65 67 81 89 96 97 97 96 89 76 65 57 62 66 64 67 59 59
63 64 59 47 40 35 35 33 28 29 31 29 29 27 29 34 35 41 42 50 57 67 78 83 74 59 61 61 75 88 74 85 87 91 97 95 97 90 82 68 56 58 56 60 60 64 62
70 65 60 46 40 34 35 33 30 30 29 28 26 24 26 34 38 42 45 51 58 65 80 87 75 62 73 76 86 98 82 82 89 95 96 92 96 96 87 73 55 54 51 52 53 57 60
76 66 59 47 40 34 34 33 30 30 27 24 21 24 26 34 39 43 44 50 58 65 77 89 81 60 66 81 90 97 91 89 87 96 88 95 95 96 86 80 65 49 46 48 49 51 55
78 71 59 49 40 35 34 33 31 29 25 23 22 24 31 36 41 43 45 50 61 70 82 85 87 66 61 65 81 83 96 97 96 93 92 95 95 97 84 84 69 47 48 51 56 59 59
84 77 60 50 41 35 34 33 31 27 25 23 23 30 35 39 40 42 44 52 65 69 74 82 84 76 72 63 73 83 94 88 89 97 99 97 97 95 89 85 73 56 50 65 70 68 55
84 79 65 50 39 36 34 32 32 27 24 25 28 33 37 40 42 42 46 50 63 69 78 77 84 81 77 70 76 79 82 82 85 88 91 96 98 97 86 83 71 65 48 53 54 56 48
86 84 71 51 38 36 34 33 31 26 24 26 31 36 41 41 44 44 47 54 57 66 75 78 79 85 85 81 75 71 69 72 76 83 92 90 92 95 88 84 79 72 64 51 53 53 50
89 86 75 50 38 36 34 34 30 26 24 27 34 38 42 44 47 47 48 50 57 61 73 78 76 76 69 75 82 83 67 65 69 76 81 79 90 92 92 89 82 78 65 64 62 63 50
93 86 78 52 40 36 36 36 30 27 26 28 36 40 43 45 48 48 50 51 55 58 66 76 77 80 74 79 73 80 81 78 80 79 77 75 78 94 87 88 81 78 72 70 63 58 47
94 89 81 53 41 37 36 36 31 29 27 32 36 41 44 46 49 48 46 48 52 59 64 73 77 77 77 78 74 74 76 79 94 88 83 73 76 93 93 83 81 78 72 66 65 65 58
92 93 87 53 41 37 37 37 33 29 27 30 37 40 46 47 49 47 47 51 55 57 62 69 70 70 74 75 76 75 71 72 77 81 80 77 78 89 94 84 79 76 71 68 66 64 64
94 97 92 56 41 38 40 38 36 30 27 27 33 41 43 47 47 47 48 51 54 57 59 60 64 61 62 66 71 72 73 73 71 76 78 80 77 74 73 70 68 74 69 68 68 75 59
95 97 93 64 43 41 42 41 37 31 25 27 28 35 37 43 43 44 47 52 55 57 58 60 58 60 60 58 60 67 71 71 74 80 74 76 82 73 66 64 70 69 68 67 71 63 61
92 98 94 75 44 44 44 44 39 30 26 28 27 28 31 34 39 42 45 52 57 60 61 59 58 56 54 55 55 59 64 73 73 71 73 72 80 80 79 72 71 71 65 65 65 62 58
99 97 94 81 44 44 45 45 38 32 29 27 25 25 26 31 34 39 41 46 56 60 64 63 61 59 61 61 59 59 59 61 64 70 75 74 72 74 72 69 67 63 61 66 65 65 59
99 98 94 83 51 43 45 46 40 34 31 28 24 24 26 30 32 34 37 41 47 59 62 67 69 63 67 65 63 62 61 59 58 61 63 67 69 71 70 70 73 53 54 55 60 60 57
99 98 94 83 56 53 52 47 40 34 32 31 27 24 23 28 30 33 35 38 42 52 62 68 77 75 68 67 65 61 62 65 64 62 62 59 62 66 65 61 50 45 52 53 53 51 55
97 98 94 82 58 52 51 43 42 34 33 31 30 26 22 23 22 24 28 31 34 41 49 59 70 77 76 71 67 63 63 60 62 65 64 66 65 64 67 69 57 45 54 52 52 53 55
97 98 92 80 56 50 51 48 43 34 35 31 33 30 27 28 28 26 25 25 26 31 39 50 55 71 78 79 74 66 55 57 57 59 61 66 69 70 66 65 51 51 55 57 60 56 53
98 97 90 68 50 49 47 45 38 34 35 34 36 31 28 30 33 34 33 33 31 25 29 38 52 63 73 78 79 70 65 56 53 52 55 56 60 61 64 68 63 51 57 59 56 60 60
97 95 78 69 54 53 48 39 37 33 34 36 36 33 31 32 36 38 40 37 34 32 34 30 49 58 68 71 78 84 77 72 64 60 60 62 57 57 58 58 54 54 56 57 58 61 64

GFSGBSN_prec_cthk_081.txt.gz
RH
60 47 49 42 37 33 32 30 28 29 27 27 28 31 31 35 29 37 42 43 43 48 52 53 49 44 45 53 70 84 78 78 77 81 94 89 88 80 66 66 58 63 66 70 78 81 66
62 62 53 49 41 37 32 31 30 28 27 28 30 32 31 36 31 34 41 43 53 51 55 55 50 43 46 56 63 78 74 77 81 93 97 93 95 88 66 61 65 57 66 75 70 68 67
65 65 61 57 46 39 35 33 31 29 29 29 30 30 33 37 36 32 42 48 51 55 59 59 51 47 45 49 56 70 75 73 80 97 97 95 93 97 75 61 64 74 72 74 74 68 73
74 65 60 58 47 43 37 34 32 28 29 30 30 30 33 36 37 31 43 48 56 56 62 63 57 50 52 46 55 67 70 71 78 96 99 96 97 96 82 72 68 73 72 80 83 73 82
75 72 64 56 48 49 38 35 33 29 31 31 29 30 32 35 37 32 43 47 51 57 64 61 57 52 58 52 62 60 62 72 84 92 98 97 98 97 83 77 79 81 72 73 82 81 78
84 77 67 53 52 51 40 36 34 29 30 32 30 29 31 33 36 35 42 48 53 62 69 64 58 53 58 65 62 55 60 69 87 91 98 98 98 98 88 75 74 68 64 68 75 81 78
88 80 72 57 53 52 41 36 35 30 29 32 29 29 30 33 34 39 42 48 60 73 75 70 66 55 53 56 59 66 66 76 89 96 98 97 97 98 76 67 53 54 56 61 62 74 72
89 82 76 57 53 51 41 35 35 31 29 31 28 29 30 31 35 40 42 50 58 66 71 70 61 58 51 49 54 67 71 84 88 98 97 98 97 96 79 73 76 66 64 66 61 64 63
90 84 79 60 56 50 40 35 35 31 30 29 27 28 29 30 36 40 44 49 54 58 70 75 58 62 62 69 73 60 76 85 92 95 95 95 95 92 85 71 73 67 58 64 60 62 58
90 86 81 67 58 50 41 34 35 32 29 25 23 23 25 30 39 43 46 47 54 62 79 80 60 68 68 75 97 81 77 84 92 94 95 90 95 86 82 68 61 72 65 60 62 65 58
91 88 85 74 59 52 43 35 35 32 28 24 22 22 22 32 41 44 44 48 53 63 76 84 66 56 70 87 93 86 81 85 93 91 91 94 91 89 83 69 64 66 59 55 56 60 58
93 88 89 80 62 54 42 36 35 32 27 23 22 23 28 34 41 42 43 49 57 74 78 81 69 57 66 85 86 81 92 94 94 97 93 94 95 94 88 75 73 57 53 53 51 54 61
98 88 91 84 66 55 41 36 35 32 25 23 25 28 32 37 42 41 44 54 68 72 72 75 68 60 58 76 84 86 96 96 93 95 96 96 98 94 91 82 70 58 50 62 65 67 55
94 90 93 85 73 53 39 37 35 30 25 24 29 31 36 37 40 41 49 53 67 71 77 73 71 68 59 67 81 72 78 85 86 94 97 97 97 97 91 84 76 63 54 51 56 51 45
97 90 91 88 78 51 38 37 35 30 25 27 31 35 38 38 42 43 50 58 60 70 71 75 72 78 68 64 65 67 73 83 87 89 87 90 97 92 92 88 75 71 64 58 57 54 54
98 90 90 91 81 49 39 38 35 30 27 30 35 39 39 40 44 44 50 53 57 59 67 71 73 68 70 57 58 66 69 68 75 78 80 83 96 95 88 85 72 75 67 57 57 59 46
99 90 93 92 82 49 39 39 35 30 28 30 38 42 40 41 46 46 53 52 53 54 63 69 70 63 57 67 56 58 61 66 70 73 73 78 83 94 85 89 83 74 72 62 58 52 50
99 95 93 93 80 53 39 40 34 32 28 31 39 43 41 43 47 46 48 48 49 54 61 64 67 62 64 63 70 73 67 74 79 72 72 71 78 93 87 82 82 81 73 68 66 60 50
99 94 91 96 78 56 38 40 36 34 30 32 40 41 43 43 46 45 45 50 52 54 57 63 61 61 62 65 68 65 70 71 77 76 78 69 77 89 92 84 80 77 72 69 66 71 71
97 99 93 96 86 57 38 40 39 35 29 32 38 42 42 44 44 45 46 49 51 52 55 57 58 57 59 61 66 67 66 70 75 77 78 75 74 74 76 74 70 75 70 68 71 79 63
98 99 99 97 89 61 39 42 41 37 28 31 31 37 37 42 39 40 44 49 50 51 52 55 59 59 58 58 59 65 68 68 69 75 75 76 81 74 69 68 71 70 66 65 72 67 65
98 99 99 96 93 63 43 45 42 36 30 30 30 27 32 32 35 37 41 47 51 53 52 55 57 56 56 57 57 58 63 71 69 74 77 74 85 80 78 69 69 68 63 59 60 61 61
98 99 98 97 95 68 47 54 45 34 31 29 26 24 26 30 33 35 37 42 50 54 56 56 55 55 57 59 55 56 57 58 64 73 72 71 73 72 73 68 64 61 54 52 52 56 58
97 99 98 96 93 67 50 53 50 33 30 27 24 25 27 28 30 32 33 36 42 51 56 57 59 58 59 59 58 55 54 54 53 56 61 67 71 71 70 63 67 47 46 44 45 51 56
99 98 96 98 90 71 52 59 52 35 32 29 26 24 26 29 30 29 31 33 38 47 52 56 62 62 65 61 61 60 57 54 53 53 54 55 58 64 67 63 50 42 42 44 46 43 46
98 98 99 97 90 71 70 73 50 34 33 32 30 25 26 26 27 27 30 31 35 42 47 49 53 59 66 67 64 61 59 55 58 58 57 59 60 61 63 66 60 46 50 49 47 47 49
98 97 99 97 90 68 68 69 55 36 34 34 33 27 28 25 24 24 24 26 28 35 41 43 47 55 60 65 72 69 61 58 57 57 63 64 68 69 66 68 52 47 49 52 58 58 56
98 95 95 95 93 77 65 67 53 40 34 33 33 31 32 29 30 29 27 26 25 26 31 38 46 52 56 63 68 74 71 66 61 52 50 51 57 60 58 65 60 46 50 52 54 55 55
98 99 97 96 88 69 57 55 46 45 37 34 35 33 32 32 35 35 33 30 29 31 29 33 45 46 53 62 65 72 72 71 61 63 61 60 51 54 56 57 52 49 51 54 55 54 56

GFSGBSN_prec_cthk_084.txt.gz
RH
77 73 64 61 55 51 44 35 33 32 28 28 29 33 33 33 36 29 34 41 42 39 45 52 52 51 51 56 76 60 83 85 78 79 78 97 88 93 81 67 66 76 73 78 81 89 73
82 79 73 69 57 57 48 41 36 34 30 31 30 32 32 33 36 33 32 38 45 48 49 56 53 50 55 62 61 59 78 81 74 75 81 96 94 84 84 69 71 68 72 79 80 90 97
81 81 78 76 62 57 50 47 38 35 31 31 33 30 31 32 34 34 29 39 47 55 54 58 54 52 50 61 52 58 80 75 68 92 80 92 98 94 96 74 69 73 68 78 83 84 91
86 85 83 81 74 63 52 51 40 36 34 31 33 29 28 31 33 35 28 39 46 55 58 57 54 47 53 53 48 63 78 80 73 85 94 89 96 97 90 77 67 82 76 75 76 87 88
91 89 87 87 82 67 54 53 42 36 34 31 32 29 28 30 32 34 32 39 45 52 57 56 48 55 70 55 61 60 69 65 71 78 96 98 96 97 94 85 81 77 84 71 75 81 81
89 91 90 90 86 68 57 54 43 36 35 31 30 29 29 30 32 32 38 40 45 56 60 64 59 59 70 62 58 57 64 62 78 82 93 98 97 98 92 85 88 78 83 74 68 76 82
88 90 92 90 88 72 57 58 43 36 35 31 30 29 29 31 31 33 39 41 56 70 66 63 57 56 59 54 48 59 60 63 87 89 97 98 97 93 89 62 65 65 62 66 62 71 85
90 90 99 92 90 78 63 57 43 36 35 32 29 29 29 31 31 36 40 46 58 65 68 64 54 57 54 56 53 64 62 74 88 97 98 98 98 95 88 79 70 71 67 76 78 74 74
91 91 91 92 92 80 65 56 45 36 36 32 26 25 27 30 32 36 41 46 54 54 71 71 55 60 64 78 87 69 69 82 92 97 99 98 98 92 88 80 82 71 67 89 82 82 79
88 95 89 95 93 84 70 54 48 36 36 31 23 23 24 28 37 39 42 46 49 59 76 74 61 62 77 89 87 79 80 88 92 97 96 96 95 90 88 78 71 73 65 66 71 68 70
89 94 88 99 91 88 76 55 46 37 36 29 23 22 24 33 38 39 43 44 49 66 73 76 63 59 83 90 85 79 82 87 88 89 94 97 93 92 87 82 78 78 67 66 62 67 67
90 90 94 99 92 92 82 55 43 37 36 27 23 24 30 35 38 41 41 44 56 76 74 70 61 67 78 77 79 78 84 93 96 92 93 97 89 83 80 79 77 84 79 70 63 64 77
92 87 97 98 93 94 85 57 40 37 34 27 25 29 34 39 39 39 43 50 68 68 66 69 59 65 70 78 86 85 92 92 98 95 91 87 85 81 81 76 68 69 72 84 81 77 69
95 90 98 98 94 94 86 57 37 37 33 27 29 33 35 36 37 40 46 52 60 63 70 67 59 60 68 70 75 74 79 81 80 84 90 93 93 89 84 81 72 66 59 69 64 68 53
98 92 98 99 96 94 88 53 37 36 33 31 33 36 38 38 39 42 48 55 58 65 64 67 63 56 58 58 61 71 74 78 81 83 90 89 91 90 85 86 75 63 68 62 64 51 63
99 94 97 99 95 95 91 48 38 36 34 33 37 40 40 39 41 44 48 50 54 59 63 62 69 62 47 48 59 69 74 70 74 73 79 77 90 91 92 89 81 78 68 69 68 68 55
97 95 98 99 95 97 89 45 39 36 35 35 39 41 41 41 45 47 52 48 49 54 60 64 59 61 48 51 57 64 68 70 68 68 74 78 80 92 92 91 84 85 84 72 62 58 68
95 98 97 97 95 98 82 44 39 35 35 36 41 43 41 41 47 45 47 43 45 51 59 59 60 54 59 53 59 62 60 70 71 67 69 72 81 90 85 83 79 75 78 70 77 66 55
97 96 98 97 98 99 71 50 40 35 36 38 40 42 42 42 48 45 43 45 46 51 57 59 56 56 57 59 67 61 63 65 68 69 68 67 77 90 87 82 77 84 76 74 72 71 68
96 97 99 97 98 98 65 58 39 37 37 38 40 42 43 43 44 47 43 45 49 49 52 55 54 53 54 57 57 58 61 64 67 69 70 70 69 70 84 77 76 78 74 74 79 88 74
97 98 98 99 98 93 70 62 40 40 36 39 38 43 36 40 40 41 44 44 46 49 51 52 53 52 50 50 53 61 61 63 65 69 69 74 77 72 71 67 74 75 70 70 75 68 75
96 98 98 99 99 92 76 60 40 41 36 38 33 34 36 38 35 37 42 44 44 50 50 53 54 50 50 52 52 54 55 61 61 69 72 70 85 79 74 67 69 70 66 65 64 62 66
95 96 99 99 99 93 86 49 44 44 36 36 33 28 29 32 34 37 38 42 44 48 50 55 53 51 51 53 50 53 54 55 62 68 68 68 70 71 75 68 67 67 60 60 58 56 56
99 98 99 99 99 92 85 52 54 48 35 37 27 26 29 30 32 36 39 38 42 45 48 52 56 57 55 50 51 51 52 54 55 59 59 63 68 72 77 67 71 52 50 49 48 48 49
93 92 98 99 99 92 85 60 55 47 34 31 27 26 29 29 31 33 34 35 37 42 46 51 55 57 57 57 55 56 57 54 55 55 55 58 63 68 73 72 58 49 47 47 45 42 40
97 98 98 99 97 92 84 73 61 47 34 31 28 25 28 29 31 29 31 33 36 40 45 46 49 54 56 59 61 63 66 60 66 57 53 59 64 67 68 72 63 52 53 52 48 52 50
96 98 99 99 97 92 84 78 88 48 37 33 29 26 28 28 29 30 30 32 31 35 40 44 47 52 54 58 59 62 64 63 63 58 62 64 65 67 70 75 62 51 52 54 59 59 58
96 99 98 99 97 89 78 87 81 47 36 35 33 29 29 29 29 29 27 27 28 30 35 39 45 50 53 57 59 61 60 62 64 58 60 69 68 66 65 69 68 52 52 53 59 61 61
98 99 99 99 96 85 81 90 77 53 37 35 32 32 32 31 34 34 32 29 26 28 30 36 43 47 52 56 57 59 59 58 58 64 68 74 65 68 68 68 65 64 60 56 57 59 61

GFSGBSN_prec_cthk_087.txt.gz
RH
84 85 84 81 77 74 67 58 49 45 35 36 40 36 38 32 31 34 30 35 36 39 35 43 49 48 51 54 57 60 59 75 87 88 85 85 95 91 81 62 70 82 93 86 90 91 85
77 89 87 86 81 79 77 66 59 49 38 36 39 39 36 34 31 34 34 29 37 44 42 51 49 48 45 51 57 53 54 81 91 88 89 84 95 92 90 74 69 61 86 81 89 88 86
65 74 92 88 88 85 84 79 63 52 41 37 40 39 36 32 31 34 36 27 39 45 51 51 51 42 43 50 56 52 63 88 84 78 94 93 96 97 99 90 62 63 76 83 89 85 89
60 64 72 92 92 89 89 85 65 55 44 36 38 40 36 31 30 32 34 29 38 44 53 50 47 44 46 56 53 54 69 80 83 72 90 95 98 98 98 92 65 69 79 90 90 89 90
58 62 68 72 94 93 93 87 69 54 46 35 37 39 35 31 31 33 28 36 38 43 49 50 45 53 60 59 62 58 66 71 72 76 85 97 97 94 98 93 80 78 83 82 90 85 91
53 60 67 70 87 91 91 88 80 58 46 34 36 38 34 30 32 32 33 36 36 47 56 61 57 60 62 66 57 55 65 68 72 82 84 95 94 94 98 96 86 78 80 83 76 83 88
53 54 65 70 79 94 93 90 84 60 49 34 36 38 32 30 32 32 35 40 48 59 61 59 51 57 64 67 53 53 57 61 76 85 93 93 94 95 95 89 84 71 67 77 76 76 91
56 57 53 71 77 98 97 92 87 61 50 34 36 35 32 30 32 34 37 42 48 57 66 66 52 60 72 79 82 59 54 64 82 95 92 91 93 92 93 89 82 74 77 78 77 80 79
59 54 63 64 79 98 96 94 88 64 49 34 36 32 31 30 31 34 38 43 48 50 66 66 60 65 81 86 77 61 58 77 90 98 99 86 96 93 92 82 79 78 79 80 79 88 85
55 65 67 64 76 98 97 93 89 68 48 34 34 29 27 31 36 38 40 43 44 51 70 67 65 76 89 96 79 71 80 91 96 98 97 91 89 90 88 79 71 77 72 73 74 78 95
62 67 66 69 73 96 99 95 91 72 46 35 31 28 27 34 36 38 40 39 43 60 66 66 62 72 80 82 77 78 86 85 96 97 98 99 94 91 89 81 76 71 69 74 91 85 88
59 63 66 72 77 96 98 97 93 74 43 35 30 29 31 36 38 38 38 37 50 64 69 59 62 72 80 85 84 88 93 90 96 94 95 95 92 89 91 84 79 73 72 78 86 83 81
60 69 78 80 83 95 98 95 96 74 40 34 32 32 35 35 37 35 38 45 57 61 64 55 61 64 69 82 90 84 87 91 90 86 97 90 96 90 84 80 83 91 82 95 93 87 75
70 72 78 98 91 94 99 96 96 71 39 33 37 35 36 35 35 38 43 48 54 55 60 52 55 59 65 69 74 78 88 84 77 81 80 80 80 85 83 84 88 90 75 79 80 79 66
77 85 94 97 91 95 99 96 95 64 39 34 40 38 36 35 36 40 45 48 55 58 58 53 51 55 56 59 61 65 68 72 74 77 77 82 81 76 78 76 78 80 79 66 69 60 67
87 97 99 99 93 96 98 96 94 51 39 38 40 40 38 37 38 42 45 44 52 57 56 54 56 54 47 52 56 61 60 61 64 70 72 72 85 80 76 70 68 70 67 69 75 72 63
97 97 99 99 96 98 98 98 90 43 38 43 42 42 40 39 41 44 45 44 47 53 53 52 53 48 44 55 56 57 62 58 59 62 70 70 73 84 79 78 74 67 69 65 66 70 68
98 96 98 99 96 99 97 97 79 42 36 45 43 45 42 41 43 43 46 42 43 50 53 54 54 52 48 50 57 60 62 67 63 59 67 69 76 80 82 78 78 80 76 70 75 63 62
96 95 96 99 97 99 99 96 59 43 36 45 43 44 44 43 45 43 42 43 44 48 51 52 53 53 54 59 60 57 66 66 66 61 63 65 75 83 82 80 77 76 75 80 75 71 70
98 98 98 99 98 99 98 91 48 49 39 45 40 45 48 47 45 43 41 45 47 48 48 49 49 52 54 55 59 59 64 64 67 67 61 57 64 69 75 73 75 76 73 74 78 83 68
97 96 98 98 98 99 98 78 59 48 42 48 40 42 37 42 44 40 38 41 46 47 47 46 47 50 51 54 57 59 59 62 63 66 69 71 76 71 68 70 76 79 74 77 82 73 76
98 98 97 98 98 99 96 74 75 45 44 47 39 42 40 37 37 41 39 41 43 45 46 46 47 47 48 52 53 54 56 60 62 66 70 74 85 84 81 74 72 73 73 73 71 69 71
96 98 96 95 95 99 91 76 77 45 44 45 37 35 35 38 37 40 39 41 41 44 46 48 47 47 50 54 54 53 51 53 56 65 71 74 77 77 79 68 69 71 65 66 66 66 67
97 96 99 95 98 98 89 82 69 43 47 38 37 35 34 36 37 36 36 37 42 45 46 46 47 48 50 47 49 49 50 52 54 58 60 61 63 67 73 66 72 53 52 54 60 59 58
97 96 98 97 98 98 93 91 54 51 44 40 38 35 33 33 34 35 39 39 41 44 45 47 49 51 50 51 54 56 55 52 52 54 56 53 55 59 64 66 54 45 49 52 53 51 47
94 96 98 98 98 98 95 80 55 64 40 37 40 35 32 30 33 33 37 36 39 44 45 46 47 49 51 54 54 58 62 58 64 62 57 56 57 63 68 70 65 53 54 55 54 54 54
92 97 98 98 97 96 94 80 74 57 45 39 32 31 29 28 32 31 33 34 33 38 43 44 44 49 48 54 57 58 58 53 63 63 68 65 66 71 73 77 66 55 53 54 57 54 58
89 92 97 98 98 96 93 88 86 58 42 39 34 30 28 29 34 31 29 31 32 34 39 38 44 47 51 53 52 55 57 54 55 53 60 61 68 73 78 80 81 66 66 64 61 58 58
91 95 96 99 98 96 95 96 97 76 46 40 36 33 33 28 33 32 30 30 32 34 36 38 40 44 45 49 51 55 58 57 52 53 51 56 54 59 61 66 64 63 62 69 75 75 75

GFSGBSN_prec_cthk_090.txt.gz
RH
51 54 58 67 79 83 90 90 87 82 70 56 38 35 41 39 43 38 38 33 36 36 42 34 43 46 48 45 42 45 48 42 52 75 87 94 84 73 76 62 70 69 87 89 91 80 82
47 53 57 60 68 76 82 92 91 88 81 59 43 33 37 39 38 36 37 36 30 40 50 43 47 48 46 42 45 50 45 51 82 89 91 90 78 75 87 72 75 55 77 91 97 90 84
46 48 57 62 63 69 73 85 92 93 88 66 46 33 36 39 37 34 36 35 29 41 48 50 49 49 44 45 53 50 49 65 85 88 85 97 88 96 90 70 69 63 73 81 85 97 90
45 45 50 58 66 70 70 75 93 94 91 79 51 33 35 39 37 34 34 31 35 40 48 48 51 46 45 54 55 56 57 72 77 86 82 95 97 92 94 80 77 74 79 95 90 96 95
50 55 47 53 63 70 69 72 85 95 91 85 55 34 35 37 36 34 32 35 36 38 45 49 50 51 53 63 65 57 59 70 75 82 83 91 97 98 88 86 87 79 87 91 96 94 96
29 44 55 51 54 68 69 73 82 95 95 85 59 36 35 34 35 32 34 35 34 43 55 62 56 56 59 70 68 55 58 64 75 74 90 94 97 98 88 87 93 81 87 82 94 97 93
21 24 36 52 46 56 76 68 80 91 97 87 60 37 35 32 30 31 34 37 44 52 60 60 49 53 65 73 67 49 57 60 76 82 88 95 88 88 95 98 86 68 72 77 82 86 87
19 13 14 35 56 55 62 75 91 96 98 90 61 38 35 31 28 34 36 39 46 53 61 53 55 64 81 77 68 59 58 72 95 95 86 88 89 94 94 95 88 77 70 74 76 78 80
22 18 17 25 49 58 64 69 91 96 98 92 62 39 33 30 30 33 36 40 45 50 54 51 59 68 77 77 63 66 75 91 97 90 91 83 86 90 96 87 86 76 68 67 86 93 85
21 23 22 18 42 61 61 72 84 94 98 91 64 39 32 33 33 34 37 40 43 47 53 52 62 72 75 73 74 82 87 97 97 91 93 90 81 81 97 87 76 78 68 65 79 94 99
28 26 28 23 42 58 73 71 88 97 98 90 65 38 32 33 33 36 37 39 40 50 50 51 59 69 77 76 76 78 91 96 96 81 82 98 92 88 87 86 78 79 76 76 83 89 97
47 44 34 33 50 68 69 77 77 96 99 89 62 36 33 35 32 35 37 36 46 48 57 56 58 66 71 75 78 85 95 97 91 82 83 88 92 89 87 81 78 82 85 87 88 95 96
59 56 46 44 55 65 67 79 81 98 99 87 56 36 38 36 32 34 34 42 47 51 50 52 58 63 65 72 81 87 90 94 92 79 86 84 89 85 80 77 75 76 87 98 98 98 82
81 64 53 56 62 67 74 82 81 98 97 82 50 38 42 35 32 34 39 48 47 42 52 52 53 54 60 63 68 80 82 92 82 81 84 95 92 87 88 87 86 79 83 87 93 88 72
96 95 78 69 75 72 87 85 90 96 93 75 46 42 43 35 33 39 43 48 42 40 43 50 50 52 49 56 63 65 70 80 79 80 79 82 85 86 87 89 93 82 79 68 76 72 72
96 97 80 70 77 78 86 90 97 98 89 72 41 46 41 35 36 43 45 45 46 42 39 44 51 46 46 50 56 58 59 63 70 68 67 65 77 75 79 83 81 79 71 66 70 68 63
97 98 88 85 85 84 99 98 99 96 85 62 41 47 42 38 40 46 46 47 46 43 37 44 50 49 45 49 52 55 64 59 63 68 67 66 67 72 68 72 79 75 71 68 65 65 61
95 95 77 82 88 96 98 99 98 92 78 53 46 49 42 40 45 45 45 43 44 44 44 43 47 47 47 47 49 53 60 62 60 61 68 68 73 79 74 69 67 67 73 71 72 67 69
87 87 87 92 92 97 98 98 97 89 62 45 51 48 46 44 44 44 43 43 45 44 44 45 46 47 47 51 56 61 64 61 61 57 64 66 74 79 77 73 71 73 70 68 71 70 73
88 98 98 98 97 99 99 98 96 82 58 41 46 50 50 49 46 44 42 43 47 46 45 44 43 46 46 50 48 54 59 58 62 62 58 59 67 67 76 71 74 74 70 72 78 83 70
88 97 98 99 91 98 98 99 92 60 57 44 43 42 39 44 44 44 40 40 45 47 46 47 46 47 47 51 52 56 58 58 58 60 62 63 68 67 68 67 73 74 73 68 72 71 76
91 97 98 98 99 98 99 97 81 57 50 47 43 41 39 37 39 44 42 40 41 43 44 46 47 47 46 50 50 53 57 56 55 57 57 62 72 69 68 64 65 68 69 72 73 73 74
91 97 98 98 98 98 98 92 65 68 49 50 41 39 36 39 42 44 40 39 39 40 45 44 45 46 47 47 48 50 51 49 51 55 60 62 65 66 69 63 61 66 64 68 70 69 67
96 97 96 97 99 97 94 91 86 61 52 51 40 37 38 40 41 40 38 37 40 41 44 46 46 46 46 45 46 49 50 50 50 52 55 58 60 60 66 60 67 53 53 53 57 58 57
95 97 98 97 99 99 95 96 95 69 54 52 42 38 36 40 39 38 40 41 42 42 46 49 48 48 46 45 48 51 54 50 50 51 53 55 59 61 63 64 53 46 45 47 46 49 53
89 96 98 98 98 98 97 94 85 62 58 50 45 38 39 37 38 37 40 39 41 45 47 50 49 50 48 49 50 52 57 52 57 55 53 54 58 62 68 70 65 50 50 48 45 49 48
85 92 96 95 98 99 97 95 75 59 62 48 48 46 40 35 36 37 40 39 39 41 46 46 47 50 47 50 53 53 52 49 57 58 60 60 61 61 65 67 61 53 55 57 60 53 51
76 91 94 95 97 98 98 94 65 70 49 45 44 53 44 36 36 35 35 36 35 37 41 42 47 47 50 51 50 50 50 49 49 51 55 53 57 59 63 65 63 49 50 51 50 54 59
83 89 93 93 97 98 98 88 81 78 47 49 45 37 36 32 38 35 34 35 34 35 37 40 41 44 46 47 48 50 51 52 49 49 46 50 48 49 52 52 50 50 50 52 52 52 53

GFSGBSN_prec_cthk_093.txt.gz
RH
40 40 43 50 64 63 63 74 74 81 85 90 87 83 66 35 35 39 41 44 37 38 42 46 34 42 48 50 41 41 45 45 45 50 57 66 66 81 80 68 61 61 61 72 95 92 94
41 37 38 44 49 62 68 66 78 69 85 86 90 83 78 45 36 39 41 44 38 34 44 49 44 48 49 46 41 45 49 46 54 71 80 83 74 83 87 76 65 52 61 73 84 95 95
32 36 38 42 44 53 62 67 74 75 79 85 88 86 80 53 38 39 42 41 35 33 43 52 49 52 47 39 49 53 52 50 66 86 92 90 96 94 78 74 66 60 69 70 87 95 98
23 22 33 32 44 45 53 64 71 83 89 89 93 90 83 60 38 39 44 38 33 38 43 49 49 48 43 51 59 60 57 60 77 85 89 89 97 96 84 78 73 64 75 79 91 96 96
25 22 22 25 27 44 47 56 73 71 72 85 93 93 84 60 39 37 42 36 36 36 42 48 47 50 52 59 66 69 58 62 73 88 90 93 94 86 86 92 85 71 83 74 89 94 96
30 26 25 23 21 24 42 43 59 82 82 89 91 96 89 61 41 36 41 37 33 40 50 51 50 56 55 59 66 64 53 62 70 80 91 96 98 97 95 95 89 66 88 83 84 97 96
23 23 26 31 21 20 19 44 45 75 87 87 98 96 91 60 39 35 41 35 37 48 52 42 49 51 59 59 56 46 49 60 68 84 94 94 92 97 98 86 83 57 68 82 85 94 95
22 22 23 22 31 21 18 28 47 61 88 91 97 96 90 61 37 38 40 38 43 44 42 46 50 57 61 67 52 54 61 71 87 88 87 94 98 92 95 97 76 65 70 77 87 93 89
37 30 29 25 23 23 18 20 45 56 79 96 96 98 88 60 36 40 37 37 43 41 43 47 52 54 60 66 76 83 88 92 86 88 91 92 89 83 81 82 77 67 72 69 83 94 91
49 46 47 37 29 26 21 18 40 58 75 91 97 97 84 57 38 41 36 38 41 37 43 44 53 61 66 69 75 88 91 91 92 92 93 94 91 94 96 83 70 70 73 68 74 89 93
71 67 59 53 44 29 24 19 42 62 84 87 97 95 82 54 41 38 35 39 37 41 37 39 52 59 66 79 88 90 86 85 89 93 90 93 96 98 97 89 77 72 69 71 76 89 95
92 77 70 64 51 34 29 21 47 69 81 99 98 94 76 50 42 36 37 36 38 41 34 47 50 56 65 81 93 95 83 76 82 96 95 91 90 95 94 82 77 74 75 80 83 85 96
94 89 98 94 69 49 38 29 58 76 87 99 97 92 72 45 41 35 35 39 44 37 38 45 52 56 69 78 82 85 78 81 88 86 93 93 92 90 89 80 83 86 84 95 93 95 88
96 94 98 97 75 61 46 42 61 86 91 98 96 91 71 45 40 35 36 48 40 37 44 45 51 57 65 69 75 75 72 75 79 76 83 89 90 92 87 90 93 92 81 85 91 89 78
95 93 98 98 83 65 50 67 73 91 98 97 96 90 68 46 37 35 41 51 34 37 37 44 48 55 55 60 69 68 72 79 85 87 83 89 91 86 86 83 85 83 84 76 78 75 74
92 92 91 93 85 69 59 73 75 91 94 95 93 88 56 48 38 41 46 46 40 34 36 37 45 48 50 52 57 63 67 71 74 73 74 74 87 86 84 90 85 74 71 77 80 80 63
85 87 83 96 87 68 82 68 86 96 93 97 92 86 52 45 42 45 48 47 39 35 34 38 43 49 50 51 53 57 61 60 63 65 63 62 65 79 77 80 86 75 69 66 68 70 66
81 72 81 85 72 66 69 81 92 94 97 96 89 70 52 44 46 46 46 46 41 36 38 38 41 44 46 48 50 55 57 58 56 60 62 62 68 78 76 71 75 76 78 72 72 67 69
77 69 69 80 69 68 79 86 96 97 96 94 89 56 55 47 46 45 43 47 43 40 40 42 41 43 45 48 54 58 58 56 54 55 59 59 66 73 70 67 65 65 64 69 67 67 70
76 71 75 76 74 66 77 94 98 98 96 89 65 58 55 50 47 42 44 49 49 44 42 41 37 41 43 47 49 56 59 57 56 54 53 56 61 58 65 62 66 69 69 69 68 73 68
71 69 71 71 70 80 91 96 98 97 94 82 46 51 42 46 45 46 44 47 47 46 44 40 38 39 40 48 47 53 55 54 53 54 53 53 60 61 61 64 67 68 69 68 71 70 75
70 79 83 88 94 97 98 98 98 96 93 69 49 43 40 39 40 47 46 46 46 45 42 41 41 44 43 47 46 50 50 51 48 52 53 56 65 60 61 61 60 61 61 62 65 67 66
74 97 96 97 98 98 98 99 98 96 80 56 49 37 33 40 42 47 44 44 46 45 44 42 43 45 45 45 43 44 44 46 47 51 54 57 61 62 64 61 57 58 52 56 59 61 61
81 97 98 98 98 97 96 98 97 84 68 56 44 39 35 42 42 43 43 42 45 45 44 44 43 44 45 44 43 43 43 44 47 50 52 55 57 58 62 52 53 42 44 45 47 46 49
88 98 98 98 97 98 96 97 90 85 64 57 44 37 34 43 42 42 43 44 46 46 48 47 45 45 44 45 47 47 48 45 48 49 49 48 52 56 57 58 47 40 40 42 42 42 43
82 97 97 97 97 98 98 96 95 83 64 60 42 37 34 38 43 42 43 44 46 47 50 50 48 47 47 48 47 48 53 46 50 50 49 50 52 52 60 61 56 41 46 44 42 48 47
77 88 95 96 97 98 97 97 96 83 63 69 41 39 37 36 40 41 42 44 44 45 48 49 48 48 46 48 51 51 49 47 53 53 52 54 55 57 59 58 49 43 43 42 48 44 48
71 85 94 95 96 97 98 96 94 80 63 67 45 41 41 38 41 39 39 41 41 41 44 44 47 47 50 49 48 49 48 47 46 47 50 50 55 55 57 59 56 42 41 44 48 45 47
74 81 90 93 92 96 98 96 83 75 71 57 56 48 44 37 42 41 41 42 40 40 39 43 41 44 44 46 46 47 47 48 46 48 44 48 43 47 48 46 43 45 46 51 52 50 50

GFSGBSN_prec_cthk_096.txt.gz
RH
36 35 34 34 36 38 42 47 60 67 71 84 80 90 95 91 85 81 51 38 40 44 48 50 49 37 41 50 49 48 46 47 43 45 51 52 50 56 55 60 70 66 52 50 48 66 80
28 29 30 31 33 30 37 40 48 61 75 80 88 81 97 97 92 82 51 40 45 46 43 49 50 47 47 50 41 44 49 50 50 57 60 70 75 66 70 60 77 63 54 54 51 59 88
36 32 30 26 23 27 32 31 41 50 64 68 96 96 98 98 93 84 57 47 45 42 42 49 56 47 43 40 45 49 57 57 55 65 75 87 94 92 73 75 66 75 69 56 56 59 89
36 35 33 34 33 25 24 27 33 39 51 71 74 83 92 96 93 86 57 50 41 45 43 50 49 39 38 41 48 60 67 62 58 74 83 90 93 99 93 85 83 80 77 70 54 72 92
39 35 35 34 33 31 27 24 19 33 45 61 78 94 98 93 93 84 57 48 47 43 42 40 38 39 44 49 52 60 73 59 60 73 88 96 94 97 91 97 95 90 75 69 64 68 95
32 28 25 23 22 24 26 27 24 16 45 50 73 99 99 98 92 83 61 46 46 40 39 38 41 49 47 52 52 58 48 49 60 74 86 98 98 94 94 98 90 88 72 64 65 81 94
30 28 25 23 21 21 24 28 24 20 24 48 65 90 99 98 92 81 57 43 44 44 40 35 41 47 54 66 60 56 49 49 58 79 91 98 99 94 77 86 85 85 66 61 69 81 87
40 41 42 37 34 30 26 23 23 23 18 46 57 76 99 97 93 78 49 46 45 35 37 40 48 54 62 73 79 78 73 74 76 79 82 92 95 89 93 91 89 81 73 70 79 82 91
55 59 59 58 52 46 37 30 28 21 19 42 56 75 99 97 92 74 47 49 44 34 41 43 52 62 74 77 80 81 85 81 77 77 85 91 93 88 96 92 93 72 73 75 76 82 95
74 79 82 77 77 69 54 41 33 25 18 38 59 74 98 96 91 69 48 48 41 35 42 37 49 62 77 79 74 76 77 79 86 92 97 99 90 91 98 87 80 69 63 68 76 97 92
89 94 90 78 77 69 62 55 41 28 18 42 64 73 98 95 88 61 47 45 36 33 30 35 49 65 76 80 82 76 82 87 91 95 98 96 95 90 92 85 76 65 66 66 79 84 87
96 90 91 89 84 88 78 63 46 35 20 47 66 93 98 96 81 56 48 40 33 39 29 40 49 63 71 72 75 72 80 89 96 94 96 98 96 97 86 73 67 67 75 80 82 77 83
96 92 91 94 89 94 96 72 48 37 28 55 73 95 98 93 80 52 46 37 44 37 34 42 53 62 67 70 69 73 77 90 93 85 87 94 93 91 90 80 76 72 73 90 86 83 82
93 91 90 94 90 91 91 70 57 37 42 62 87 98 97 95 79 51 38 42 46 35 44 46 54 59 66 65 63 65 73 78 80 80 87 88 97 96 88 91 93 85 73 77 81 82 75
88 91 95 92 92 94 92 79 60 39 54 81 94 98 97 92 75 48 39 50 38 35 37 46 50 55 58 60 64 66 75 82 82 78 75 86 96 90 90 91 93 92 79 64 72 72 80
80 90 94 78 85 95 87 74 50 53 65 85 97 99 98 92 70 43 43 48 42 33 36 40 44 48 54 56 60 62 67 68 73 71 70 76 87 88 89 84 82 82 76 77 75 72 63
81 82 81 72 86 87 77 62 47 61 95 97 98 98 98 86 60 44 47 47 40 35 35 38 43 48 49 50 53 59 62 62 66 65 66 65 73 85 82 92 82 78 75 71 69 68 66
80 77 75 77 84 72 72 58 58 75 96 98 98 98 98 78 53 47 47 46 39 36 39 40 41 42 46 46 51 56 58 63 65 65 66 66 73 82 87 84 80 72 69 58 64 64 70
75 68 67 90 89 60 58 58 64 93 97 96 98 98 97 66 50 48 45 46 41 38 38 41 42 43 44 45 50 55 57 55 58 61 64 59 66 74 72 67 65 66 68 66 62 61 63
66 71 88 86 71 56 43 57 81 94 97 94 97 97 84 56 49 43 46 46 46 38 37 41 40 41 44 46 49 54 57 55 53 55 58 57 61 57 64 62 64 64 63 64 61 67 63
61 79 88 69 61 51 58 77 95 98 97 96 96 92 63 50 46 45 45 45 46 43 40 41 40 40 41 45 45 50 53 52 52 52 51 52 63 63 60 60 60 60 60 60 62 61 65
77 91 81 72 71 70 86 93 98 98 96 95 87 65 45 41 42 47 46 46 46 43 41 40 39 40 41 44 43 47 49 48 48 49 50 52 60 55 58 58 57 55 54 55 58 60 63
74 87 77 73 75 80 94 98 98 97 96 95 79 47 36 43 45 47 46 44 44 43 44 40 40 43 44 44 42 42 44 45 46 47 50 51 54 55 60 55 50 52 49 52 55 54 53
75 88 82 75 84 91 97 97 98 97 96 88 57 41 37 45 44 46 43 41 43 43 45 44 42 42 43 43 40 40 40 43 45 47 48 50 51 52 56 44 41 37 38 39 41 41 42
81 83 82 95 97 97 97 97 97 96 92 70 47 39 39 42 43 44 43 42 44 46 47 47 46 44 44 43 44 44 45 41 44 47 45 46 47 50 50 51 39 37 38 39 38 40 42
76 81 87 92 97 97 97 96 93 94 83 56 44 38 38 39 46 44 43 41 44 46 48 48 48 45 43 45 43 44 47 43 45 45 44 45 46 47 51 52 44 34 41 40 37 41 47
66 75 85 89 93 96 96 95 95 89 77 55 39 36 37 41 44 43 44 43 43 45 48 49 48 47 44 45 47 47 45 42 48 48 48 49 51 54 54 54 46 39 40 39 43 38 44
60 75 80 84 89 95 96 93 92 84 71 54 40 36 35 37 44 42 41 43 43 42 45 46 48 47 49 46 45 46 44 44 44 43 45 46 51 52 55 56 51 39 38 37 42 43 41
62 72 77 85 88 92 95 95 93 83 74 51 44 37 35 35 44 43 42 44 44 43 42 45 44 44 44 45 43 44 44 43 42 44 43 46 41 43 44 42 39 40 42 43 44 41 41

GFSGBSN_prec_cthk_099.txt.gz
RH
38 39 36 35 31 30 31 32 30 33 41 42 56 67 76 78 86 95 93 90 76 54 58 61 58 56 50 44 38 43 45 45 42 40 43 46 47 50 49 50 55 69 59 56 49 53 55
41 41 41 39 37 31 28 27 28 29 33 39 46 61 72 84 96 97 94 91 71 60 58 54 62 60 46 39 33 35 39 43 43 48 52 55 57 59 59 53 59 47 58 58 58 53 55
41 40 40 40 41 40 34 28 27 27 26 29 37 50 68 76 89 96 95 91 70 66 54 58 63 50 37 31 32 39 43 48 53 49 56 66 72 83 83 72 51 53 64 71 56 55 60
42 41 41 39 38 36 36 31 24 25 28 25 28 49 59 70 84 96 93 90 70 60 57 56 49 39 31 34 39 43 48 52 48 57 61 68 85 93 93 92 70 66 73 83 51 55 63
49 47 46 39 35 30 28 26 23 22 22 23 22 41 55 69 83 98 94 85 68 64 56 48 38 34 39 44 46 47 48 53 56 56 63 80 92 96 98 98 80 86 80 86 68 51 65
50 47 42 41 40 37 33 28 26 22 19 15 26 36 47 66 88 97 92 82 66 60 48 37 36 46 46 50 52 49 50 45 44 52 68 90 98 97 96 96 79 94 80 78 79 62 60
49 49 48 48 50 48 46 40 34 29 24 13 22 41 54 61 83 97 95 72 61 62 44 34 41 49 49 54 58 53 51 52 48 57 77 93 98 98 92 82 87 99 77 71 68 72 65
49 50 53 61 67 70 67 59 49 41 33 19 20 37 49 58 75 95 95 65 58 48 39 40 45 50 58 56 59 63 65 66 69 72 82 93 96 91 84 81 84 98 80 78 71 77 67
55 57 68 78 87 89 84 78 67 49 44 28 24 42 51 52 71 96 91 62 62 43 39 40 46 54 62 61 62 68 78 82 83 86 94 97 95 97 97 81 93 91 76 80 71 78 75
67 78 95 96 89 82 82 74 68 59 47 35 28 45 53 54 85 96 84 63 58 41 40 36 48 59 65 69 66 73 82 88 94 97 97 95 98 96 96 88 93 84 73 69 70 74 88
73 95 98 98 89 85 84 73 66 59 51 37 29 48 58 55 81 96 73 63 51 38 32 34 47 60 64 69 73 77 86 88 97 98 99 94 98 94 94 82 78 71 77 81 85 75 83
89 98 98 91 84 86 89 82 75 64 53 37 31 50 55 63 97 95 71 60 42 38 28 41 49 63 62 62 68 78 86 91 96 98 97 98 95 93 87 78 73 63 76 87 87 72 78
98 98 96 92 87 91 94 92 85 75 59 40 37 54 58 76 96 90 71 53 45 37 34 43 54 62 63 62 67 75 83 88 94 96 95 98 90 90 89 85 82 75 73 88 78 81 80
98 98 96 89 92 95 97 98 96 78 54 39 54 54 64 91 96 88 67 51 45 33 43 46 55 60 63 64 67 76 82 91 87 88 90 94 98 96 89 89 89 83 74 72 74 81 82
98 97 91 90 94 89 87 92 86 78 49 43 67 61 82 98 97 88 61 52 41 35 40 50 53 56 58 63 68 67 78 84 83 85 86 87 93 95 92 90 84 77 69 60 65 70 79
92 79 87 88 85 80 90 96 77 63 46 62 67 79 92 98 97 79 55 49 47 34 39 44 46 55 57 58 59 62 68 74 76 77 82 83 96 95 92 94 81 79 66 65 70 68 74
68 76 84 85 81 87 91 84 63 62 55 67 76 90 98 99 96 71 53 50 43 36 39 42 43 50 52 54 55 62 68 67 74 74 68 75 82 88 85 93 92 85 75 63 62 60 57
68 79 85 86 93 88 78 71 58 46 57 74 91 97 98 98 91 58 50 48 41 37 40 40 40 44 47 49 55 61 64 66 66 67 67 67 76 87 86 79 78 75 74 63 63 58 60
79 86 93 97 90 76 67 58 46 54 70 78 95 97 98 97 76 50 51 49 41 38 39 37 40 43 44 48 55 58 59 58 59 61 61 58 67 71 70 66 68 69 66 62 59 57 62
87 97 89 81 69 56 55 52 61 78 93 93 94 93 97 91 59 47 51 49 44 38 38 36 37 41 44 48 51 54 55 52 52 54 56 53 59 55 61 58 59 58 60 58 53 55 54
95 90 77 66 50 41 46 66 82 84 94 96 97 96 92 75 51 48 47 45 47 41 38 35 36 40 42 44 45 51 51 49 48 47 47 50 61 60 61 60 58 60 57 56 58 55 54
95 82 76 63 58 47 54 77 78 94 96 96 96 95 81 53 46 47 46 46 45 41 37 36 36 39 41 43 42 45 46 45 46 45 46 47 57 53 57 54 53 54 53 53 53 55 55
77 77 74 66 63 66 77 94 97 97 97 96 92 70 53 45 44 45 43 45 45 41 40 35 35 38 43 44 43 42 42 42 42 44 48 49 50 50 55 49 44 46 44 45 48 49 48
64 68 70 71 69 80 90 93 95 95 95 91 82 56 39 45 43 42 45 44 46 42 40 39 38 41 44 42 41 40 39 40 41 43 44 46 46 48 52 38 35 36 37 36 37 38 38
55 58 64 74 80 89 89 89 91 89 86 80 69 42 38 39 42 46 46 46 46 44 45 42 43 43 44 42 42 42 43 38 41 43 42 41 41 45 45 45 34 35 37 38 36 40 42
43 49 55 71 72 77 82 85 86 85 79 73 50 37 35 36 43 45 46 46 45 45 45 46 45 45 44 43 40 40 42 40 42 42 41 41 41 41 47 46 33 32 38 38 36 39 41
44 56 63 62 67 70 78 82 82 82 73 64 40 33 32 37 42 45 45 44 44 44 46 47 45 45 42 43 44 45 42 40 44 44 44 45 46 48 48 48 41 35 36 36 39 32 39
49 61 61 63 69 73 76 80 80 78 71 53 39 32 30 35 41 41 42 44 43 43 44 44 45 45 46 45 45 45 43 43 43 41 42 42 46 49 52 52 43 35 35 36 36 37 37
53 60 60 63 67 72 74 79 76 73 68 49 39 32 33 33 41 42 42 43 42 43 43 43 43 43 44 45 43 44 43 43 42 42 40 43 38 40 40 38 34 36 36 38 38 37 37

GFSGBSN_prec_cthk_102.txt.gz
RH
46 46 45 44 42 42 42 35 32 30 30 29 31 35 45 51 62 66 78 84 83 91 76 71 74 67 59 51 39 43 43 39 38 36 35 40 40 40 42 46 54 58 52 55 55 49 47
49 49 45 43 42 45 43 41 38 31 28 29 29 30 40 45 56 61 76 85 80 89 79 69 70 63 56 41 35 34 35 38 40 39 43 45 49 53 53 52 53 46 50 51 62 56 48
54 57 52 52 49 49 49 43 38 31 27 25 28 28 36 39 56 57 66 75 85 89 73 66 72 58 47 38 33 35 37 37 41 43 43 49 57 63 68 70 67 54 52 51 56 52 53
59 55 55 57 58 57 50 51 41 33 27 20 22 24 34 42 58 58 66 67 91 78 70 64 61 50 44 36 34 36 39 42 45 47 49 53 59 71 80 80 81 79 63 57 52 64 59
59 60 63 64 63 60 58 47 44 38 28 24 20 20 27 35 52 59 67 73 90 75 72 61 52 48 44 40 40 41 43 43 47 48 48 54 64 76 87 93 95 79 70 59 55 59 58
64 63 63 61 60 55 55 50 48 45 41 34 22 18 23 37 50 63 67 78 80 75 65 51 41 48 48 47 46 45 44 43 45 48 54 64 78 90 95 97 85 71 78 66 59 63 59
71 71 69 64 57 54 56 62 68 63 56 49 30 22 47 61 57 63 63 83 81 70 55 38 40 48 50 48 51 57 56 54 51 50 58 74 90 90 94 91 86 81 77 71 70 60 58
73 70 69 62 67 77 85 84 82 73 75 58 42 30 33 49 71 63 63 82 70 66 49 40 45 52 56 56 59 65 71 74 76 79 81 95 95 92 85 80 84 95 81 76 80 67 57
67 65 62 71 85 95 90 84 76 70 71 64 48 36 40 45 56 56 64 82 74 57 43 41 49 59 61 59 63 73 78 85 88 89 93 97 94 95 86 76 86 90 85 76 83 79 68
63 67 78 90 96 95 93 80 78 76 68 62 52 49 60 55 66 60 72 72 67 52 44 39 52 60 62 66 72 77 82 92 97 97 99 96 93 90 88 81 83 79 76 73 66 66 75
83 93 98 98 98 96 85 80 86 76 70 65 53 59 62 57 52 64 85 72 60 44 46 36 52 58 59 64 71 81 90 97 99 95 94 89 86 80 93 87 83 80 76 74 67 76 78
97 97 97 98 97 98 90 90 90 84 67 61 51 58 62 51 60 66 83 72 51 45 38 46 53 60 57 63 75 83 94 97 98 95 88 93 91 92 87 83 87 88 88 90 82 79 90
97 98 94 98 95 94 91 97 95 93 79 66 49 45 52 51 58 81 86 67 51 46 35 47 55 58 55 67 71 84 89 90 95 97 96 95 97 84 80 78 82 91 96 92 88 87 86
93 94 87 89 89 97 97 97 93 92 84 62 44 57 61 59 71 95 81 55 49 36 45 47 54 54 58 65 72 75 84 85 86 92 92 95 97 98 89 81 78 82 80 75 76 74 77
75 68 66 74 91 97 97 96 96 86 67 48 53 60 61 65 94 93 80 57 48 36 42 48 51 52 58 61 66 68 74 81 82 80 84 87 97 93 91 82 85 76 76 67 66 70 69
81 78 82 84 90 93 89 98 92 71 54 56 67 60 60 78 95 93 70 53 49 37 44 47 45 49 51 55 60 64 70 74 78 81 82 85 98 93 90 79 74 68 67 65 65 65 67
88 89 91 90 92 91 97 86 72 60 48 61 65 61 68 90 98 86 52 50 46 41 43 42 41 48 47 52 56 63 69 69 73 74 77 77 81 95 84 81 78 71 62 59 54 54 49
98 97 91 89 95 92 80 71 69 58 55 63 62 75 96 96 93 72 46 52 42 40 45 40 42 42 44 49 55 57 62 69 66 67 71 74 80 92 89 85 76 70 64 55 56 51 54
78 82 69 59 58 52 55 48 52 56 47 55 87 97 98 95 82 49 48 52 42 39 40 37 41 43 42 48 52 54 56 60 60 61 63 66 68 72 74 73 70 69 64 57 51 50 52
74 64 49 43 42 41 31 30 32 48 63 86 93 94 94 83 64 44 50 49 39 39 39 37 38 42 43 44 46 49 51 50 54 54 55 54 57 55 57 63 62 58 52 48 47 52 42
58 58 46 45 48 44 54 64 72 84 80 86 92 92 82 76 51 45 50 47 38 37 37 34 35 39 40 40 42 46 46 45 45 46 49 50 61 60 56 55 57 54 52 49 51 45 47
53 54 50 48 49 53 59 64 73 83 88 90 93 81 65 50 43 46 50 46 40 37 35 33 33 37 37 38 39 40 41 42 42 41 43 44 55 53 54 50 49 48 46 46 47 47 44
51 49 47 51 59 63 70 79 82 85 88 88 79 67 61 44 42 45 43 44 40 37 35 33 33 34 38 41 40 40 40 39 40 41 42 41 42 42 46 42 38 40 41 41 42 41 40
49 49 53 60 68 74 73 77 79 80 79 78 62 38 34 40 40 40 40 43 42 39 37 36 35 36 41 40 38 37 37 37 37 36 37 37 37 39 38 30 32 34 34 33 33 35 34
45 54 55 62 65 70 72 75 75 70 68 68 56 34 31 34 38 39 41 43 43 41 40 38 40 40 40 39 38 37 35 34 35 36 36 34 33 34 32 29 30 32 32 34 33 36 39
37 44 53 55 59 62 66 68 70 66 66 58 43 31 30 32 36 40 42 41 42 42 42 43 41 41 41 38 35 33 30 34 32 36 36 35 33 30 35 31 23 28 34 34 32 32 38
39 43 50 54 57 61 64 65 68 66 63 54 36 30 32 33 37 40 40 39 41 40 42 43 43 43 40 39 38 35 31 34 33 33 36 37 37 35 34 35 28 28 32 34 33 26 33
39 43 49 53 55 62 65 67 69 66 58 50 36 29 27 32 36 38 38 38 39 40 40 41 42 42 41 39 39 38 36 35 36 36 36 34 35 37 40 40 32 30 33 30 27 31 32
38 44 47 51 56 60 64 67 69 64 59 52 37 27 29 29 36 38 38 38 38 39 40 40 41 39 41 41 40 39 38 38 36 33 38 36 33 32 34 28 29 31 31 33 32 32 35

GFSGBSN_prec_cthk_105.txt.gz
RH
54 56 62 62 61 56 54 51 46 41 37 31 30 31 32 38 44 60 62 68 67 68 75 71 65 70 65 64 53 44 39 37 37 33 35 41 39 39 37 38 46 51 52 54 55 55 58
60 67 69 66 66 65 65 63 54 45 37 37 29 29 30 35 38 51 63 63 64 64 74 69 66 68 64 54 41 39 34 32 33 37 42 41 41 40 40 43 44 42 45 49 54 59 65
69 77 74 74 75 75 72 68 66 56 44 37 31 27 24 36 34 47 60 63 60 74 65 61 64 64 53 50 38 33 31 35 43 43 46 45 45 48 52 54 54 53 56 45 50 58 63
81 82 83 83 78 75 70 78 73 62 52 43 36 25 19 28 52 57 60 70 65 70 56 60 68 58 51 40 33 32 37 42 45 49 48 52 53 55 61 65 65 68 70 69 43 47 57
86 91 87 90 92 92 85 78 72 71 64 51 40 27 18 22 28 50 70 57 58 66 54 62 62 54 45 38 36 39 43 50 55 54 52 56 60 70 74 76 78 77 73 74 63 51 63
89 93 93 95 97 96 93 81 77 69 67 58 43 27 30 18 27 41 59 80 66 61 69 64 54 46 45 45 47 52 53 53 54 57 60 61 68 77 81 93 83 90 87 68 68 55 67
84 89 92 93 91 87 81 82 83 82 80 69 61 36 50 71 43 53 68 69 71 67 70 53 42 45 47 50 53 62 69 69 69 68 74 78 88 83 82 88 92 81 73 71 74 53 79
83 88 93 95 98 97 94 96 97 93 86 69 65 49 55 54 78 75 77 62 65 65 64 49 41 50 53 58 62 70 76 81 80 83 89 95 93 84 93 84 85 94 70 65 65 75 66
97 97 97 97 95 98 97 98 95 92 73 61 55 49 48 42 58 93 74 70 53 63 54 44 44 56 62 68 70 78 82 88 88 96 98 96 88 89 90 72 68 71 71 80 97 67 69
94 93 93 96 97 96 97 94 92 85 78 64 50 54 48 49 49 57 67 80 59 63 48 42 52 61 65 71 79 86 89 89 86 85 91 86 80 83 78 71 64 71 72 89 84 66 69
79 90 88 93 94 98 97 95 86 84 69 58 50 70 88 59 71 63 81 74 70 55 49 42 56 59 66 79 81 89 90 90 80 80 82 77 78 78 80 71 68 72 76 79 85 76 72
80 78 89 85 92 92 92 93 90 88 75 56 56 66 96 55 66 76 79 71 59 47 48 53 62 64 70 77 81 88 92 86 78 78 81 74 75 82 83 78 75 75 81 94 95 89 72
87 72 66 68 77 79 92 93 96 90 78 57 50 63 66 57 72 79 83 68 52 49 38 57 64 62 67 70 75 83 89 93 89 88 83 80 77 77 85 87 92 98 98 95 92 94 70
96 88 69 61 73 89 96 93 87 91 77 55 42 49 51 58 85 83 79 52 54 40 49 55 60 60 64 68 69 75 82 96 91 84 87 86 92 83 85 94 97 98 87 87 94 89 75
98 98 90 78 81 89 93 93 88 76 64 49 43 59 58 72 90 96 74 59 54 45 49 55 56 57 60 60 64 66 76 85 84 85 95 97 89 82 88 86 85 83 77 72 76 67 75
97 91 88 91 77 80 89 84 71 57 45 42 62 64 68 85 98 92 56 56 47 45 53 50 48 51 54 57 60 62 70 80 85 83 87 83 86 77 76 79 79 73 69 72 69 65 70
58 60 61 68 62 62 63 60 49 40 40 49 56 63 77 97 97 83 58 51 45 48 52 47 44 45 47 52 57 60 66 75 78 82 83 85 79 77 76 75 78 66 59 52 52 49 47
47 34 40 41 48 48 44 40 37 37 48 53 53 59 81 97 90 55 47 48 43 45 45 43 41 41 46 48 53 56 64 66 70 77 79 77 77 79 74 69 62 64 58 51 59 44 42
49 29 26 30 29 30 29 25 30 37 45 48 72 85 96 88 71 48 45 45 42 42 40 40 40 39 44 45 50 53 52 59 64 69 75 74 74 79 67 62 56 54 50 48 47 52 51
48 47 40 36 28 26 31 32 41 59 80 84 86 89 81 62 49 44 45 42 37 39 37 36 39 39 40 41 43 46 47 48 55 56 57 58 65 68 71 68 57 54 48 44 50 58 46
55 52 45 44 48 51 55 58 58 67 81 78 76 69 61 54 44 40 45 40 35 36 36 33 35 38 39 38 40 39 40 41 44 48 50 53 58 58 55 55 54 48 45 44 48 46 51
51 54 56 50 51 59 63 66 69 75 79 79 72 53 43 46 37 39 43 40 34 35 36 32 32 36 35 38 38 39 37 37 40 38 44 47 52 50 46 43 44 41 40 41 41 43 44
51 53 57 60 62 65 70 72 73 73 74 73 63 51 42 37 34 37 36 38 35 34 33 33 33 34 36 38 37 36 35 36 38 39 34 35 37 42 44 36 34 36 36 35 36 38 39
45 54 55 57 61 63 64 69 71 69 67 52 39 34 29 33 33 33 36 38 37 34 34 32 33 33 38 37 35 34 34 35 35 35 35 33 33 34 34 29 35 31 30 29 30 31 32
41 46 52 55 56 58 61 61 60 56 52 46 34 28 26 30 30 32 35 38 37 36 35 34 34 38 38 36 36 34 32 33 31 33 32 31 30 30 32 27 26 28 26 28 28 27 28
33 38 44 49 56 57 59 58 58 51 45 41 31 27 27 25 29 32 36 37 35 35 36 36 37 38 38 35 32 32 29 29 28 30 30 30 29 30 30 29 22 27 28 30 28 30 29
27 36 40 46 50 57 59 61 56 53 44 40 34 29 27 28 28 32 37 38 38 36 37 37 37 39 38 36 36 33 30 30 30 30 31 32 30 33 28 30 24 26 29 30 31 30 27
24 31 37 42 47 52 58 59 61 55 45 39 34 28 27 28 30 32 34 36 36 35 35 37 38 40 39 39 36 35 32 33 32 30 30 31 31 31 32 34 32 27 29 28 28 26 27
22 29 39 42 48 50 57 57 61 54 48 43 35 32 29 28 30 31 32 34 35 36 37 37 40 37 42 39 35 33 34 32 31 28 32 32 29 30 29 28 26 26 27 27 28 28 29

GFSGBSN_prec_cthk_108.txt.gz
RH
77 81 78 86 91 92 91 90 88 81 72 62 53 53 40 35 37 46 57 57 63 64 74 73 57 61 50 49 48 45 46 44 40 36 34 35 34 33 35 32 32 37 43 46 45 47 47
91 88 90 95 96 96 95 94 93 83 77 68 58 46 38 36 39 45 55 56 61 63 59 62 62 49 51 50 46 46 46 37 36 34 34 34 35 38 36 33 34 33 36 38 35 39 46
93 97 95 97 98 96 97 96 95 93 89 69 61 49 38 40 43 37 45 64 62 60 60 61 59 47 47 47 47 43 33 31 35 36 35 40 39 39 45 47 47 48 47 45 34 31 33
51 50 64 74 88 97 98 98 95 94 91 73 64 54 39 37 49 64 48 59 62 65 76 59 48 47 52 48 45 35 33 35 37 36 36 39 45 48 51 53 53 58 55 57 39 49 40
56 60 71 82 95 98 98 98 98 88 86 83 72 58 36 27 48 57 78 67 72 67 55 56 55 56 51 46 36 34 37 40 46 44 46 49 57 60 62 68 68 64 65 63 52 59 56
74 78 76 82 90 90 96 98 95 87 92 87 74 55 40 34 27 40 52 73 72 68 63 60 55 50 50 48 40 44 46 49 53 56 57 69 71 79 77 79 72 71 73 89 75 61 66
93 87 84 91 93 88 92 97 89 87 93 86 71 55 46 52 35 36 47 74 84 77 69 56 47 52 46 45 44 52 58 62 67 70 76 78 90 84 78 75 74 78 83 74 65 67 70
95 86 87 86 90 91 95 93 97 92 95 86 68 62 65 95 75 57 74 87 60 61 59 61 50 49 51 51 56 63 66 73 76 84 91 93 89 77 73 78 75 76 78 76 67 63 60
95 86 80 86 92 93 88 85 88 95 92 69 52 56 73 92 93 83 84 88 58 62 59 54 46 55 56 62 66 72 75 79 82 85 88 91 79 78 79 75 68 74 71 70 80 82 67
95 87 69 78 88 90 84 90 90 86 74 59 49 44 52 59 80 97 97 82 68 61 63 47 55 60 64 67 75 77 79 77 81 84 83 80 73 76 72 67 71 80 78 74 81 95 94
97 86 63 65 77 85 80 91 82 71 59 55 49 62 54 55 75 87 94 82 56 60 64 48 60 59 72 75 78 79 72 74 77 75 76 76 76 68 69 70 75 72 86 86 81 88 86
97 86 62 54 59 64 70 74 70 67 56 51 53 78 62 80 85 83 82 81 65 55 63 57 62 70 73 76 78 82 81 78 76 75 74 74 72 74 70 76 84 84 93 95 97 98 98
98 90 60 55 60 65 67 67 70 60 49 54 68 68 70 71 84 86 79 54 55 63 47 61 66 68 70 73 76 79 86 85 76 74 73 74 75 78 82 87 88 92 98 98 96 96 98
80 79 63 55 69 68 61 59 58 52 51 56 50 51 67 87 91 90 73 55 58 47 59 60 65 69 74 73 73 76 85 81 78 77 86 86 87 84 86 95 98 98 98 98 97 97 98
59 54 51 47 53 56 53 47 45 42 39 31 44 60 71 81 94 64 59 61 62 58 55 60 63 67 71 68 69 71 75 76 77 78 89 94 85 79 87 88 91 90 96 88 98 78 90
40 38 43 38 42 37 35 31 30 30 28 28 44 70 88 89 80 66 59 55 53 53 56 53 56 58 62 63 67 68 74 71 74 76 78 72 83 80 82 85 84 85 77 86 94 92 95
33 27 31 31 33 33 30 30 29 28 33 46 62 84 90 87 61 55 58 53 51 50 47 53 51 52 53 58 63 64 68 71 73 78 77 69 79 77 77 74 76 71 68 65 67 63 62
44 39 36 38 38 39 42 39 29 30 38 47 70 85 80 58 52 46 50 49 49 46 45 47 48 49 52 53 55 59 65 69 72 76 70 66 70 77 69 63 62 62 57 58 70 66 62
51 49 43 44 50 55 57 60 62 65 70 70 75 73 66 52 49 42 42 42 46 42 43 46 44 44 44 46 55 52 55 58 67 68 63 61 66 76 66 67 58 55 52 54 54 63 57
48 52 49 44 46 54 58 62 66 66 65 61 61 57 48 47 41 39 40 39 37 36 38 40 39 41 38 41 41 47 50 50 51 54 59 63 65 71 77 66 63 59 52 51 56 61 58
47 47 51 52 50 48 53 56 63 62 56 54 48 46 43 42 35 36 38 35 33 35 31 32 35 36 35 37 37 40 40 45 44 48 51 53 59 59 53 53 53 50 50 50 50 48 55
47 48 48 51 53 54 56 58 61 61 59 58 51 46 39 36 30 32 36 34 30 31 35 30 34 33 32 38 38 40 39 39 42 41 44 47 53 51 47 42 41 42 42 44 45 46 46
43 47 54 56 55 59 59 59 61 61 56 49 41 37 35 32 31 32 33 32 29 31 31 31 32 37 36 37 34 32 33 35 36 36 36 36 39 45 47 35 34 42 36 36 37 39 41
39 41 45 49 51 55 57 60 60 60 53 47 36 34 30 31 30 30 32 34 31 30 33 29 30 32 34 32 31 30 29 31 31 31 31 31 32 34 42 28 39 32 28 28 30 31 33
31 37 44 48 48 51 54 51 51 47 44 36 31 29 28 30 27 28 30 33 34 30 31 30 31 34 34 32 34 32 34 31 27 26 28 29 29 32 39 29 25 26 25 27 28 32 29
21 29 40 45 47 48 53 54 50 45 39 34 30 29 29 27 27 27 28 32 33 33 32 31 31 33 34 33 33 33 36 28 30 29 27 27 27 33 33 37 30 27 26 26 24 33 29
14 23 32 33 39 45 50 54 56 47 40 34 34 33 31 29 28 28 30 31 32 31 35 33 33 34 34 36 40 38 33 29 35 31 32 33 33 37 39 39 30 28 25 25 32 33 24
16 21 26 33 38 46 48 51 55 57 46 37 32 33 34 32 28 28 30 32 32 32 34 34 34 36 37 38 38 37 34 35 32 29 28 30 33 37 34 35 37 26 27 27 28 24 23
21 22 22 31 37 44 52 58 55 58 53 43 37 31 34 36 33 30 31 32 32 34 36 33 37 36 39 40 38 35 38 36 33 32 32 34 29 34 30 33 27 23 25 24 24 24 25

GFSGBSN_prec_cthk_111.txt.gz
RH
73 74 70 68 72 81 89 95 97 98 96 93 92 79 66 54 50 48 63 66 71 70 65 62 63 58 52 43 44 42 41 40 36 31 32 31 31 33 32 32 33 35 35 39 42 42 44
82 76 70 66 71 74 77 87 93 98 97 97 90 78 66 53 45 49 62 61 77 70 65 63 60 55 51 44 41 39 40 38 39 31 31 31 32 32 30 31 34 32 32 28 27 28 31
82 73 79 77 76 87 82 87 90 98 97 97 86 76 63 50 59 47 52 62 84 72 66 64 58 60 49 39 39 43 42 35 35 33 33 31 31 31 35 35 37 37 36 32 27 26 26
76 83 89 87 83 83 84 91 98 98 98 94 84 76 64 52 62 66 66 72 81 74 63 72 66 49 46 46 45 38 36 38 36 35 31 34 36 35 35 41 40 44 44 47 32 35 32
88 93 95 90 90 82 87 94 97 97 94 89 86 76 63 46 73 84 80 66 84 81 68 68 58 53 47 41 41 39 39 43 46 43 42 40 40 40 46 55 63 60 66 65 55 52 53
93 96 95 83 87 85 85 91 96 95 90 88 87 78 60 42 60 81 86 80 65 66 66 64 58 48 46 49 42 42 47 52 55 56 55 54 57 66 72 78 77 74 80 72 69 57 61
97 98 83 72 83 85 88 81 83 85 82 82 75 69 66 49 31 56 84 75 93 80 72 59 51 45 47 49 46 52 58 63 66 63 66 69 77 77 73 71 69 67 72 72 63 58 65
94 87 64 70 81 80 74 76 77 75 76 78 73 56 71 80 42 38 52 69 79 72 65 51 55 60 54 54 58 64 65 70 74 73 68 71 71 63 67 68 70 74 74 67 61 59 69
86 58 58 68 73 70 70 67 70 72 73 61 58 51 90 91 56 49 76 95 68 59 60 56 53 59 58 65 68 73 74 69 66 67 69 68 66 69 74 75 74 70 70 68 70 63 66
94 46 45 51 59 64 68 67 65 62 55 48 45 52 87 81 81 80 93 70 61 68 62 55 62 65 65 69 74 68 64 65 66 66 68 67 63 64 65 67 69 72 65 80 81 79 82
66 49 36 41 48 52 58 58 58 49 44 42 48 55 69 80 80 95 87 75 72 59 59 60 63 70 73 75 72 69 70 72 70 67 70 65 71 70 65 65 72 71 71 79 88 94 86
49 38 29 40 41 44 47 52 45 42 40 44 58 58 61 78 80 79 82 67 53 60 60 64 71 74 77 75 73 72 73 71 71 72 76 75 75 78 76 76 82 85 85 91 96 96 96
42 28 27 36 42 40 43 43 39 38 38 43 51 70 79 77 75 85 78 65 58 56 58 66 71 72 72 74 74 73 75 72 72 72 77 81 75 80 82 87 90 96 98 97 98 97 98
44 35 32 31 33 37 41 40 36 34 28 35 50 60 67 80 73 55 52 55 57 61 68 67 70 69 69 65 67 70 76 74 71 75 80 80 77 82 89 95 98 99 98 98 97 96 98
45 41 46 42 40 38 43 49 47 41 42 47 52 70 77 84 54 47 50 58 66 66 65 68 67 66 64 61 64 67 72 70 69 69 78 82 83 84 89 90 95 96 96 94 99 94 91
45 44 50 44 41 38 40 43 49 54 61 70 67 75 62 49 47 47 51 55 56 58 60 60 61 59 58 58 64 66 70 67 66 67 73 81 92 81 83 81 83 88 83 88 93 96 96
38 43 47 49 41 38 36 35 35 50 63 66 61 65 55 44 45 48 55 54 52 50 51 56 56 53 53 56 59 63 67 68 66 66 73 75 83 77 71 70 73 76 78 72 80 82 93
35 34 36 41 41 34 34 31 38 50 57 58 62 51 48 43 43 48 48 46 42 42 47 50 48 48 50 53 59 61 66 64 62 64 73 65 69 75 69 61 57 61 67 67 77 75 74
35 32 33 35 36 34 32 36 47 50 46 43 46 43 40 40 44 44 40 39 38 41 42 42 42 42 43 49 55 53 56 54 56 59 58 59 66 76 67 56 52 59 55 58 64 67 73
36 35 35 37 38 38 37 40 44 50 52 47 42 41 36 36 36 38 39 34 32 34 37 38 40 38 40 40 43 48 49 48 49 50 53 56 62 63 68 63 60 57 52 48 48 65 67
43 41 36 36 38 41 43 47 48 49 49 47 43 41 37 36 32 33 34 33 31 32 32 34 35 36 36 39 40 41 42 43 44 46 48 51 56 57 53 51 47 46 47 46 46 46 52
38 45 45 46 42 43 46 47 47 46 47 48 49 44 37 34 30 30 32 31 30 29 31 33 34 33 31 34 36 38 39 39 41 42 42 45 49 49 43 38 38 39 42 39 38 40 45
33 42 45 47 50 49 47 49 45 44 40 41 42 43 40 33 32 32 32 30 29 29 28 29 32 33 32 31 28 29 32 33 33 34 36 37 41 45 46 35 34 40 34 35 35 36 37
26 37 44 48 49 49 50 52 51 42 37 35 36 40 38 36 33 33 32 31 29 29 31 27 28 31 29 29 28 28 27 26 28 28 30 33 33 36 42 30 36 30 27 28 33 33 34
13 23 36 47 44 48 50 49 49 43 33 27 30 33 36 37 32 31 32 33 32 28 29 28 28 31 30 30 31 31 32 28 28 26 25 28 31 32 36 38 27 31 27 28 30 29 28
15 14 22 33 39 43 45 48 53 47 41 32 26 28 29 34 32 32 31 33 35 32 31 28 27 30 31 32 33 31 33 27 29 27 27 26 28 32 35 33 30 24 25 25 25 31 27
20 19 17 24 34 39 45 50 55 56 47 39 31 28 28 31 30 32 34 36 37 36 36 32 30 31 32 36 38 40 35 30 34 31 29 31 33 34 37 42 31 27 26 26 31 25 24
24 23 21 20 27 36 43 48 54 56 55 47 35 30 27 28 28 28 32 36 38 38 39 36 34 35 38 38 41 41 38 35 33 29 29 31 37 38 37 39 36 26 26 26 23 23 23
28 27 27 23 25 35 42 47 50 54 55 52 41 35 31 27 28 27 28 34 40 41 42 40 37 39 39 41 41 39 37 38 37 36 33 34 30 31 32 30 26 24 22 22 22 22 24

GFSGBSN_prec_cthk_114.txt.gz
RH
93 95 95 91 83 80 84 89 88 94 98 97 96 88 88 71 52 48 56 66 68 83 77 73 63 60 58 48 46 40 42 38 35 31 28 27 28 28 29 30 31 32 31 33 34 34 35
92 94 91 96 90 84 82 92 87 93 95 96 97 87 78 72 63 54 56 70 73 78 81 76 66 62 54 46 49 44 36 35 33 29 27 26 29 30 30 31 31 30 29 27 25 26 29
90 95 98 97 95 90 88 85 85 87 87 93 93 85 65 65 74 58 65 69 74 82 86 67 64 57 49 51 44 40 39 38 32 29 28 29 31 31 31 31 33 31 31 27 22 22 25
87 90 95 86 79 75 85 82 82 81 89 98 94 79 61 64 75 55 72 81 85 97 93 64 61 59 54 43 41 44 42 36 33 33 34 35 33 31 31 32 32 35 37 42 31 34 34
63 67 65 64 73 89 85 81 94 96 98 97 83 75 64 62 69 81 89 86 83 90 71 69 68 56 51 47 44 43 37 38 42 41 39 39 41 42 42 46 51 51 55 53 46 45 51
45 53 57 63 76 83 85 87 95 94 90 85 70 71 61 75 84 85 73 84 87 84 73 66 57 48 46 45 45 42 42 45 51 57 55 56 59 61 60 64 65 62 63 53 52 46 56
51 39 54 59 70 76 77 75 80 77 76 72 65 71 68 59 90 98 79 81 81 73 66 60 55 50 49 49 47 47 51 55 61 66 66 67 70 69 65 66 58 56 58 59 51 52 59
52 35 44 56 65 64 67 71 67 67 70 63 54 83 71 53 92 98 90 81 79 62 62 55 55 56 57 54 56 59 61 64 63 65 64 64 64 58 58 56 58 60 63 59 56 61 68
39 32 40 53 56 61 64 66 68 68 63 59 55 95 76 49 51 85 84 81 75 58 55 57 66 65 59 64 66 64 56 58 63 63 62 60 54 53 58 59 60 60 66 67 72 75 75
34 28 37 45 48 50 48 48 48 44 42 47 54 94 69 46 40 51 76 65 55 58 57 66 64 62 67 68 64 60 61 64 65 62 65 60 56 60 60 63 63 72 65 74 76 82 83
30 32 36 39 41 40 36 34 35 36 42 48 54 63 56 62 69 78 70 61 62 54 57 67 73 70 70 72 65 70 68 65 71 71 72 66 70 71 74 69 72 75 76 81 86 92 87
28 36 39 41 36 36 36 32 34 43 52 47 46 46 59 66 74 68 64 64 57 51 62 68 74 74 76 71 69 71 73 74 71 74 75 76 75 77 76 79 83 84 92 87 90 92 95
29 37 37 41 48 40 36 36 38 49 49 56 66 67 69 69 68 67 56 49 50 61 60 69 73 76 76 70 70 71 72 73 73 73 75 72 76 78 85 91 93 97 99 95 97 97 96
29 30 36 35 43 43 41 38 32 38 42 61 78 75 71 65 59 50 46 48 60 59 65 69 71 68 68 65 65 69 74 75 74 72 73 79 81 82 84 96 99 98 98 98 97 97 97
28 30 31 35 39 43 41 36 37 49 53 65 68 62 46 48 49 46 47 58 64 65 65 67 66 66 64 59 63 64 70 64 65 70 77 84 86 75 80 85 94 95 98 96 98 95 93
27 27 29 28 33 36 40 41 46 53 55 50 55 49 42 41 41 44 47 52 57 59 62 62 63 60 59 57 59 62 64 64 66 67 74 79 89 75 71 75 82 92 88 96 96 94 94
34 27 23 24 25 29 31 34 46 48 49 45 45 41 41 39 42 44 51 50 49 51 54 55 58 57 55 55 56 61 59 64 63 67 72 73 79 70 69 68 75 80 80 79 82 87 94
32 33 25 22 22 22 25 34 42 48 47 45 43 39 37 38 42 46 45 42 41 46 48 47 50 51 51 50 51 50 56 57 58 60 63 61 67 71 58 58 61 64 69 70 76 80 81
34 34 33 27 22 23 31 40 41 40 41 40 41 35 36 36 41 39 36 36 37 38 41 41 44 45 44 44 46 46 47 47 49 51 53 56 60 63 47 46 49 55 51 52 58 71 84
34 35 39 38 34 29 32 37 42 44 42 36 35 38 33 34 38 35 32 29 31 35 38 38 37 36 36 39 39 42 44 44 45 46 48 50 53 54 55 52 53 50 45 46 51 66 70
34 39 38 41 40 41 40 39 40 40 40 37 35 38 39 38 35 35 32 29 28 29 32 34 31 34 36 37 39 39 41 42 41 42 44 45 47 45 42 42 41 41 41 41 42 42 47
29 36 41 43 42 42 43 41 36 37 34 33 37 40 37 36 34 34 33 30 29 29 29 31 32 33 33 34 36 37 39 38 39 37 38 38 40 41 37 32 33 34 37 36 37 39 42
17 31 39 44 45 45 44 44 38 33 29 29 31 34 37 33 33 34 35 32 30 28 28 29 30 32 30 28 29 31 32 33 33 32 34 34 38 40 42 33 31 36 31 33 34 35 36
15 20 30 37 43 46 47 47 47 40 29 22 24 29 30 36 35 33 33 35 33 30 32 28 28 31 30 29 28 28 30 28 29 28 30 32 34 36 41 29 35 25 25 27 30 32 32
22 18 21 28 34 38 44 46 47 46 36 28 25 27 27 31 31 31 32 33 33 32 29 28 26 29 30 29 30 30 29 28 28 28 27 29 32 33 32 35 24 25 24 26 26 23 29
32 22 21 23 29 35 38 45 48 50 45 36 27 26 25 27 27 25 29 31 35 34 34 30 28 28 30 33 32 30 32 27 26 25 29 29 30 31 37 30 29 18 22 23 23 25 21
40 31 22 22 24 29 35 40 47 53 52 48 38 27 26 27 25 26 25 27 33 36 37 36 32 33 34 38 40 42 37 32 33 33 30 34 35 36 36 41 31 22 24 23 25 17 20
48 37 28 24 24 26 30 36 42 48 53 53 47 36 30 27 25 24 24 26 28 31 39 37 34 35 39 40 43 42 43 36 38 32 31 31 38 40 40 41 34 26 28 26 19 21 20
56 43 33 29 26 27 30 35 37 43 48 51 53 45 38 33 28 24 23 25 26 30 31 35 38 39 39 42 45 45 42 40 39 38 32 38 33 32 33 30 23 24 21 21 22 20 20

GFSGBSN_prec_cthk_117.txt.gz
RH
66 81 86 98 98 98 95 82 87 90 87 87 97 91 89 87 84 56 55 70 64 78 84 77 77 67 54 56 51 48 46 39 34 31 28 27 26 27 27 28 28 28 27 27 28 29 30
55 67 77 80 80 82 88 88 86 86 88 96 98 93 84 77 76 60 57 71 68 97 90 81 75 65 55 59 56 51 42 35 31 28 27 25 25 25 25 26 27 29 28 26 25 24 25
64 55 69 70 71 76 77 82 83 80 87 95 96 90 77 56 77 65 59 75 75 81 86 79 72 62 58 59 55 46 39 37 35 31 27 27 27 28 27 27 30 30 30 26 23 24 26
57 58 65 71 82 88 78 85 84 79 81 82 80 74 57 54 81 65 70 81 90 85 88 81 67 59 55 53 48 41 41 40 35 30 30 31 31 31 31 30 30 32 33 37 31 34 32
64 49 61 75 78 73 84 92 90 81 84 88 82 73 51 66 75 81 93 94 92 87 93 77 63 57 57 49 46 45 42 38 38 38 40 39 38 39 40 42 43 44 50 51 47 44 43
34 40 54 63 65 66 73 83 90 88 82 74 67 65 54 84 74 99 94 98 94 89 76 66 65 52 50 46 46 44 44 44 47 51 53 53 54 56 55 55 57 55 56 51 51 42 40
27 37 52 51 58 55 56 61 63 66 66 60 60 69 73 88 98 93 93 82 86 84 74 67 57 51 47 47 46 45 48 51 57 60 62 60 60 58 53 55 53 52 54 55 48 47 55
28 33 44 45 45 50 51 55 60 58 54 76 90 72 71 98 96 89 91 89 84 73 66 58 51 51 52 50 54 56 54 53 52 54 53 53 54 50 52 54 55 60 62 60 56 58 68
27 31 36 37 37 44 48 49 46 54 61 96 92 75 73 88 95 92 83 78 69 56 58 64 64 61 57 62 60 55 52 51 53 53 56 58 50 50 54 55 60 65 70 69 70 64 66
27 28 32 36 33 35 34 36 42 47 57 80 89 70 66 78 96 82 76 63 59 54 61 68 62 64 65 61 61 59 58 60 60 61 65 64 61 64 66 70 72 75 71 77 85 88 86
25 29 28 30 32 31 31 40 46 42 51 62 59 60 62 61 62 80 66 56 55 53 71 69 70 65 67 66 62 65 62 62 67 68 72 67 70 73 77 76 77 78 78 83 92 91 95
25 28 32 32 30 32 37 50 45 43 44 45 46 47 59 69 70 63 52 55 48 53 71 73 72 72 70 66 68 66 66 66 67 71 70 69 70 77 77 79 81 78 85 90 91 94 96
22 24 30 32 31 31 39 48 54 58 64 63 63 65 66 65 64 69 56 49 53 64 62 69 73 73 67 65 65 66 71 73 72 72 66 67 72 75 79 85 88 90 93 89 92 95 94
19 23 24 24 27 31 33 42 54 59 64 64 64 62 61 57 56 47 44 48 62 61 62 64 65 65 65 63 63 66 73 71 69 73 77 78 71 72 75 86 93 94 94 96 96 97 95
17 21 26 29 27 26 28 35 44 53 54 54 54 52 48 43 42 46 48 61 64 65 64 63 60 61 57 56 59 65 71 67 64 72 76 79 72 63 68 80 89 95 97 96 97 94 94
28 17 20 25 30 30 32 35 39 43 45 41 39 43 43 40 40 45 52 58 60 60 59 59 57 54 52 52 56 59 64 62 64 67 70 71 76 64 64 74 82 90 93 95 94 97 94
31 28 18 17 20 25 33 37 39 38 36 34 34 35 36 38 41 44 53 51 52 54 56 57 55 52 52 54 56 62 59 58 62 64 66 67 71 61 58 61 73 75 77 85 83 90 91
31 31 30 21 20 23 30 40 38 37 34 32 29 35 35 36 38 42 42 41 44 46 49 49 48 49 48 49 51 53 56 54 54 55 58 57 60 64 50 51 56 57 61 73 83 79 88
32 33 35 34 24 25 32 32 36 37 33 30 30 31 32 32 40 39 37 36 38 39 41 42 42 42 45 47 49 47 47 47 49 50 51 53 56 57 40 38 43 53 57 68 76 79 83
29 37 33 35 38 35 33 36 35 34 31 28 26 33 31 30 33 34 36 32 33 36 37 36 36 36 37 39 41 41 43 44 45 45 47 47 49 46 47 41 42 45 48 53 58 66 66
23 31 39 36 33 38 38 37 35 34 29 30 27 32 32 35 32 30 32 32 32 32 34 33 32 35 37 37 39 38 38 39 37 40 41 42 41 41 38 39 37 34 36 42 45 43 45
20 21 31 39 38 35 38 38 33 31 29 28 31 31 30 30 32 30 29 27 29 29 31 31 32 34 33 33 33 35 36 34 34 32 34 35 36 37 37 32 32 32 31 34 38 40 40
30 22 22 28 36 39 39 41 40 36 27 24 26 30 30 28 29 31 32 32 28 28 28 27 29 32 33 30 30 27 29 30 31 32 31 32 35 38 37 33 28 27 27 29 31 34 37
38 29 25 25 26 32 38 41 43 40 33 22 22 25 28 29 28 27 28 30 33 32 30 27 28 28 30 29 27 28 28 30 30 30 31 33 34 36 41 27 24 17 23 23 26 26 30
48 37 29 25 25 25 32 37 42 45 39 35 26 23 25 28 29 26 25 27 27 29 31 29 27 26 29 30 31 29 29 28 28 31 32 31 34 33 33 35 21 19 22 24 25 20 23
59 45 36 29 25 26 26 33 38 47 46 39 34 29 24 26 25 24 26 26 28 29 28 28 29 29 31 33 33 32 31 28 27 27 33 34 33 33 37 32 21 15 21 22 21 23 17
72 56 43 36 29 27 27 29 37 44 50 50 43 36 31 27 23 24 26 26 28 29 30 29 28 29 32 35 38 41 38 33 36 35 34 39 40 42 39 40 27 21 24 22 17 13 19
80 70 55 42 33 28 27 27 31 38 45 51 53 49 39 35 27 23 24 23 26 29 31 31 32 31 33 35 40 41 42 38 38 35 33 34 38 41 42 41 32 25 26 24 18 19 19
84 80 66 53 42 34 30 28 32 38 40 45 50 52 50 43 35 31 28 24 24 26 29 32 31 33 33 37 39 39 39 39 38 38 31 35 32 33 36 31 24 26 24 22 21 21 20